<?xml version="1.0" encoding="UTF-8" standalone="no" ?>
<gpx xmlns="http://www.topografix.com/GPX/1/1" xmlns:xsi="http://www.w3.org/2001/XMLSchema-instance" xsi:schemaLocation="http://www.topografix.com/GPX/1/1 http://www.topografix.com/GPX/1/1/gpx.xsd" version="1.1" creator="VisuGPX - https://www.visugpx.com">
  <metadata>
    <name>HRE : CERVIERES THURES</name>
    <desc><![CDATA[Sur la Haute Route des Escartons une autre façon de joindre l\'étape de Thures et son gite de la Fontanna.]]></desc>
  </metadata>
  <trk>
    <name><![CDATA[Cervieres mautino chabaud thures]]></name>
    <trkseg>
      <trkpt lat="44.86882" lon="6.72358">
        <ele>1624.77</ele>
        <time>2014-02-17T07:46:42Z</time>
      </trkpt>
      <trkpt lat="44.86884" lon="6.7236">
        <ele>1625.25</ele>
        <time>2014-02-17T07:47:01Z</time>
      </trkpt>
      <trkpt lat="44.86884" lon="6.72362">
        <ele>1624.77</ele>
        <time>2014-02-17T07:47:43Z</time>
      </trkpt>
      <trkpt lat="44.86883" lon="6.72362">
        <ele>1624.77</ele>
        <time>2014-02-17T07:48:10Z</time>
      </trkpt>
      <trkpt lat="44.86883" lon="6.7236">
        <ele>1626.21</ele>
        <time>2014-02-17T07:48:29Z</time>
      </trkpt>
      <trkpt lat="44.86883" lon="6.72358">
        <ele>1625.73</ele>
        <time>2014-02-17T07:48:43Z</time>
      </trkpt>
      <trkpt lat="44.86882" lon="6.72356">
        <ele>1625.73</ele>
        <time>2014-02-17T07:49:05Z</time>
      </trkpt>
      <trkpt lat="44.86884" lon="6.72357">
        <ele>1626.69</ele>
        <time>2014-02-17T07:49:17Z</time>
      </trkpt>
      <trkpt lat="44.86886" lon="6.72359">
        <ele>1626.21</ele>
        <time>2014-02-17T07:49:29Z</time>
      </trkpt>
      <trkpt lat="44.86887" lon="6.72359">
        <ele>1626.69</ele>
        <time>2014-02-17T07:49:42Z</time>
      </trkpt>
      <trkpt lat="44.86888" lon="6.7236">
        <ele>1626.21</ele>
        <time>2014-02-17T07:49:45Z</time>
      </trkpt>
      <trkpt lat="44.869" lon="6.7238">
        <ele>1628.13</ele>
        <time>2014-02-17T07:50:01Z</time>
      </trkpt>
      <trkpt lat="44.86916" lon="6.72411">
        <ele>1629.57</ele>
        <time>2014-02-17T07:50:22Z</time>
      </trkpt>
      <trkpt lat="44.86932" lon="6.72436">
        <ele>1631.01</ele>
        <time>2014-02-17T07:50:40Z</time>
      </trkpt>
      <trkpt lat="44.86939" lon="6.72444">
        <ele>1632.46</ele>
        <time>2014-02-17T07:50:47Z</time>
      </trkpt>
      <trkpt lat="44.86947" lon="6.72449">
        <ele>1632.46</ele>
        <time>2014-02-17T07:50:54Z</time>
      </trkpt>
      <trkpt lat="44.86958" lon="6.72464">
        <ele>1635.82</ele>
        <time>2014-02-17T07:51:06Z</time>
      </trkpt>
      <trkpt lat="44.8697" lon="6.72483">
        <ele>1636.3</ele>
        <time>2014-02-17T07:51:20Z</time>
      </trkpt>
      <trkpt lat="44.86986" lon="6.72512">
        <ele>1638.22</ele>
        <time>2014-02-17T07:51:39Z</time>
      </trkpt>
      <trkpt lat="44.87003" lon="6.72544">
        <ele>1640.15</ele>
        <time>2014-02-17T07:52:00Z</time>
      </trkpt>
      <trkpt lat="44.87019" lon="6.72572">
        <ele>1641.11</ele>
        <time>2014-02-17T07:52:18Z</time>
      </trkpt>
      <trkpt lat="44.87034" lon="6.72594">
        <ele>1640.63</ele>
        <time>2014-02-17T07:52:34Z</time>
      </trkpt>
      <trkpt lat="44.87042" lon="6.72602">
        <ele>1641.11</ele>
        <time>2014-02-17T07:52:44Z</time>
      </trkpt>
      <trkpt lat="44.87041" lon="6.726">
        <ele>1640.15</ele>
        <time>2014-02-17T07:52:55Z</time>
      </trkpt>
      <trkpt lat="44.87041" lon="6.726">
        <ele>1640.63</ele>
        <time>2014-02-17T07:53:06Z</time>
      </trkpt>
      <trkpt lat="44.87041" lon="6.72601">
        <ele>1641.11</ele>
        <time>2014-02-17T07:53:16Z</time>
      </trkpt>
      <trkpt lat="44.87041" lon="6.72604">
        <ele>1641.11</ele>
        <time>2014-02-17T07:53:33Z</time>
      </trkpt>
      <trkpt lat="44.87044" lon="6.72609">
        <ele>1642.07</ele>
        <time>2014-02-17T07:53:38Z</time>
      </trkpt>
      <trkpt lat="44.87045" lon="6.72611">
        <ele>1641.59</ele>
        <time>2014-02-17T07:53:40Z</time>
      </trkpt>
      <trkpt lat="44.87046" lon="6.72612">
        <ele>1641.11</ele>
        <time>2014-02-17T07:53:41Z</time>
      </trkpt>
      <trkpt lat="44.87047" lon="6.72613">
        <ele>1640.63</ele>
        <time>2014-02-17T07:53:42Z</time>
      </trkpt>
      <trkpt lat="44.87049" lon="6.72621">
        <ele>1641.11</ele>
        <time>2014-02-17T07:53:48Z</time>
      </trkpt>
      <trkpt lat="44.8705" lon="6.72629">
        <ele>1641.59</ele>
        <time>2014-02-17T07:53:56Z</time>
      </trkpt>
      <trkpt lat="44.8705" lon="6.7263">
        <ele>1641.59</ele>
        <time>2014-02-17T07:53:57Z</time>
      </trkpt>
      <trkpt lat="44.87053" lon="6.72634">
        <ele>1642.07</ele>
        <time>2014-02-17T07:54:01Z</time>
      </trkpt>
      <trkpt lat="44.87054" lon="6.72635">
        <ele>1642.07</ele>
        <time>2014-02-17T07:54:02Z</time>
      </trkpt>
      <trkpt lat="44.87055" lon="6.72636">
        <ele>1641.59</ele>
        <time>2014-02-17T07:54:03Z</time>
      </trkpt>
      <trkpt lat="44.87065" lon="6.7265">
        <ele>1642.55</ele>
        <time>2014-02-17T07:54:17Z</time>
      </trkpt>
      <trkpt lat="44.87076" lon="6.72663">
        <ele>1643.03</ele>
        <time>2014-02-17T07:54:30Z</time>
      </trkpt>
      <trkpt lat="44.87087" lon="6.72675">
        <ele>1643.99</ele>
        <time>2014-02-17T07:54:44Z</time>
      </trkpt>
      <trkpt lat="44.87099" lon="6.72687">
        <ele>1644.47</ele>
        <time>2014-02-17T07:54:58Z</time>
      </trkpt>
      <trkpt lat="44.87109" lon="6.72699">
        <ele>1645.43</ele>
        <time>2014-02-17T07:55:11Z</time>
      </trkpt>
      <trkpt lat="44.87117" lon="6.72711">
        <ele>1646.4</ele>
        <time>2014-02-17T07:55:23Z</time>
      </trkpt>
      <trkpt lat="44.87126" lon="6.72725">
        <ele>1646.88</ele>
        <time>2014-02-17T07:55:37Z</time>
      </trkpt>
      <trkpt lat="44.87134" lon="6.72738">
        <ele>1649.76</ele>
        <time>2014-02-17T07:55:50Z</time>
      </trkpt>
      <trkpt lat="44.8714" lon="6.72748">
        <ele>1650.72</ele>
        <time>2014-02-17T07:56:00Z</time>
      </trkpt>
      <trkpt lat="44.87141" lon="6.7275">
        <ele>1650.72</ele>
        <time>2014-02-17T07:56:02Z</time>
      </trkpt>
      <trkpt lat="44.87145" lon="6.72758">
        <ele>1651.2</ele>
        <time>2014-02-17T07:56:09Z</time>
      </trkpt>
      <trkpt lat="44.87151" lon="6.72772">
        <ele>1652.16</ele>
        <time>2014-02-17T07:56:22Z</time>
      </trkpt>
      <trkpt lat="44.8716" lon="6.72787">
        <ele>1653.6</ele>
        <time>2014-02-17T07:56:36Z</time>
      </trkpt>
      <trkpt lat="44.87168" lon="6.72801">
        <ele>1655.53</ele>
        <time>2014-02-17T07:56:49Z</time>
      </trkpt>
      <trkpt lat="44.87172" lon="6.72816">
        <ele>1656.49</ele>
        <time>2014-02-17T07:57:03Z</time>
      </trkpt>
      <trkpt lat="44.87177" lon="6.72833">
        <ele>1657.45</ele>
        <time>2014-02-17T07:57:17Z</time>
      </trkpt>
      <trkpt lat="44.87182" lon="6.72851">
        <ele>1659.37</ele>
        <time>2014-02-17T07:57:30Z</time>
      </trkpt>
      <trkpt lat="44.87189" lon="6.7287">
        <ele>1659.37</ele>
        <time>2014-02-17T07:57:44Z</time>
      </trkpt>
      <trkpt lat="44.87197" lon="6.72889">
        <ele>1659.85</ele>
        <time>2014-02-17T07:57:59Z</time>
      </trkpt>
      <trkpt lat="44.87202" lon="6.72901">
        <ele>1660.81</ele>
        <time>2014-02-17T07:58:08Z</time>
      </trkpt>
      <trkpt lat="44.87203" lon="6.72905">
        <ele>1661.3</ele>
        <time>2014-02-17T07:58:11Z</time>
      </trkpt>
      <trkpt lat="44.87203" lon="6.72906">
        <ele>1661.3</ele>
        <time>2014-02-17T07:58:12Z</time>
      </trkpt>
      <trkpt lat="44.8721" lon="6.72925">
        <ele>1661.78</ele>
        <time>2014-02-17T07:58:26Z</time>
      </trkpt>
      <trkpt lat="44.87218" lon="6.7294">
        <ele>1663.7</ele>
        <time>2014-02-17T07:58:39Z</time>
      </trkpt>
      <trkpt lat="44.87225" lon="6.72958">
        <ele>1664.66</ele>
        <time>2014-02-17T07:58:53Z</time>
      </trkpt>
      <trkpt lat="44.87231" lon="6.72975">
        <ele>1665.62</ele>
        <time>2014-02-17T07:59:07Z</time>
      </trkpt>
      <trkpt lat="44.87236" lon="6.72986">
        <ele>1667.54</ele>
        <time>2014-02-17T07:59:16Z</time>
      </trkpt>
      <trkpt lat="44.87236" lon="6.72987">
        <ele>1667.06</ele>
        <time>2014-02-17T07:59:17Z</time>
      </trkpt>
      <trkpt lat="44.87244" lon="6.73001">
        <ele>1668.02</ele>
        <time>2014-02-17T07:59:30Z</time>
      </trkpt>
      <trkpt lat="44.87253" lon="6.73013">
        <ele>1668.99</ele>
        <time>2014-02-17T07:59:43Z</time>
      </trkpt>
      <trkpt lat="44.87262" lon="6.73027">
        <ele>1669.47</ele>
        <time>2014-02-17T07:59:57Z</time>
      </trkpt>
      <trkpt lat="44.87272" lon="6.73041">
        <ele>1670.91</ele>
        <time>2014-02-17T08:00:11Z</time>
      </trkpt>
      <trkpt lat="44.87273" lon="6.73044">
        <ele>1671.87</ele>
        <time>2014-02-17T08:00:13Z</time>
      </trkpt>
      <trkpt lat="44.87282" lon="6.73057">
        <ele>1673.31</ele>
        <time>2014-02-17T08:00:28Z</time>
      </trkpt>
      <trkpt lat="44.87289" lon="6.73072">
        <ele>1674.75</ele>
        <time>2014-02-17T08:00:43Z</time>
      </trkpt>
      <trkpt lat="44.87298" lon="6.73085">
        <ele>1677.16</ele>
        <time>2014-02-17T08:00:57Z</time>
      </trkpt>
      <trkpt lat="44.87307" lon="6.73099">
        <ele>1677.16</ele>
        <time>2014-02-17T08:01:12Z</time>
      </trkpt>
      <trkpt lat="44.87317" lon="6.73114">
        <ele>1679.56</ele>
        <time>2014-02-17T08:01:27Z</time>
      </trkpt>
      <trkpt lat="44.8733" lon="6.7313">
        <ele>1681</ele>
        <time>2014-02-17T08:01:45Z</time>
      </trkpt>
      <trkpt lat="44.87341" lon="6.73144">
        <ele>1682.44</ele>
        <time>2014-02-17T08:02:01Z</time>
      </trkpt>
      <trkpt lat="44.87348" lon="6.73158">
        <ele>1684.37</ele>
        <time>2014-02-17T08:02:16Z</time>
      </trkpt>
      <trkpt lat="44.87354" lon="6.73171">
        <ele>1685.81</ele>
        <time>2014-02-17T08:02:30Z</time>
      </trkpt>
      <trkpt lat="44.87359" lon="6.73186">
        <ele>1687.73</ele>
        <time>2014-02-17T08:02:44Z</time>
      </trkpt>
      <trkpt lat="44.87361" lon="6.73198">
        <ele>1688.21</ele>
        <time>2014-02-17T08:02:53Z</time>
      </trkpt>
      <trkpt lat="44.87366" lon="6.73216">
        <ele>1689.17</ele>
        <time>2014-02-17T08:03:08Z</time>
      </trkpt>
      <trkpt lat="44.8737" lon="6.73234">
        <ele>1690.62</ele>
        <time>2014-02-17T08:03:23Z</time>
      </trkpt>
      <trkpt lat="44.87373" lon="6.73249">
        <ele>1692.06</ele>
        <time>2014-02-17T08:03:36Z</time>
      </trkpt>
      <trkpt lat="44.87376" lon="6.73265">
        <ele>1693.98</ele>
        <time>2014-02-17T08:03:51Z</time>
      </trkpt>
      <trkpt lat="44.87377" lon="6.73277">
        <ele>1694.94</ele>
        <time>2014-02-17T08:04:05Z</time>
      </trkpt>
      <trkpt lat="44.8738" lon="6.73293">
        <ele>1695.9</ele>
        <time>2014-02-17T08:04:19Z</time>
      </trkpt>
      <trkpt lat="44.87386" lon="6.7331">
        <ele>1698.31</ele>
        <time>2014-02-17T08:04:36Z</time>
      </trkpt>
      <trkpt lat="44.87391" lon="6.73326">
        <ele>1699.75</ele>
        <time>2014-02-17T08:04:50Z</time>
      </trkpt>
      <trkpt lat="44.87395" lon="6.73343">
        <ele>1701.19</ele>
        <time>2014-02-17T08:05:05Z</time>
      </trkpt>
      <trkpt lat="44.87397" lon="6.73365">
        <ele>1702.63</ele>
        <time>2014-02-17T08:05:21Z</time>
      </trkpt>
      <trkpt lat="44.87397" lon="6.73383">
        <ele>1705.52</ele>
        <time>2014-02-17T08:05:36Z</time>
      </trkpt>
      <trkpt lat="44.87398" lon="6.73398">
        <ele>1706.96</ele>
        <time>2014-02-17T08:05:48Z</time>
      </trkpt>
      <trkpt lat="44.874" lon="6.73415">
        <ele>1708.88</ele>
        <time>2014-02-17T08:06:01Z</time>
      </trkpt>
      <trkpt lat="44.87402" lon="6.73437">
        <ele>1711.28</ele>
        <time>2014-02-17T08:06:18Z</time>
      </trkpt>
      <trkpt lat="44.874" lon="6.73453">
        <ele>1713.69</ele>
        <time>2014-02-17T08:06:32Z</time>
      </trkpt>
      <trkpt lat="44.87396" lon="6.7347">
        <ele>1716.57</ele>
        <time>2014-02-17T08:06:47Z</time>
      </trkpt>
      <trkpt lat="44.87396" lon="6.73473">
        <ele>1717.05</ele>
        <time>2014-02-17T08:06:49Z</time>
      </trkpt>
      <trkpt lat="44.87395" lon="6.73476">
        <ele>1717.53</ele>
        <time>2014-02-17T08:06:52Z</time>
      </trkpt>
      <trkpt lat="44.87387" lon="6.73487">
        <ele>1718.97</ele>
        <time>2014-02-17T08:07:04Z</time>
      </trkpt>
      <trkpt lat="44.87377" lon="6.7349">
        <ele>1721.38</ele>
        <time>2014-02-17T08:07:16Z</time>
      </trkpt>
      <trkpt lat="44.87367" lon="6.73498">
        <ele>1723.78</ele>
        <time>2014-02-17T08:07:29Z</time>
      </trkpt>
      <trkpt lat="44.87367" lon="6.73499">
        <ele>1724.74</ele>
        <time>2014-02-17T08:07:30Z</time>
      </trkpt>
      <trkpt lat="44.87369" lon="6.73518">
        <ele>1726.67</ele>
        <time>2014-02-17T08:07:41Z</time>
      </trkpt>
      <trkpt lat="44.8737" lon="6.73534">
        <ele>1728.11</ele>
        <time>2014-02-17T08:07:54Z</time>
      </trkpt>
      <trkpt lat="44.87374" lon="6.73553">
        <ele>1730.51</ele>
        <time>2014-02-17T08:08:07Z</time>
      </trkpt>
      <trkpt lat="44.87376" lon="6.73567">
        <ele>1732.43</ele>
        <time>2014-02-17T08:08:19Z</time>
      </trkpt>
      <trkpt lat="44.87376" lon="6.73578">
        <ele>1732.91</ele>
        <time>2014-02-17T08:08:28Z</time>
      </trkpt>
      <trkpt lat="44.87372" lon="6.73586">
        <ele>1734.36</ele>
        <time>2014-02-17T08:08:38Z</time>
      </trkpt>
      <trkpt lat="44.87366" lon="6.73583">
        <ele>1735.8</ele>
        <time>2014-02-17T08:08:44Z</time>
      </trkpt>
      <trkpt lat="44.87358" lon="6.73563">
        <ele>1737.72</ele>
        <time>2014-02-17T08:08:58Z</time>
      </trkpt>
      <trkpt lat="44.8735" lon="6.73545">
        <ele>1739.16</ele>
        <time>2014-02-17T08:09:11Z</time>
      </trkpt>
      <trkpt lat="44.87342" lon="6.73528">
        <ele>1740.6</ele>
        <time>2014-02-17T08:09:28Z</time>
      </trkpt>
      <trkpt lat="44.87336" lon="6.73515">
        <ele>1743.01</ele>
        <time>2014-02-17T08:09:38Z</time>
      </trkpt>
      <trkpt lat="44.87333" lon="6.73509">
        <ele>1742.53</ele>
        <time>2014-02-17T08:09:50Z</time>
      </trkpt>
      <trkpt lat="44.87333" lon="6.7351">
        <ele>1742.53</ele>
        <time>2014-02-17T08:10:03Z</time>
      </trkpt>
      <trkpt lat="44.87334" lon="6.7351">
        <ele>1742.53</ele>
        <time>2014-02-17T08:10:30Z</time>
      </trkpt>
      <trkpt lat="44.87333" lon="6.73509">
        <ele>1742.53</ele>
        <time>2014-02-17T08:10:48Z</time>
      </trkpt>
      <trkpt lat="44.87332" lon="6.73508">
        <ele>1743.97</ele>
        <time>2014-02-17T08:10:53Z</time>
      </trkpt>
      <trkpt lat="44.87333" lon="6.73502">
        <ele>1742.05</ele>
        <time>2014-02-17T08:11:12Z</time>
      </trkpt>
      <trkpt lat="44.87326" lon="6.73504">
        <ele>1742.53</ele>
        <time>2014-02-17T08:11:45Z</time>
      </trkpt>
      <trkpt lat="44.87328" lon="6.73502">
        <ele>1741.57</ele>
        <time>2014-02-17T08:12:21Z</time>
      </trkpt>
      <trkpt lat="44.87327" lon="6.73503">
        <ele>1741.08</ele>
        <time>2014-02-17T08:12:24Z</time>
      </trkpt>
      <trkpt lat="44.87331" lon="6.73508">
        <ele>1743.01</ele>
        <time>2014-02-17T08:12:39Z</time>
      </trkpt>
      <trkpt lat="44.87327" lon="6.73499">
        <ele>1743.49</ele>
        <time>2014-02-17T08:12:56Z</time>
      </trkpt>
      <trkpt lat="44.87327" lon="6.73499">
        <ele>1743.97</ele>
        <time>2014-02-17T08:13:00Z</time>
      </trkpt>
      <trkpt lat="44.87322" lon="6.73502">
        <ele>1744.45</ele>
        <time>2014-02-17T08:13:09Z</time>
      </trkpt>
      <trkpt lat="44.87316" lon="6.73507">
        <ele>1744.93</ele>
        <time>2014-02-17T08:13:17Z</time>
      </trkpt>
      <trkpt lat="44.87316" lon="6.73508">
        <ele>1744.93</ele>
        <time>2014-02-17T08:13:18Z</time>
      </trkpt>
      <trkpt lat="44.87316" lon="6.73528">
        <ele>1746.85</ele>
        <time>2014-02-17T08:13:33Z</time>
      </trkpt>
      <trkpt lat="44.87317" lon="6.73546">
        <ele>1749.74</ele>
        <time>2014-02-17T08:13:49Z</time>
      </trkpt>
      <trkpt lat="44.8732" lon="6.73557">
        <ele>1751.66</ele>
        <time>2014-02-17T08:14:00Z</time>
      </trkpt>
      <trkpt lat="44.87322" lon="6.73572">
        <ele>1753.1</ele>
        <time>2014-02-17T08:14:14Z</time>
      </trkpt>
      <trkpt lat="44.87329" lon="6.73592">
        <ele>1756.47</ele>
        <time>2014-02-17T08:14:30Z</time>
      </trkpt>
      <trkpt lat="44.87337" lon="6.73611">
        <ele>1757.91</ele>
        <time>2014-02-17T08:14:46Z</time>
      </trkpt>
      <trkpt lat="44.87345" lon="6.73632">
        <ele>1758.39</ele>
        <time>2014-02-17T08:15:02Z</time>
      </trkpt>
      <trkpt lat="44.87355" lon="6.73651">
        <ele>1758.87</ele>
        <time>2014-02-17T08:15:18Z</time>
      </trkpt>
      <trkpt lat="44.8736" lon="6.73672">
        <ele>1760.31</ele>
        <time>2014-02-17T08:15:33Z</time>
      </trkpt>
      <trkpt lat="44.87362" lon="6.73693">
        <ele>1762.71</ele>
        <time>2014-02-17T08:15:47Z</time>
      </trkpt>
      <trkpt lat="44.87362" lon="6.73696">
        <ele>1763.2</ele>
        <time>2014-02-17T08:15:49Z</time>
      </trkpt>
      <trkpt lat="44.87361" lon="6.73715">
        <ele>1765.12</ele>
        <time>2014-02-17T08:16:02Z</time>
      </trkpt>
      <trkpt lat="44.8736" lon="6.73733">
        <ele>1766.08</ele>
        <time>2014-02-17T08:16:17Z</time>
      </trkpt>
      <trkpt lat="44.87361" lon="6.73752">
        <ele>1767.04</ele>
        <time>2014-02-17T08:16:31Z</time>
      </trkpt>
      <trkpt lat="44.87364" lon="6.73775">
        <ele>1766.56</ele>
        <time>2014-02-17T08:16:46Z</time>
      </trkpt>
      <trkpt lat="44.87365" lon="6.73803">
        <ele>1766.08</ele>
        <time>2014-02-17T08:17:02Z</time>
      </trkpt>
      <trkpt lat="44.87365" lon="6.73826">
        <ele>1766.08</ele>
        <time>2014-02-17T08:17:16Z</time>
      </trkpt>
      <trkpt lat="44.87367" lon="6.73838">
        <ele>1768</ele>
        <time>2014-02-17T08:17:26Z</time>
      </trkpt>
      <trkpt lat="44.87367" lon="6.7384">
        <ele>1768</ele>
        <time>2014-02-17T08:17:27Z</time>
      </trkpt>
      <trkpt lat="44.87367" lon="6.73845">
        <ele>1766.08</ele>
        <time>2014-02-17T08:17:29Z</time>
      </trkpt>
      <trkpt lat="44.87366" lon="6.73848">
        <ele>1767.52</ele>
        <time>2014-02-17T08:17:31Z</time>
      </trkpt>
      <trkpt lat="44.87368" lon="6.73867">
        <ele>1768.48</ele>
        <time>2014-02-17T08:17:45Z</time>
      </trkpt>
      <trkpt lat="44.87366" lon="6.73887">
        <ele>1770.41</ele>
        <time>2014-02-17T08:18:00Z</time>
      </trkpt>
      <trkpt lat="44.87369" lon="6.73903">
        <ele>1772.33</ele>
        <time>2014-02-17T08:18:13Z</time>
      </trkpt>
      <trkpt lat="44.87369" lon="6.73927">
        <ele>1773.29</ele>
        <time>2014-02-17T08:18:29Z</time>
      </trkpt>
      <trkpt lat="44.87375" lon="6.73944">
        <ele>1773.29</ele>
        <time>2014-02-17T08:18:45Z</time>
      </trkpt>
      <trkpt lat="44.87385" lon="6.73961">
        <ele>1774.73</ele>
        <time>2014-02-17T08:19:01Z</time>
      </trkpt>
      <trkpt lat="44.87396" lon="6.73974">
        <ele>1775.69</ele>
        <time>2014-02-17T08:19:15Z</time>
      </trkpt>
      <trkpt lat="44.87409" lon="6.73986">
        <ele>1778.58</ele>
        <time>2014-02-17T08:19:32Z</time>
      </trkpt>
      <trkpt lat="44.87419" lon="6.73992">
        <ele>1780.5</ele>
        <time>2014-02-17T08:19:47Z</time>
      </trkpt>
      <trkpt lat="44.87428" lon="6.7399">
        <ele>1783.38</ele>
        <time>2014-02-17T08:19:57Z</time>
      </trkpt>
      <trkpt lat="44.87438" lon="6.7398">
        <ele>1784.34</ele>
        <time>2014-02-17T08:20:12Z</time>
      </trkpt>
      <trkpt lat="44.87439" lon="6.7398">
        <ele>1784.34</ele>
        <time>2014-02-17T08:20:13Z</time>
      </trkpt>
      <trkpt lat="44.87448" lon="6.7397">
        <ele>1785.79</ele>
        <time>2014-02-17T08:20:26Z</time>
      </trkpt>
      <trkpt lat="44.87461" lon="6.73964">
        <ele>1788.67</ele>
        <time>2014-02-17T08:20:41Z</time>
      </trkpt>
      <trkpt lat="44.87469" lon="6.73961">
        <ele>1791.07</ele>
        <time>2014-02-17T08:20:51Z</time>
      </trkpt>
      <trkpt lat="44.87481" lon="6.73962">
        <ele>1793.48</ele>
        <time>2014-02-17T08:21:05Z</time>
      </trkpt>
      <trkpt lat="44.87492" lon="6.73967">
        <ele>1794.92</ele>
        <time>2014-02-17T08:21:18Z</time>
      </trkpt>
      <trkpt lat="44.87508" lon="6.73974">
        <ele>1796.84</ele>
        <time>2014-02-17T08:21:34Z</time>
      </trkpt>
      <trkpt lat="44.87517" lon="6.73979">
        <ele>1797.32</ele>
        <time>2014-02-17T08:21:46Z</time>
      </trkpt>
      <trkpt lat="44.87527" lon="6.73983">
        <ele>1800.21</ele>
        <time>2014-02-17T08:21:57Z</time>
      </trkpt>
      <trkpt lat="44.87539" lon="6.73991">
        <ele>1801.65</ele>
        <time>2014-02-17T08:22:11Z</time>
      </trkpt>
      <trkpt lat="44.8754" lon="6.73993">
        <ele>1802.13</ele>
        <time>2014-02-17T08:22:13Z</time>
      </trkpt>
      <trkpt lat="44.87551" lon="6.74007">
        <ele>1804.05</ele>
        <time>2014-02-17T08:22:27Z</time>
      </trkpt>
      <trkpt lat="44.87561" lon="6.74023">
        <ele>1805.49</ele>
        <time>2014-02-17T08:22:42Z</time>
      </trkpt>
      <trkpt lat="44.87571" lon="6.74023">
        <ele>1806.94</ele>
        <time>2014-02-17T08:22:57Z</time>
      </trkpt>
      <trkpt lat="44.87574" lon="6.74021">
        <ele>1807.42</ele>
        <time>2014-02-17T08:23:01Z</time>
      </trkpt>
      <trkpt lat="44.87577" lon="6.74019">
        <ele>1807.42</ele>
        <time>2014-02-17T08:23:04Z</time>
      </trkpt>
      <trkpt lat="44.87587" lon="6.74009">
        <ele>1808.38</ele>
        <time>2014-02-17T08:23:16Z</time>
      </trkpt>
      <trkpt lat="44.87595" lon="6.73996">
        <ele>1810.78</ele>
        <time>2014-02-17T08:23:29Z</time>
      </trkpt>
      <trkpt lat="44.87595" lon="6.73986">
        <ele>1812.22</ele>
        <time>2014-02-17T08:23:37Z</time>
      </trkpt>
      <trkpt lat="44.87596" lon="6.73971">
        <ele>1815.59</ele>
        <time>2014-02-17T08:23:50Z</time>
      </trkpt>
      <trkpt lat="44.87593" lon="6.73954">
        <ele>1816.55</ele>
        <time>2014-02-17T08:24:03Z</time>
      </trkpt>
      <trkpt lat="44.87592" lon="6.73941">
        <ele>1818.47</ele>
        <time>2014-02-17T08:24:15Z</time>
      </trkpt>
      <trkpt lat="44.87598" lon="6.73939">
        <ele>1818.95</ele>
        <time>2014-02-17T08:24:23Z</time>
      </trkpt>
      <trkpt lat="44.87605" lon="6.73955">
        <ele>1821.84</ele>
        <time>2014-02-17T08:24:36Z</time>
      </trkpt>
      <trkpt lat="44.87614" lon="6.73972">
        <ele>1822.8</ele>
        <time>2014-02-17T08:24:51Z</time>
      </trkpt>
      <trkpt lat="44.87619" lon="6.73989">
        <ele>1824.24</ele>
        <time>2014-02-17T08:25:04Z</time>
      </trkpt>
      <trkpt lat="44.87624" lon="6.74009">
        <ele>1825.2</ele>
        <time>2014-02-17T08:25:19Z</time>
      </trkpt>
      <trkpt lat="44.87626" lon="6.74021">
        <ele>1828.08</ele>
        <time>2014-02-17T08:25:29Z</time>
      </trkpt>
      <trkpt lat="44.87627" lon="6.7404">
        <ele>1830.01</ele>
        <time>2014-02-17T08:25:44Z</time>
      </trkpt>
      <trkpt lat="44.87627" lon="6.74058">
        <ele>1832.41</ele>
        <time>2014-02-17T08:25:58Z</time>
      </trkpt>
      <trkpt lat="44.87622" lon="6.74076">
        <ele>1833.85</ele>
        <time>2014-02-17T08:26:12Z</time>
      </trkpt>
      <trkpt lat="44.8762" lon="6.74095">
        <ele>1835.29</ele>
        <time>2014-02-17T08:26:26Z</time>
      </trkpt>
      <trkpt lat="44.8762" lon="6.74099">
        <ele>1835.77</ele>
        <time>2014-02-17T08:26:29Z</time>
      </trkpt>
      <trkpt lat="44.87623" lon="6.74109">
        <ele>1838.18</ele>
        <time>2014-02-17T08:26:40Z</time>
      </trkpt>
      <trkpt lat="44.8763" lon="6.74123">
        <ele>1840.58</ele>
        <time>2014-02-17T08:26:55Z</time>
      </trkpt>
      <trkpt lat="44.87634" lon="6.74137">
        <ele>1842.5</ele>
        <time>2014-02-17T08:27:09Z</time>
      </trkpt>
      <trkpt lat="44.87636" lon="6.74147">
        <ele>1844.43</ele>
        <time>2014-02-17T08:27:17Z</time>
      </trkpt>
      <trkpt lat="44.87637" lon="6.74165">
        <ele>1846.35</ele>
        <time>2014-02-17T08:27:31Z</time>
      </trkpt>
      <trkpt lat="44.87639" lon="6.74182">
        <ele>1848.27</ele>
        <time>2014-02-17T08:27:46Z</time>
      </trkpt>
      <trkpt lat="44.87641" lon="6.74187">
        <ele>1849.23</ele>
        <time>2014-02-17T08:27:59Z</time>
      </trkpt>
      <trkpt lat="44.8764" lon="6.74186">
        <ele>1849.71</ele>
        <time>2014-02-17T08:28:18Z</time>
      </trkpt>
      <trkpt lat="44.87641" lon="6.74184">
        <ele>1849.23</ele>
        <time>2014-02-17T08:28:38Z</time>
      </trkpt>
      <trkpt lat="44.8765" lon="6.74187">
        <ele>1849.23</ele>
        <time>2014-02-17T08:28:59Z</time>
      </trkpt>
      <trkpt lat="44.87651" lon="6.74189">
        <ele>1849.71</ele>
        <time>2014-02-17T08:29:18Z</time>
      </trkpt>
      <trkpt lat="44.87648" lon="6.74192">
        <ele>1849.23</ele>
        <time>2014-02-17T08:29:37Z</time>
      </trkpt>
      <trkpt lat="44.8765" lon="6.74195">
        <ele>1849.23</ele>
        <time>2014-02-17T08:29:41Z</time>
      </trkpt>
      <trkpt lat="44.87658" lon="6.74199">
        <ele>1850.19</ele>
        <time>2014-02-17T08:29:54Z</time>
      </trkpt>
      <trkpt lat="44.87668" lon="6.74203">
        <ele>1851.16</ele>
        <time>2014-02-17T08:30:09Z</time>
      </trkpt>
      <trkpt lat="44.87679" lon="6.74206">
        <ele>1851.64</ele>
        <time>2014-02-17T08:30:24Z</time>
      </trkpt>
      <trkpt lat="44.8769" lon="6.7421">
        <ele>1853.56</ele>
        <time>2014-02-17T08:30:39Z</time>
      </trkpt>
      <trkpt lat="44.87698" lon="6.7421">
        <ele>1855.48</ele>
        <time>2014-02-17T08:30:54Z</time>
      </trkpt>
      <trkpt lat="44.87706" lon="6.74213">
        <ele>1856.92</ele>
        <time>2014-02-17T08:31:08Z</time>
      </trkpt>
      <trkpt lat="44.87717" lon="6.74216">
        <ele>1858.37</ele>
        <time>2014-02-17T08:31:24Z</time>
      </trkpt>
      <trkpt lat="44.87727" lon="6.74217">
        <ele>1860.29</ele>
        <time>2014-02-17T08:31:40Z</time>
      </trkpt>
      <trkpt lat="44.87729" lon="6.74217">
        <ele>1860.77</ele>
        <time>2014-02-17T08:31:42Z</time>
      </trkpt>
      <trkpt lat="44.87738" lon="6.74221">
        <ele>1861.73</ele>
        <time>2014-02-17T08:31:55Z</time>
      </trkpt>
      <trkpt lat="44.87751" lon="6.74226">
        <ele>1863.17</ele>
        <time>2014-02-17T08:32:11Z</time>
      </trkpt>
      <trkpt lat="44.87758" lon="6.74231">
        <ele>1864.61</ele>
        <time>2014-02-17T08:32:26Z</time>
      </trkpt>
      <trkpt lat="44.87764" lon="6.74234">
        <ele>1866.54</ele>
        <time>2014-02-17T08:32:37Z</time>
      </trkpt>
      <trkpt lat="44.8777" lon="6.7424">
        <ele>1868.46</ele>
        <time>2014-02-17T08:32:51Z</time>
      </trkpt>
      <trkpt lat="44.87781" lon="6.74247">
        <ele>1869.42</ele>
        <time>2014-02-17T08:33:07Z</time>
      </trkpt>
      <trkpt lat="44.87788" lon="6.7425">
        <ele>1871.82</ele>
        <time>2014-02-17T08:33:21Z</time>
      </trkpt>
      <trkpt lat="44.87797" lon="6.74254">
        <ele>1873.75</ele>
        <time>2014-02-17T08:33:34Z</time>
      </trkpt>
      <trkpt lat="44.87805" lon="6.74261">
        <ele>1875.67</ele>
        <time>2014-02-17T08:33:50Z</time>
      </trkpt>
      <trkpt lat="44.87808" lon="6.74262">
        <ele>1875.19</ele>
        <time>2014-02-17T08:34:02Z</time>
      </trkpt>
      <trkpt lat="44.87808" lon="6.74261">
        <ele>1874.71</ele>
        <time>2014-02-17T08:34:32Z</time>
      </trkpt>
      <trkpt lat="44.87805" lon="6.74261">
        <ele>1874.71</ele>
        <time>2014-02-17T08:34:53Z</time>
      </trkpt>
      <trkpt lat="44.87804" lon="6.74259">
        <ele>1874.71</ele>
        <time>2014-02-17T08:35:18Z</time>
      </trkpt>
      <trkpt lat="44.87805" lon="6.7426">
        <ele>1873.27</ele>
        <time>2014-02-17T08:35:21Z</time>
      </trkpt>
      <trkpt lat="44.87804" lon="6.74259">
        <ele>1875.67</ele>
        <time>2014-02-17T08:35:23Z</time>
      </trkpt>
      <trkpt lat="44.87804" lon="6.7426">
        <ele>1875.67</ele>
        <time>2014-02-17T08:35:40Z</time>
      </trkpt>
      <trkpt lat="44.87803" lon="6.74261">
        <ele>1875.19</ele>
        <time>2014-02-17T08:36:01Z</time>
      </trkpt>
      <trkpt lat="44.87805" lon="6.74261">
        <ele>1875.67</ele>
        <time>2014-02-17T08:36:21Z</time>
      </trkpt>
      <trkpt lat="44.87806" lon="6.74262">
        <ele>1875.67</ele>
        <time>2014-02-17T08:36:44Z</time>
      </trkpt>
      <trkpt lat="44.87804" lon="6.74262">
        <ele>1876.15</ele>
        <time>2014-02-17T08:37:02Z</time>
      </trkpt>
      <trkpt lat="44.87803" lon="6.74259">
        <ele>1875.67</ele>
        <time>2014-02-17T08:37:27Z</time>
      </trkpt>
      <trkpt lat="44.8781" lon="6.74267">
        <ele>1876.63</ele>
        <time>2014-02-17T08:37:40Z</time>
      </trkpt>
      <trkpt lat="44.87814" lon="6.74272">
        <ele>1877.11</ele>
        <time>2014-02-17T08:37:47Z</time>
      </trkpt>
      <trkpt lat="44.87819" lon="6.74283">
        <ele>1879.03</ele>
        <time>2014-02-17T08:38:01Z</time>
      </trkpt>
      <trkpt lat="44.8782" lon="6.74287">
        <ele>1879.03</ele>
        <time>2014-02-17T08:38:05Z</time>
      </trkpt>
      <trkpt lat="44.87823" lon="6.74299">
        <ele>1881.44</ele>
        <time>2014-02-17T08:38:19Z</time>
      </trkpt>
      <trkpt lat="44.87825" lon="6.74314">
        <ele>1881.92</ele>
        <time>2014-02-17T08:38:34Z</time>
      </trkpt>
      <trkpt lat="44.87828" lon="6.74326">
        <ele>1884.8</ele>
        <time>2014-02-17T08:38:48Z</time>
      </trkpt>
      <trkpt lat="44.87829" lon="6.74341">
        <ele>1886.72</ele>
        <time>2014-02-17T08:39:05Z</time>
      </trkpt>
      <trkpt lat="44.87831" lon="6.74356">
        <ele>1888.17</ele>
        <time>2014-02-17T08:39:20Z</time>
      </trkpt>
      <trkpt lat="44.87831" lon="6.74358">
        <ele>1888.17</ele>
        <time>2014-02-17T08:39:21Z</time>
      </trkpt>
      <trkpt lat="44.8783" lon="6.74375">
        <ele>1888.65</ele>
        <time>2014-02-17T08:39:35Z</time>
      </trkpt>
      <trkpt lat="44.87828" lon="6.74394">
        <ele>1889.61</ele>
        <time>2014-02-17T08:39:50Z</time>
      </trkpt>
      <trkpt lat="44.87827" lon="6.74411">
        <ele>1891.05</ele>
        <time>2014-02-17T08:40:04Z</time>
      </trkpt>
      <trkpt lat="44.87827" lon="6.74427">
        <ele>1891.53</ele>
        <time>2014-02-17T08:40:19Z</time>
      </trkpt>
      <trkpt lat="44.87827" lon="6.74427">
        <ele>1891.05</ele>
        <time>2014-02-17T08:40:39Z</time>
      </trkpt>
      <trkpt lat="44.87831" lon="6.74445">
        <ele>1892.01</ele>
        <time>2014-02-17T08:40:54Z</time>
      </trkpt>
      <trkpt lat="44.87834" lon="6.74465">
        <ele>1892.01</ele>
        <time>2014-02-17T08:41:10Z</time>
      </trkpt>
      <trkpt lat="44.87836" lon="6.74484">
        <ele>1891.53</ele>
        <time>2014-02-17T08:41:24Z</time>
      </trkpt>
      <trkpt lat="44.87835" lon="6.74506">
        <ele>1892.49</ele>
        <time>2014-02-17T08:41:40Z</time>
      </trkpt>
      <trkpt lat="44.87831" lon="6.74524">
        <ele>1892.97</ele>
        <time>2014-02-17T08:41:54Z</time>
      </trkpt>
      <trkpt lat="44.87828" lon="6.7454">
        <ele>1892.49</ele>
        <time>2014-02-17T08:42:07Z</time>
      </trkpt>
      <trkpt lat="44.87827" lon="6.74555">
        <ele>1892.97</ele>
        <time>2014-02-17T08:42:20Z</time>
      </trkpt>
      <trkpt lat="44.87825" lon="6.7457">
        <ele>1892.97</ele>
        <time>2014-02-17T08:42:34Z</time>
      </trkpt>
      <trkpt lat="44.87824" lon="6.7457">
        <ele>1892.97</ele>
        <time>2014-02-17T08:42:39Z</time>
      </trkpt>
      <trkpt lat="44.87821" lon="6.7457">
        <ele>1892.49</ele>
        <time>2014-02-17T08:42:48Z</time>
      </trkpt>
      <trkpt lat="44.87824" lon="6.7457">
        <ele>1892.97</ele>
        <time>2014-02-17T08:42:54Z</time>
      </trkpt>
      <trkpt lat="44.87824" lon="6.7457">
        <ele>1881.92</ele>
        <time>2014-02-17T08:42:57Z</time>
      </trkpt>
      <trkpt lat="44.87823" lon="6.74571">
        <ele>1896.34</ele>
        <time>2014-02-17T08:42:58Z</time>
      </trkpt>
      <trkpt lat="44.87823" lon="6.74571">
        <ele>1891.53</ele>
        <time>2014-02-17T08:42:59Z</time>
      </trkpt>
      <trkpt lat="44.87823" lon="6.74572">
        <ele>1892.97</ele>
        <time>2014-02-17T08:43:00Z</time>
      </trkpt>
      <trkpt lat="44.87823" lon="6.7457">
        <ele>1891.53</ele>
        <time>2014-02-17T08:43:03Z</time>
      </trkpt>
      <trkpt lat="44.87821" lon="6.74571">
        <ele>1892.49</ele>
        <time>2014-02-17T08:43:33Z</time>
      </trkpt>
      <trkpt lat="44.87822" lon="6.74572">
        <ele>1892.49</ele>
        <time>2014-02-17T08:44:05Z</time>
      </trkpt>
      <trkpt lat="44.87822" lon="6.7457">
        <ele>1892.49</ele>
        <time>2014-02-17T08:44:20Z</time>
      </trkpt>
      <trkpt lat="44.87819" lon="6.74569">
        <ele>1892.49</ele>
        <time>2014-02-17T08:44:53Z</time>
      </trkpt>
      <trkpt lat="44.87819" lon="6.74571">
        <ele>1891.53</ele>
        <time>2014-02-17T08:45:23Z</time>
      </trkpt>
      <trkpt lat="44.87819" lon="6.74572">
        <ele>1892.01</ele>
        <time>2014-02-17T08:45:44Z</time>
      </trkpt>
      <trkpt lat="44.87821" lon="6.7457">
        <ele>1893.45</ele>
        <time>2014-02-17T08:45:55Z</time>
      </trkpt>
      <trkpt lat="44.87822" lon="6.74573">
        <ele>1893.45</ele>
        <time>2014-02-17T08:45:59Z</time>
      </trkpt>
      <trkpt lat="44.87825" lon="6.7458">
        <ele>1893.45</ele>
        <time>2014-02-17T08:46:04Z</time>
      </trkpt>
      <trkpt lat="44.87821" lon="6.74595">
        <ele>1892.97</ele>
        <time>2014-02-17T08:46:13Z</time>
      </trkpt>
      <trkpt lat="44.87818" lon="6.74621">
        <ele>1892.97</ele>
        <time>2014-02-17T08:46:27Z</time>
      </trkpt>
      <trkpt lat="44.87819" lon="6.74643">
        <ele>1892.97</ele>
        <time>2014-02-17T08:46:41Z</time>
      </trkpt>
      <trkpt lat="44.87825" lon="6.74663">
        <ele>1893.45</ele>
        <time>2014-02-17T08:46:56Z</time>
      </trkpt>
      <trkpt lat="44.87828" lon="6.74665">
        <ele>1893.93</ele>
        <time>2014-02-17T08:47:14Z</time>
      </trkpt>
      <trkpt lat="44.87833" lon="6.74668">
        <ele>1893.93</ele>
        <time>2014-02-17T08:47:33Z</time>
      </trkpt>
      <trkpt lat="44.87838" lon="6.74676">
        <ele>1893.93</ele>
        <time>2014-02-17T08:47:46Z</time>
      </trkpt>
      <trkpt lat="44.8784" lon="6.74678">
        <ele>1892.97</ele>
        <time>2014-02-17T08:48:04Z</time>
      </trkpt>
      <trkpt lat="44.8785" lon="6.74689">
        <ele>1893.45</ele>
        <time>2014-02-17T08:48:17Z</time>
      </trkpt>
      <trkpt lat="44.87861" lon="6.74699">
        <ele>1892.49</ele>
        <time>2014-02-17T08:48:30Z</time>
      </trkpt>
      <trkpt lat="44.87874" lon="6.74713">
        <ele>1892.01</ele>
        <time>2014-02-17T08:48:43Z</time>
      </trkpt>
      <trkpt lat="44.87884" lon="6.74723">
        <ele>1890.57</ele>
        <time>2014-02-17T08:48:55Z</time>
      </trkpt>
      <trkpt lat="44.87896" lon="6.74736">
        <ele>1890.09</ele>
        <time>2014-02-17T08:49:09Z</time>
      </trkpt>
      <trkpt lat="44.87904" lon="6.74741">
        <ele>1889.61</ele>
        <time>2014-02-17T08:49:19Z</time>
      </trkpt>
      <trkpt lat="44.87916" lon="6.74751">
        <ele>1890.09</ele>
        <time>2014-02-17T08:49:33Z</time>
      </trkpt>
      <trkpt lat="44.87923" lon="6.74757">
        <ele>1890.09</ele>
        <time>2014-02-17T08:49:42Z</time>
      </trkpt>
      <trkpt lat="44.87936" lon="6.74772">
        <ele>1891.53</ele>
        <time>2014-02-17T08:49:57Z</time>
      </trkpt>
      <trkpt lat="44.87938" lon="6.74781">
        <ele>1892.97</ele>
        <time>2014-02-17T08:50:06Z</time>
      </trkpt>
      <trkpt lat="44.87943" lon="6.74794">
        <ele>1893.45</ele>
        <time>2014-02-17T08:50:21Z</time>
      </trkpt>
      <trkpt lat="44.87939" lon="6.74798">
        <ele>1893.93</ele>
        <time>2014-02-17T08:50:40Z</time>
      </trkpt>
      <trkpt lat="44.87944" lon="6.74807">
        <ele>1895.38</ele>
        <time>2014-02-17T08:50:56Z</time>
      </trkpt>
      <trkpt lat="44.87948" lon="6.74819">
        <ele>1896.34</ele>
        <time>2014-02-17T08:51:09Z</time>
      </trkpt>
      <trkpt lat="44.87955" lon="6.74835">
        <ele>1897.3</ele>
        <time>2014-02-17T08:51:25Z</time>
      </trkpt>
      <trkpt lat="44.87961" lon="6.74852">
        <ele>1898.26</ele>
        <time>2014-02-17T08:51:42Z</time>
      </trkpt>
      <trkpt lat="44.87964" lon="6.74864">
        <ele>1898.74</ele>
        <time>2014-02-17T08:51:57Z</time>
      </trkpt>
      <trkpt lat="44.87959" lon="6.74865">
        <ele>1898.74</ele>
        <time>2014-02-17T08:52:20Z</time>
      </trkpt>
      <trkpt lat="44.87963" lon="6.74871">
        <ele>1898.74</ele>
        <time>2014-02-17T08:52:39Z</time>
      </trkpt>
      <trkpt lat="44.87966" lon="6.74888">
        <ele>1900.66</ele>
        <time>2014-02-17T08:52:55Z</time>
      </trkpt>
      <trkpt lat="44.87967" lon="6.74893">
        <ele>1900.66</ele>
        <time>2014-02-17T08:52:59Z</time>
      </trkpt>
      <trkpt lat="44.87974" lon="6.74912">
        <ele>1901.63</ele>
        <time>2014-02-17T08:53:17Z</time>
      </trkpt>
      <trkpt lat="44.8797" lon="6.74936">
        <ele>1902.11</ele>
        <time>2014-02-17T08:53:35Z</time>
      </trkpt>
      <trkpt lat="44.87968" lon="6.74954">
        <ele>1902.11</ele>
        <time>2014-02-17T08:53:51Z</time>
      </trkpt>
      <trkpt lat="44.87966" lon="6.74972">
        <ele>1902.11</ele>
        <time>2014-02-17T08:54:05Z</time>
      </trkpt>
      <trkpt lat="44.87963" lon="6.7498">
        <ele>1902.11</ele>
        <time>2014-02-17T08:54:19Z</time>
      </trkpt>
      <trkpt lat="44.87957" lon="6.74992">
        <ele>1902.11</ele>
        <time>2014-02-17T08:54:33Z</time>
      </trkpt>
      <trkpt lat="44.87958" lon="6.75009">
        <ele>1904.51</ele>
        <time>2014-02-17T08:54:47Z</time>
      </trkpt>
      <trkpt lat="44.87955" lon="6.75023">
        <ele>1905.95</ele>
        <time>2014-02-17T08:55:02Z</time>
      </trkpt>
      <trkpt lat="44.87957" lon="6.75041">
        <ele>1908.35</ele>
        <time>2014-02-17T08:55:20Z</time>
      </trkpt>
      <trkpt lat="44.87959" lon="6.75052">
        <ele>1910.28</ele>
        <time>2014-02-17T08:55:32Z</time>
      </trkpt>
      <trkpt lat="44.87965" lon="6.75071">
        <ele>1911.24</ele>
        <time>2014-02-17T08:55:48Z</time>
      </trkpt>
      <trkpt lat="44.87968" lon="6.75083">
        <ele>1911.24</ele>
        <time>2014-02-17T08:56:02Z</time>
      </trkpt>
      <trkpt lat="44.87971" lon="6.75092">
        <ele>1910.76</ele>
        <time>2014-02-17T08:56:18Z</time>
      </trkpt>
      <trkpt lat="44.87976" lon="6.7511">
        <ele>1912.2</ele>
        <time>2014-02-17T08:56:34Z</time>
      </trkpt>
      <trkpt lat="44.87983" lon="6.75127">
        <ele>1912.68</ele>
        <time>2014-02-17T08:56:52Z</time>
      </trkpt>
      <trkpt lat="44.87993" lon="6.75141">
        <ele>1912.2</ele>
        <time>2014-02-17T08:57:08Z</time>
      </trkpt>
      <trkpt lat="44.88001" lon="6.75151">
        <ele>1911.72</ele>
        <time>2014-02-17T08:57:21Z</time>
      </trkpt>
      <trkpt lat="44.88011" lon="6.75161">
        <ele>1912.68</ele>
        <time>2014-02-17T08:57:36Z</time>
      </trkpt>
      <trkpt lat="44.88014" lon="6.75168">
        <ele>1912.68</ele>
        <time>2014-02-17T08:57:42Z</time>
      </trkpt>
      <trkpt lat="44.88018" lon="6.75185">
        <ele>1914.12</ele>
        <time>2014-02-17T08:57:56Z</time>
      </trkpt>
      <trkpt lat="44.88021" lon="6.752">
        <ele>1916.04</ele>
        <time>2014-02-17T08:58:10Z</time>
      </trkpt>
      <trkpt lat="44.88025" lon="6.75216">
        <ele>1915.08</ele>
        <time>2014-02-17T08:58:26Z</time>
      </trkpt>
      <trkpt lat="44.88025" lon="6.75217">
        <ele>1914.6</ele>
        <time>2014-02-17T08:58:52Z</time>
      </trkpt>
      <trkpt lat="44.88026" lon="6.75222">
        <ele>1914.6</ele>
        <time>2014-02-17T08:59:09Z</time>
      </trkpt>
      <trkpt lat="44.88026" lon="6.75223">
        <ele>1914.12</ele>
        <time>2014-02-17T08:59:10Z</time>
      </trkpt>
      <trkpt lat="44.88032" lon="6.75241">
        <ele>1913.16</ele>
        <time>2014-02-17T08:59:26Z</time>
      </trkpt>
      <trkpt lat="44.88039" lon="6.75258">
        <ele>1913.64</ele>
        <time>2014-02-17T08:59:40Z</time>
      </trkpt>
      <trkpt lat="44.88048" lon="6.7528">
        <ele>1912.68</ele>
        <time>2014-02-17T08:59:55Z</time>
      </trkpt>
      <trkpt lat="44.88054" lon="6.75296">
        <ele>1912.2</ele>
        <time>2014-02-17T09:00:09Z</time>
      </trkpt>
      <trkpt lat="44.88055" lon="6.75299">
        <ele>1911.72</ele>
        <time>2014-02-17T09:00:29Z</time>
      </trkpt>
      <trkpt lat="44.8806" lon="6.7532">
        <ele>1911.24</ele>
        <time>2014-02-17T09:00:43Z</time>
      </trkpt>
      <trkpt lat="44.88059" lon="6.75341">
        <ele>1911.72</ele>
        <time>2014-02-17T09:00:58Z</time>
      </trkpt>
      <trkpt lat="44.88058" lon="6.75362">
        <ele>1912.2</ele>
        <time>2014-02-17T09:01:12Z</time>
      </trkpt>
      <trkpt lat="44.88058" lon="6.75363">
        <ele>1912.2</ele>
        <time>2014-02-17T09:01:13Z</time>
      </trkpt>
      <trkpt lat="44.8807" lon="6.75379">
        <ele>1909.32</ele>
        <time>2014-02-17T09:01:26Z</time>
      </trkpt>
      <trkpt lat="44.88071" lon="6.75392">
        <ele>1909.8</ele>
        <time>2014-02-17T09:01:35Z</time>
      </trkpt>
      <trkpt lat="44.88069" lon="6.75408">
        <ele>1910.28</ele>
        <time>2014-02-17T09:01:49Z</time>
      </trkpt>
      <trkpt lat="44.88065" lon="6.75421">
        <ele>1911.72</ele>
        <time>2014-02-17T09:02:03Z</time>
      </trkpt>
      <trkpt lat="44.8806" lon="6.75436">
        <ele>1913.16</ele>
        <time>2014-02-17T09:02:18Z</time>
      </trkpt>
      <trkpt lat="44.88056" lon="6.75452">
        <ele>1914.12</ele>
        <time>2014-02-17T09:02:34Z</time>
      </trkpt>
      <trkpt lat="44.88051" lon="6.75464">
        <ele>1915.08</ele>
        <time>2014-02-17T09:02:50Z</time>
      </trkpt>
      <trkpt lat="44.88049" lon="6.75479">
        <ele>1915.08</ele>
        <time>2014-02-17T09:03:04Z</time>
      </trkpt>
      <trkpt lat="44.88051" lon="6.75494">
        <ele>1916.04</ele>
        <time>2014-02-17T09:03:17Z</time>
      </trkpt>
      <trkpt lat="44.88053" lon="6.75518">
        <ele>1916.04</ele>
        <time>2014-02-17T09:03:33Z</time>
      </trkpt>
      <trkpt lat="44.88058" lon="6.75542">
        <ele>1916.04</ele>
        <time>2014-02-17T09:03:50Z</time>
      </trkpt>
      <trkpt lat="44.88058" lon="6.75563">
        <ele>1916.04</ele>
        <time>2014-02-17T09:04:04Z</time>
      </trkpt>
      <trkpt lat="44.88058" lon="6.75586">
        <ele>1916.53</ele>
        <time>2014-02-17T09:04:20Z</time>
      </trkpt>
      <trkpt lat="44.88058" lon="6.75607">
        <ele>1917.01</ele>
        <time>2014-02-17T09:04:35Z</time>
      </trkpt>
      <trkpt lat="44.88058" lon="6.75625">
        <ele>1917.97</ele>
        <time>2014-02-17T09:04:50Z</time>
      </trkpt>
      <trkpt lat="44.88057" lon="6.75642">
        <ele>1919.89</ele>
        <time>2014-02-17T09:05:04Z</time>
      </trkpt>
      <trkpt lat="44.88055" lon="6.75657">
        <ele>1921.33</ele>
        <time>2014-02-17T09:05:19Z</time>
      </trkpt>
      <trkpt lat="44.88052" lon="6.75675">
        <ele>1923.25</ele>
        <time>2014-02-17T09:05:35Z</time>
      </trkpt>
      <trkpt lat="44.88051" lon="6.75692">
        <ele>1924.22</ele>
        <time>2014-02-17T09:05:49Z</time>
      </trkpt>
      <trkpt lat="44.88051" lon="6.75697">
        <ele>1924.7</ele>
        <time>2014-02-17T09:05:53Z</time>
      </trkpt>
      <trkpt lat="44.88051" lon="6.75717">
        <ele>1925.66</ele>
        <time>2014-02-17T09:06:09Z</time>
      </trkpt>
      <trkpt lat="44.8805" lon="6.75729">
        <ele>1925.66</ele>
        <time>2014-02-17T09:06:25Z</time>
      </trkpt>
      <trkpt lat="44.88049" lon="6.75727">
        <ele>1925.66</ele>
        <time>2014-02-17T09:06:48Z</time>
      </trkpt>
      <trkpt lat="44.8805" lon="6.75728">
        <ele>1921.81</ele>
        <time>2014-02-17T09:07:04Z</time>
      </trkpt>
      <trkpt lat="44.8805" lon="6.75728">
        <ele>1925.18</ele>
        <time>2014-02-17T09:07:20Z</time>
      </trkpt>
      <trkpt lat="44.8805" lon="6.75726">
        <ele>1923.74</ele>
        <time>2014-02-17T09:07:33Z</time>
      </trkpt>
      <trkpt lat="44.88049" lon="6.75726">
        <ele>1925.18</ele>
        <time>2014-02-17T09:07:41Z</time>
      </trkpt>
      <trkpt lat="44.88049" lon="6.75729">
        <ele>1926.14</ele>
        <time>2014-02-17T09:08:03Z</time>
      </trkpt>
      <trkpt lat="44.88049" lon="6.7573">
        <ele>1925.18</ele>
        <time>2014-02-17T09:08:04Z</time>
      </trkpt>
      <trkpt lat="44.88049" lon="6.75755">
        <ele>1926.62</ele>
        <time>2014-02-17T09:08:21Z</time>
      </trkpt>
      <trkpt lat="44.88048" lon="6.75775">
        <ele>1928.54</ele>
        <time>2014-02-17T09:08:36Z</time>
      </trkpt>
      <trkpt lat="44.88047" lon="6.75795">
        <ele>1929.02</ele>
        <time>2014-02-17T09:08:52Z</time>
      </trkpt>
      <trkpt lat="44.88046" lon="6.75804">
        <ele>1928.54</ele>
        <time>2014-02-17T09:08:59Z</time>
      </trkpt>
      <trkpt lat="44.88047" lon="6.75808">
        <ele>1930.46</ele>
        <time>2014-02-17T09:09:02Z</time>
      </trkpt>
      <trkpt lat="44.88047" lon="6.75824">
        <ele>1931.43</ele>
        <time>2014-02-17T09:09:15Z</time>
      </trkpt>
      <trkpt lat="44.88047" lon="6.75843">
        <ele>1931.91</ele>
        <time>2014-02-17T09:09:29Z</time>
      </trkpt>
      <trkpt lat="44.88048" lon="6.75864">
        <ele>1933.35</ele>
        <time>2014-02-17T09:09:44Z</time>
      </trkpt>
      <trkpt lat="44.88048" lon="6.75881">
        <ele>1933.35</ele>
        <time>2014-02-17T09:09:57Z</time>
      </trkpt>
      <trkpt lat="44.88047" lon="6.75901">
        <ele>1933.83</ele>
        <time>2014-02-17T09:10:11Z</time>
      </trkpt>
      <trkpt lat="44.88048" lon="6.75923">
        <ele>1934.31</ele>
        <time>2014-02-17T09:10:26Z</time>
      </trkpt>
      <trkpt lat="44.8805" lon="6.75939">
        <ele>1935.75</ele>
        <time>2014-02-17T09:10:37Z</time>
      </trkpt>
      <trkpt lat="44.88048" lon="6.75964">
        <ele>1933.35</ele>
        <time>2014-02-17T09:10:50Z</time>
      </trkpt>
      <trkpt lat="44.88047" lon="6.75987">
        <ele>1931.91</ele>
        <time>2014-02-17T09:11:03Z</time>
      </trkpt>
      <trkpt lat="44.88046" lon="6.76008">
        <ele>1931.43</ele>
        <time>2014-02-17T09:11:16Z</time>
      </trkpt>
      <trkpt lat="44.88047" lon="6.76033">
        <ele>1931.43</ele>
        <time>2014-02-17T09:11:32Z</time>
      </trkpt>
      <trkpt lat="44.88049" lon="6.76056">
        <ele>1932.39</ele>
        <time>2014-02-17T09:11:47Z</time>
      </trkpt>
      <trkpt lat="44.88049" lon="6.76078">
        <ele>1932.87</ele>
        <time>2014-02-17T09:12:02Z</time>
      </trkpt>
      <trkpt lat="44.88042" lon="6.76091">
        <ele>1934.31</ele>
        <time>2014-02-17T09:12:16Z</time>
      </trkpt>
      <trkpt lat="44.88034" lon="6.76107">
        <ele>1936.71</ele>
        <time>2014-02-17T09:12:30Z</time>
      </trkpt>
      <trkpt lat="44.88032" lon="6.76124">
        <ele>1937.19</ele>
        <time>2014-02-17T09:12:44Z</time>
      </trkpt>
      <trkpt lat="44.88034" lon="6.76144">
        <ele>1939.12</ele>
        <time>2014-02-17T09:12:59Z</time>
      </trkpt>
      <trkpt lat="44.88034" lon="6.76165">
        <ele>1938.16</ele>
        <time>2014-02-17T09:13:13Z</time>
      </trkpt>
      <trkpt lat="44.88034" lon="6.76176">
        <ele>1939.12</ele>
        <time>2014-02-17T09:13:22Z</time>
      </trkpt>
      <trkpt lat="44.88036" lon="6.76201">
        <ele>1939.12</ele>
        <time>2014-02-17T09:13:39Z</time>
      </trkpt>
      <trkpt lat="44.88039" lon="6.76225">
        <ele>1939.12</ele>
        <time>2014-02-17T09:13:54Z</time>
      </trkpt>
      <trkpt lat="44.8804" lon="6.76245">
        <ele>1940.08</ele>
        <time>2014-02-17T09:14:08Z</time>
      </trkpt>
      <trkpt lat="44.88041" lon="6.76269">
        <ele>1941.04</ele>
        <time>2014-02-17T09:14:24Z</time>
      </trkpt>
      <trkpt lat="44.88042" lon="6.76291">
        <ele>1942</ele>
        <time>2014-02-17T09:14:39Z</time>
      </trkpt>
      <trkpt lat="44.88045" lon="6.76309">
        <ele>1940.08</ele>
        <time>2014-02-17T09:14:51Z</time>
      </trkpt>
      <trkpt lat="44.88049" lon="6.76329">
        <ele>1938.16</ele>
        <time>2014-02-17T09:15:02Z</time>
      </trkpt>
      <trkpt lat="44.8805" lon="6.76345">
        <ele>1938.64</ele>
        <time>2014-02-17T09:15:14Z</time>
      </trkpt>
      <trkpt lat="44.88049" lon="6.76353">
        <ele>1940.08</ele>
        <time>2014-02-17T09:15:21Z</time>
      </trkpt>
      <trkpt lat="44.88048" lon="6.76371">
        <ele>1942.48</ele>
        <time>2014-02-17T09:15:35Z</time>
      </trkpt>
      <trkpt lat="44.88047" lon="6.76387">
        <ele>1943.44</ele>
        <time>2014-02-17T09:15:50Z</time>
      </trkpt>
      <trkpt lat="44.88047" lon="6.76403">
        <ele>1945.36</ele>
        <time>2014-02-17T09:16:04Z</time>
      </trkpt>
      <trkpt lat="44.88049" lon="6.7642">
        <ele>1946.33</ele>
        <time>2014-02-17T09:16:18Z</time>
      </trkpt>
      <trkpt lat="44.8805" lon="6.76435">
        <ele>1945.85</ele>
        <time>2014-02-17T09:16:31Z</time>
      </trkpt>
      <trkpt lat="44.88048" lon="6.76448">
        <ele>1948.25</ele>
        <time>2014-02-17T09:16:45Z</time>
      </trkpt>
      <trkpt lat="44.88047" lon="6.7645">
        <ele>1949.69</ele>
        <time>2014-02-17T09:16:47Z</time>
      </trkpt>
      <trkpt lat="44.88041" lon="6.76462">
        <ele>1950.65</ele>
        <time>2014-02-17T09:17:01Z</time>
      </trkpt>
      <trkpt lat="44.88043" lon="6.76478">
        <ele>1952.57</ele>
        <time>2014-02-17T09:17:16Z</time>
      </trkpt>
      <trkpt lat="44.88047" lon="6.76495">
        <ele>1954.02</ele>
        <time>2014-02-17T09:17:32Z</time>
      </trkpt>
      <trkpt lat="44.88051" lon="6.76502">
        <ele>1954.5</ele>
        <time>2014-02-17T09:17:45Z</time>
      </trkpt>
      <trkpt lat="44.88051" lon="6.76504">
        <ele>1953.54</ele>
        <time>2014-02-17T09:18:06Z</time>
      </trkpt>
      <trkpt lat="44.8805" lon="6.76502">
        <ele>1954.02</ele>
        <time>2014-02-17T09:18:22Z</time>
      </trkpt>
      <trkpt lat="44.8805" lon="6.76501">
        <ele>1953.06</ele>
        <time>2014-02-17T09:18:34Z</time>
      </trkpt>
      <trkpt lat="44.88049" lon="6.76503">
        <ele>1953.54</ele>
        <time>2014-02-17T09:18:58Z</time>
      </trkpt>
      <trkpt lat="44.8805" lon="6.76502">
        <ele>1954.02</ele>
        <time>2014-02-17T09:19:21Z</time>
      </trkpt>
      <trkpt lat="44.8805" lon="6.765">
        <ele>1954.02</ele>
        <time>2014-02-17T09:19:41Z</time>
      </trkpt>
      <trkpt lat="44.8805" lon="6.76504">
        <ele>1954.02</ele>
        <time>2014-02-17T09:20:19Z</time>
      </trkpt>
      <trkpt lat="44.88051" lon="6.76504">
        <ele>1954.5</ele>
        <time>2014-02-17T09:20:34Z</time>
      </trkpt>
      <trkpt lat="44.88055" lon="6.76513">
        <ele>1954.98</ele>
        <time>2014-02-17T09:20:42Z</time>
      </trkpt>
      <trkpt lat="44.88059" lon="6.76523">
        <ele>1953.06</ele>
        <time>2014-02-17T09:20:46Z</time>
      </trkpt>
      <trkpt lat="44.88062" lon="6.76546">
        <ele>1948.25</ele>
        <time>2014-02-17T09:20:52Z</time>
      </trkpt>
      <trkpt lat="44.88063" lon="6.76559">
        <ele>1945.85</ele>
        <time>2014-02-17T09:20:55Z</time>
      </trkpt>
      <trkpt lat="44.88064" lon="6.76563">
        <ele>1945.36</ele>
        <time>2014-02-17T09:20:58Z</time>
      </trkpt>
      <trkpt lat="44.88065" lon="6.76568">
        <ele>1945.36</ele>
        <time>2014-02-17T09:21:13Z</time>
      </trkpt>
      <trkpt lat="44.88065" lon="6.76568">
        <ele>1942</ele>
        <time>2014-02-17T09:21:21Z</time>
      </trkpt>
      <trkpt lat="44.88065" lon="6.76568">
        <ele>1943.92</ele>
        <time>2014-02-17T09:21:22Z</time>
      </trkpt>
      <trkpt lat="44.88066" lon="6.76569">
        <ele>1943.92</ele>
        <time>2014-02-17T09:21:56Z</time>
      </trkpt>
      <trkpt lat="44.88065" lon="6.7657">
        <ele>1943.44</ele>
        <time>2014-02-17T09:22:33Z</time>
      </trkpt>
      <trkpt lat="44.88065" lon="6.7657">
        <ele>1943.92</ele>
        <time>2014-02-17T09:23:10Z</time>
      </trkpt>
      <trkpt lat="44.88066" lon="6.76568">
        <ele>1944.4</ele>
        <time>2014-02-17T09:23:45Z</time>
      </trkpt>
      <trkpt lat="44.88066" lon="6.76567">
        <ele>1944.88</ele>
        <time>2014-02-17T09:24:18Z</time>
      </trkpt>
      <trkpt lat="44.88066" lon="6.76568">
        <ele>1945.36</ele>
        <time>2014-02-17T09:24:47Z</time>
      </trkpt>
      <trkpt lat="44.88065" lon="6.76568">
        <ele>1945.36</ele>
        <time>2014-02-17T09:24:58Z</time>
      </trkpt>
      <trkpt lat="44.88064" lon="6.76568">
        <ele>1946.81</ele>
        <time>2014-02-17T09:25:10Z</time>
      </trkpt>
      <trkpt lat="44.88064" lon="6.76572">
        <ele>1946.33</ele>
        <time>2014-02-17T09:25:15Z</time>
      </trkpt>
      <trkpt lat="44.88064" lon="6.76574">
        <ele>1947.29</ele>
        <time>2014-02-17T09:25:17Z</time>
      </trkpt>
      <trkpt lat="44.88063" lon="6.7658">
        <ele>1947.77</ele>
        <time>2014-02-17T09:25:24Z</time>
      </trkpt>
      <trkpt lat="44.88062" lon="6.76587">
        <ele>1949.21</ele>
        <time>2014-02-17T09:25:31Z</time>
      </trkpt>
      <trkpt lat="44.88067" lon="6.76604">
        <ele>1950.65</ele>
        <time>2014-02-17T09:25:46Z</time>
      </trkpt>
      <trkpt lat="44.88073" lon="6.7662">
        <ele>1950.17</ele>
        <time>2014-02-17T09:26:00Z</time>
      </trkpt>
      <trkpt lat="44.88078" lon="6.7664">
        <ele>1951.61</ele>
        <time>2014-02-17T09:26:15Z</time>
      </trkpt>
      <trkpt lat="44.88081" lon="6.7666">
        <ele>1953.54</ele>
        <time>2014-02-17T09:26:30Z</time>
      </trkpt>
      <trkpt lat="44.88086" lon="6.76676">
        <ele>1954.98</ele>
        <time>2014-02-17T09:26:44Z</time>
      </trkpt>
      <trkpt lat="44.88093" lon="6.76689">
        <ele>1955.94</ele>
        <time>2014-02-17T09:27:00Z</time>
      </trkpt>
      <trkpt lat="44.88097" lon="6.76704">
        <ele>1957.86</ele>
        <time>2014-02-17T09:27:15Z</time>
      </trkpt>
      <trkpt lat="44.88102" lon="6.76718">
        <ele>1959.78</ele>
        <time>2014-02-17T09:27:29Z</time>
      </trkpt>
      <trkpt lat="44.88106" lon="6.7673">
        <ele>1962.19</ele>
        <time>2014-02-17T09:27:43Z</time>
      </trkpt>
      <trkpt lat="44.88115" lon="6.76741">
        <ele>1964.11</ele>
        <time>2014-02-17T09:27:57Z</time>
      </trkpt>
      <trkpt lat="44.88122" lon="6.76754">
        <ele>1966.51</ele>
        <time>2014-02-17T09:28:12Z</time>
      </trkpt>
      <trkpt lat="44.88132" lon="6.7677">
        <ele>1967.96</ele>
        <time>2014-02-17T09:28:27Z</time>
      </trkpt>
      <trkpt lat="44.88139" lon="6.76786">
        <ele>1969.4</ele>
        <time>2014-02-17T09:28:41Z</time>
      </trkpt>
      <trkpt lat="44.88145" lon="6.76803">
        <ele>1970.84</ele>
        <time>2014-02-17T09:28:56Z</time>
      </trkpt>
      <trkpt lat="44.88142" lon="6.76823">
        <ele>1972.28</ele>
        <time>2014-02-17T09:29:12Z</time>
      </trkpt>
      <trkpt lat="44.88142" lon="6.76826">
        <ele>1973.24</ele>
        <time>2014-02-17T09:29:26Z</time>
      </trkpt>
      <trkpt lat="44.88139" lon="6.76839">
        <ele>1973.72</ele>
        <time>2014-02-17T09:29:39Z</time>
      </trkpt>
      <trkpt lat="44.88137" lon="6.76855">
        <ele>1975.17</ele>
        <time>2014-02-17T09:29:54Z</time>
      </trkpt>
      <trkpt lat="44.88132" lon="6.76871">
        <ele>1977.57</ele>
        <time>2014-02-17T09:30:09Z</time>
      </trkpt>
      <trkpt lat="44.88133" lon="6.76882">
        <ele>1978.53</ele>
        <time>2014-02-17T09:30:18Z</time>
      </trkpt>
      <trkpt lat="44.88143" lon="6.7689">
        <ele>1980.45</ele>
        <time>2014-02-17T09:30:33Z</time>
      </trkpt>
      <trkpt lat="44.88153" lon="6.76895">
        <ele>1981.9</ele>
        <time>2014-02-17T09:30:47Z</time>
      </trkpt>
      <trkpt lat="44.88167" lon="6.76902">
        <ele>1981.41</ele>
        <time>2014-02-17T09:31:01Z</time>
      </trkpt>
      <trkpt lat="44.88181" lon="6.76907">
        <ele>1980.93</ele>
        <time>2014-02-17T09:31:16Z</time>
      </trkpt>
      <trkpt lat="44.88194" lon="6.76914">
        <ele>1981.41</ele>
        <time>2014-02-17T09:31:31Z</time>
      </trkpt>
      <trkpt lat="44.88205" lon="6.76923">
        <ele>1981.9</ele>
        <time>2014-02-17T09:31:46Z</time>
      </trkpt>
      <trkpt lat="44.88215" lon="6.76935">
        <ele>1980.45</ele>
        <time>2014-02-17T09:32:01Z</time>
      </trkpt>
      <trkpt lat="44.88224" lon="6.76946">
        <ele>1980.45</ele>
        <time>2014-02-17T09:32:15Z</time>
      </trkpt>
      <trkpt lat="44.88235" lon="6.76959">
        <ele>1981.41</ele>
        <time>2014-02-17T09:32:32Z</time>
      </trkpt>
      <trkpt lat="44.88246" lon="6.76971">
        <ele>1981.9</ele>
        <time>2014-02-17T09:32:47Z</time>
      </trkpt>
      <trkpt lat="44.88255" lon="6.76978">
        <ele>1983.34</ele>
        <time>2014-02-17T09:33:00Z</time>
      </trkpt>
      <trkpt lat="44.88262" lon="6.76985">
        <ele>1986.22</ele>
        <time>2014-02-17T09:33:13Z</time>
      </trkpt>
      <trkpt lat="44.88262" lon="6.76997">
        <ele>1988.14</ele>
        <time>2014-02-17T09:33:25Z</time>
      </trkpt>
      <trkpt lat="44.88258" lon="6.77004">
        <ele>1989.59</ele>
        <time>2014-02-17T09:33:36Z</time>
      </trkpt>
      <trkpt lat="44.88251" lon="6.77009">
        <ele>1992.47</ele>
        <time>2014-02-17T09:33:54Z</time>
      </trkpt>
      <trkpt lat="44.8824" lon="6.77013">
        <ele>1993.91</ele>
        <time>2014-02-17T09:34:10Z</time>
      </trkpt>
      <trkpt lat="44.88235" lon="6.77023">
        <ele>1996.32</ele>
        <time>2014-02-17T09:34:24Z</time>
      </trkpt>
      <trkpt lat="44.88237" lon="6.77037">
        <ele>1998.72</ele>
        <time>2014-02-17T09:34:39Z</time>
      </trkpt>
      <trkpt lat="44.88234" lon="6.77049">
        <ele>2001.12</ele>
        <time>2014-02-17T09:34:53Z</time>
      </trkpt>
      <trkpt lat="44.88234" lon="6.7706">
        <ele>2002.56</ele>
        <time>2014-02-17T09:35:05Z</time>
      </trkpt>
      <trkpt lat="44.88238" lon="6.77071">
        <ele>2004.97</ele>
        <time>2014-02-17T09:35:18Z</time>
      </trkpt>
      <trkpt lat="44.88242" lon="6.77082">
        <ele>2006.41</ele>
        <time>2014-02-17T09:35:31Z</time>
      </trkpt>
      <trkpt lat="44.88247" lon="6.77095">
        <ele>2007.85</ele>
        <time>2014-02-17T09:35:44Z</time>
      </trkpt>
      <trkpt lat="44.88256" lon="6.77106">
        <ele>2007.85</ele>
        <time>2014-02-17T09:35:59Z</time>
      </trkpt>
      <trkpt lat="44.88264" lon="6.77119">
        <ele>2009.77</ele>
        <time>2014-02-17T09:36:17Z</time>
      </trkpt>
      <trkpt lat="44.88265" lon="6.77121">
        <ele>2009.29</ele>
        <time>2014-02-17T09:36:24Z</time>
      </trkpt>
      <trkpt lat="44.88269" lon="6.77127">
        <ele>2008.33</ele>
        <time>2014-02-17T09:36:30Z</time>
      </trkpt>
      <trkpt lat="44.8827" lon="6.77139">
        <ele>2009.29</ele>
        <time>2014-02-17T09:36:44Z</time>
      </trkpt>
      <trkpt lat="44.88266" lon="6.77148">
        <ele>2010.25</ele>
        <time>2014-02-17T09:36:55Z</time>
      </trkpt>
      <trkpt lat="44.88258" lon="6.77161">
        <ele>2013.14</ele>
        <time>2014-02-17T09:37:10Z</time>
      </trkpt>
      <trkpt lat="44.88255" lon="6.77173">
        <ele>2014.58</ele>
        <time>2014-02-17T09:37:24Z</time>
      </trkpt>
      <trkpt lat="44.88254" lon="6.77177">
        <ele>2015.06</ele>
        <time>2014-02-17T09:37:27Z</time>
      </trkpt>
      <trkpt lat="44.88254" lon="6.77194">
        <ele>2017.94</ele>
        <time>2014-02-17T09:37:44Z</time>
      </trkpt>
      <trkpt lat="44.88259" lon="6.77212">
        <ele>2018.43</ele>
        <time>2014-02-17T09:38:00Z</time>
      </trkpt>
      <trkpt lat="44.88265" lon="6.77225">
        <ele>2019.87</ele>
        <time>2014-02-17T09:38:16Z</time>
      </trkpt>
      <trkpt lat="44.88271" lon="6.77236">
        <ele>2019.87</ele>
        <time>2014-02-17T09:38:31Z</time>
      </trkpt>
      <trkpt lat="44.88275" lon="6.77239">
        <ele>2020.35</ele>
        <time>2014-02-17T09:38:38Z</time>
      </trkpt>
      <trkpt lat="44.88282" lon="6.77252">
        <ele>2020.35</ele>
        <time>2014-02-17T09:38:51Z</time>
      </trkpt>
      <trkpt lat="44.88288" lon="6.77267">
        <ele>2021.79</ele>
        <time>2014-02-17T09:39:07Z</time>
      </trkpt>
      <trkpt lat="44.88292" lon="6.77274">
        <ele>2022.75</ele>
        <time>2014-02-17T09:39:17Z</time>
      </trkpt>
      <trkpt lat="44.88299" lon="6.77286">
        <ele>2024.67</ele>
        <time>2014-02-17T09:39:32Z</time>
      </trkpt>
      <trkpt lat="44.88301" lon="6.77297">
        <ele>2026.12</ele>
        <time>2014-02-17T09:39:46Z</time>
      </trkpt>
      <trkpt lat="44.883" lon="6.77313">
        <ele>2028.52</ele>
        <time>2014-02-17T09:40:00Z</time>
      </trkpt>
      <trkpt lat="44.88301" lon="6.77318">
        <ele>2028.52</ele>
        <time>2014-02-17T09:40:14Z</time>
      </trkpt>
      <trkpt lat="44.88299" lon="6.77317">
        <ele>2028.52</ele>
        <time>2014-02-17T09:40:36Z</time>
      </trkpt>
      <trkpt lat="44.88299" lon="6.77314">
        <ele>2028.52</ele>
        <time>2014-02-17T09:40:56Z</time>
      </trkpt>
      <trkpt lat="44.88299" lon="6.77317">
        <ele>2028.52</ele>
        <time>2014-02-17T09:41:12Z</time>
      </trkpt>
      <trkpt lat="44.88298" lon="6.77316">
        <ele>2029</ele>
        <time>2014-02-17T09:41:27Z</time>
      </trkpt>
      <trkpt lat="44.88298" lon="6.77315">
        <ele>2029</ele>
        <time>2014-02-17T09:41:50Z</time>
      </trkpt>
      <trkpt lat="44.88298" lon="6.77313">
        <ele>2028.52</ele>
        <time>2014-02-17T09:42:04Z</time>
      </trkpt>
      <trkpt lat="44.88301" lon="6.77316">
        <ele>2027.56</ele>
        <time>2014-02-17T09:42:18Z</time>
      </trkpt>
      <trkpt lat="44.88303" lon="6.77317">
        <ele>2027.56</ele>
        <time>2014-02-17T09:42:57Z</time>
      </trkpt>
      <trkpt lat="44.88304" lon="6.77316">
        <ele>2028.04</ele>
        <time>2014-02-17T09:43:47Z</time>
      </trkpt>
      <trkpt lat="44.88302" lon="6.77317">
        <ele>2028.04</ele>
        <time>2014-02-17T09:44:37Z</time>
      </trkpt>
      <trkpt lat="44.88302" lon="6.77317">
        <ele>2029.48</ele>
        <time>2014-02-17T09:44:41Z</time>
      </trkpt>
      <trkpt lat="44.88301" lon="6.77318">
        <ele>2029</ele>
        <time>2014-02-17T09:44:51Z</time>
      </trkpt>
      <trkpt lat="44.88303" lon="6.77316">
        <ele>2028.52</ele>
        <time>2014-02-17T09:45:12Z</time>
      </trkpt>
      <trkpt lat="44.88303" lon="6.77317">
        <ele>2028.52</ele>
        <time>2014-02-17T09:45:36Z</time>
      </trkpt>
      <trkpt lat="44.883" lon="6.77316">
        <ele>2028.52</ele>
        <time>2014-02-17T09:46:02Z</time>
      </trkpt>
      <trkpt lat="44.88302" lon="6.7732">
        <ele>2029.48</ele>
        <time>2014-02-17T09:46:24Z</time>
      </trkpt>
      <trkpt lat="44.88299" lon="6.77314">
        <ele>2029</ele>
        <time>2014-02-17T09:46:44Z</time>
      </trkpt>
      <trkpt lat="44.88301" lon="6.77316">
        <ele>2029</ele>
        <time>2014-02-17T09:47:09Z</time>
      </trkpt>
      <trkpt lat="44.88301" lon="6.77316">
        <ele>2029</ele>
        <time>2014-02-17T09:47:30Z</time>
      </trkpt>
      <trkpt lat="44.883" lon="6.77317">
        <ele>2029</ele>
        <time>2014-02-17T09:47:46Z</time>
      </trkpt>
      <trkpt lat="44.88299" lon="6.77321">
        <ele>2029.48</ele>
        <time>2014-02-17T09:47:58Z</time>
      </trkpt>
      <trkpt lat="44.88298" lon="6.77325">
        <ele>2029.96</ele>
        <time>2014-02-17T09:48:02Z</time>
      </trkpt>
      <trkpt lat="44.88299" lon="6.7734">
        <ele>2029.96</ele>
        <time>2014-02-17T09:48:16Z</time>
      </trkpt>
      <trkpt lat="44.88299" lon="6.7734">
        <ele>2029.96</ele>
        <time>2014-02-17T09:48:35Z</time>
      </trkpt>
      <trkpt lat="44.88298" lon="6.77336">
        <ele>2029.48</ele>
        <time>2014-02-17T09:48:47Z</time>
      </trkpt>
      <trkpt lat="44.88299" lon="6.77337">
        <ele>2029.96</ele>
        <time>2014-02-17T09:48:59Z</time>
      </trkpt>
      <trkpt lat="44.88301" lon="6.77323">
        <ele>2029.48</ele>
        <time>2014-02-17T09:49:08Z</time>
      </trkpt>
      <trkpt lat="44.88303" lon="6.77318">
        <ele>2029</ele>
        <time>2014-02-17T09:49:14Z</time>
      </trkpt>
      <trkpt lat="44.88302" lon="6.77334">
        <ele>2030.44</ele>
        <time>2014-02-17T09:49:27Z</time>
      </trkpt>
      <trkpt lat="44.88301" lon="6.77339">
        <ele>2029.96</ele>
        <time>2014-02-17T09:49:37Z</time>
      </trkpt>
      <trkpt lat="44.88303" lon="6.77339">
        <ele>2029.96</ele>
        <time>2014-02-17T09:49:55Z</time>
      </trkpt>
      <trkpt lat="44.88303" lon="6.77345">
        <ele>2029.96</ele>
        <time>2014-02-17T09:50:09Z</time>
      </trkpt>
      <trkpt lat="44.88318" lon="6.77362">
        <ele>2027.08</ele>
        <time>2014-02-17T09:50:23Z</time>
      </trkpt>
      <trkpt lat="44.88328" lon="6.77374">
        <ele>2027.56</ele>
        <time>2014-02-17T09:50:35Z</time>
      </trkpt>
      <trkpt lat="44.88339" lon="6.77386">
        <ele>2028.52</ele>
        <time>2014-02-17T09:50:49Z</time>
      </trkpt>
      <trkpt lat="44.8835" lon="6.77398">
        <ele>2030.44</ele>
        <time>2014-02-17T09:51:03Z</time>
      </trkpt>
      <trkpt lat="44.88364" lon="6.77414">
        <ele>2029.48</ele>
        <time>2014-02-17T09:51:18Z</time>
      </trkpt>
      <trkpt lat="44.88374" lon="6.77429">
        <ele>2030.44</ele>
        <time>2014-02-17T09:51:33Z</time>
      </trkpt>
      <trkpt lat="44.88384" lon="6.77446">
        <ele>2030.44</ele>
        <time>2014-02-17T09:51:45Z</time>
      </trkpt>
      <trkpt lat="44.88392" lon="6.77465">
        <ele>2029.96</ele>
        <time>2014-02-17T09:51:58Z</time>
      </trkpt>
      <trkpt lat="44.88402" lon="6.77479">
        <ele>2029.96</ele>
        <time>2014-02-17T09:52:10Z</time>
      </trkpt>
      <trkpt lat="44.88411" lon="6.77493">
        <ele>2029.96</ele>
        <time>2014-02-17T09:52:22Z</time>
      </trkpt>
      <trkpt lat="44.88417" lon="6.775">
        <ele>2029.96</ele>
        <time>2014-02-17T09:52:34Z</time>
      </trkpt>
      <trkpt lat="44.88426" lon="6.77515">
        <ele>2029.96</ele>
        <time>2014-02-17T09:52:47Z</time>
      </trkpt>
      <trkpt lat="44.88437" lon="6.77529">
        <ele>2030.92</ele>
        <time>2014-02-17T09:52:59Z</time>
      </trkpt>
      <trkpt lat="44.88447" lon="6.77544">
        <ele>2030.92</ele>
        <time>2014-02-17T09:53:12Z</time>
      </trkpt>
      <trkpt lat="44.88456" lon="6.77557">
        <ele>2031.88</ele>
        <time>2014-02-17T09:53:24Z</time>
      </trkpt>
      <trkpt lat="44.88467" lon="6.77571">
        <ele>2031.4</ele>
        <time>2014-02-17T09:53:38Z</time>
      </trkpt>
      <trkpt lat="44.8848" lon="6.77589">
        <ele>2032.36</ele>
        <time>2014-02-17T09:53:54Z</time>
      </trkpt>
      <trkpt lat="44.8849" lon="6.77595">
        <ele>2033.33</ele>
        <time>2014-02-17T09:54:06Z</time>
      </trkpt>
      <trkpt lat="44.885" lon="6.77606">
        <ele>2035.73</ele>
        <time>2014-02-17T09:54:20Z</time>
      </trkpt>
      <trkpt lat="44.88502" lon="6.77608">
        <ele>2036.69</ele>
        <time>2014-02-17T09:54:23Z</time>
      </trkpt>
      <trkpt lat="44.88513" lon="6.77616">
        <ele>2039.09</ele>
        <time>2014-02-17T09:54:38Z</time>
      </trkpt>
      <trkpt lat="44.88524" lon="6.77622">
        <ele>2041.5</ele>
        <time>2014-02-17T09:54:52Z</time>
      </trkpt>
      <trkpt lat="44.88536" lon="6.77627">
        <ele>2042.94</ele>
        <time>2014-02-17T09:55:06Z</time>
      </trkpt>
      <trkpt lat="44.88543" lon="6.7763">
        <ele>2043.9</ele>
        <time>2014-02-17T09:55:15Z</time>
      </trkpt>
      <trkpt lat="44.8855" lon="6.77642">
        <ele>2045.34</ele>
        <time>2014-02-17T09:55:29Z</time>
      </trkpt>
      <trkpt lat="44.88553" lon="6.77648">
        <ele>2046.78</ele>
        <time>2014-02-17T09:55:41Z</time>
      </trkpt>
      <trkpt lat="44.88554" lon="6.77649">
        <ele>2043.9</ele>
        <time>2014-02-17T09:55:52Z</time>
      </trkpt>
      <trkpt lat="44.88554" lon="6.77649">
        <ele>2043.9</ele>
        <time>2014-02-17T09:55:53Z</time>
      </trkpt>
      <trkpt lat="44.88556" lon="6.77649">
        <ele>2044.86</ele>
        <time>2014-02-17T09:56:47Z</time>
      </trkpt>
      <trkpt lat="44.88555" lon="6.77649">
        <ele>2044.86</ele>
        <time>2014-02-17T09:57:32Z</time>
      </trkpt>
      <trkpt lat="44.88556" lon="6.77649">
        <ele>2044.86</ele>
        <time>2014-02-17T09:58:15Z</time>
      </trkpt>
      <trkpt lat="44.88554" lon="6.7765">
        <ele>2045.34</ele>
        <time>2014-02-17T09:58:54Z</time>
      </trkpt>
      <trkpt lat="44.88553" lon="6.77649">
        <ele>2045.34</ele>
        <time>2014-02-17T09:59:33Z</time>
      </trkpt>
      <trkpt lat="44.88554" lon="6.7765">
        <ele>2045.34</ele>
        <time>2014-02-17T10:00:01Z</time>
      </trkpt>
      <trkpt lat="44.88555" lon="6.77647">
        <ele>2043.9</ele>
        <time>2014-02-17T10:00:28Z</time>
      </trkpt>
      <trkpt lat="44.88555" lon="6.77651">
        <ele>2045.34</ele>
        <time>2014-02-17T10:00:40Z</time>
      </trkpt>
      <trkpt lat="44.88555" lon="6.77646">
        <ele>2046.3</ele>
        <time>2014-02-17T10:00:52Z</time>
      </trkpt>
      <trkpt lat="44.88556" lon="6.77646">
        <ele>2046.78</ele>
        <time>2014-02-17T10:01:13Z</time>
      </trkpt>
      <trkpt lat="44.88555" lon="6.77648">
        <ele>2046.3</ele>
        <time>2014-02-17T10:01:35Z</time>
      </trkpt>
      <trkpt lat="44.88554" lon="6.77649">
        <ele>2046.3</ele>
        <time>2014-02-17T10:02:12Z</time>
      </trkpt>
      <trkpt lat="44.88554" lon="6.77648">
        <ele>2045.82</ele>
        <time>2014-02-17T10:02:32Z</time>
      </trkpt>
      <trkpt lat="44.88556" lon="6.77648">
        <ele>2045.82</ele>
        <time>2014-02-17T10:02:55Z</time>
      </trkpt>
      <trkpt lat="44.88556" lon="6.77646">
        <ele>2046.3</ele>
        <time>2014-02-17T10:03:08Z</time>
      </trkpt>
      <trkpt lat="44.88557" lon="6.7765">
        <ele>2046.3</ele>
        <time>2014-02-17T10:03:34Z</time>
      </trkpt>
      <trkpt lat="44.88558" lon="6.77659">
        <ele>2047.26</ele>
        <time>2014-02-17T10:03:45Z</time>
      </trkpt>
      <trkpt lat="44.88565" lon="6.77677">
        <ele>2049.19</ele>
        <time>2014-02-17T10:04:01Z</time>
      </trkpt>
      <trkpt lat="44.88572" lon="6.77692">
        <ele>2049.67</ele>
        <time>2014-02-17T10:04:16Z</time>
      </trkpt>
      <trkpt lat="44.88577" lon="6.77707">
        <ele>2050.63</ele>
        <time>2014-02-17T10:04:31Z</time>
      </trkpt>
      <trkpt lat="44.88584" lon="6.77721">
        <ele>2052.07</ele>
        <time>2014-02-17T10:04:45Z</time>
      </trkpt>
      <trkpt lat="44.88591" lon="6.77733">
        <ele>2053.51</ele>
        <time>2014-02-17T10:04:59Z</time>
      </trkpt>
      <trkpt lat="44.88595" lon="6.77749">
        <ele>2055.44</ele>
        <time>2014-02-17T10:05:13Z</time>
      </trkpt>
      <trkpt lat="44.88596" lon="6.77767">
        <ele>2056.4</ele>
        <time>2014-02-17T10:05:28Z</time>
      </trkpt>
      <trkpt lat="44.88594" lon="6.77789">
        <ele>2056.4</ele>
        <time>2014-02-17T10:05:45Z</time>
      </trkpt>
      <trkpt lat="44.88594" lon="6.77807">
        <ele>2055.92</ele>
        <time>2014-02-17T10:06:00Z</time>
      </trkpt>
      <trkpt lat="44.88594" lon="6.77814">
        <ele>2056.88</ele>
        <time>2014-02-17T10:06:07Z</time>
      </trkpt>
      <trkpt lat="44.88597" lon="6.77822">
        <ele>2057.84</ele>
        <time>2014-02-17T10:06:15Z</time>
      </trkpt>
      <trkpt lat="44.88601" lon="6.77844">
        <ele>2053.51</ele>
        <time>2014-02-17T10:06:30Z</time>
      </trkpt>
      <trkpt lat="44.88601" lon="6.77846">
        <ele>2053.99</ele>
        <time>2014-02-17T10:06:31Z</time>
      </trkpt>
      <trkpt lat="44.88601" lon="6.77864">
        <ele>2054.47</ele>
        <time>2014-02-17T10:06:45Z</time>
      </trkpt>
      <trkpt lat="44.88599" lon="6.77882">
        <ele>2054.96</ele>
        <time>2014-02-17T10:06:59Z</time>
      </trkpt>
      <trkpt lat="44.88599" lon="6.77888">
        <ele>2055.44</ele>
        <time>2014-02-17T10:07:04Z</time>
      </trkpt>
      <trkpt lat="44.88603" lon="6.779">
        <ele>2055.92</ele>
        <time>2014-02-17T10:07:16Z</time>
      </trkpt>
      <trkpt lat="44.88609" lon="6.77911">
        <ele>2054.96</ele>
        <time>2014-02-17T10:07:29Z</time>
      </trkpt>
      <trkpt lat="44.8861" lon="6.77924">
        <ele>2055.44</ele>
        <time>2014-02-17T10:07:40Z</time>
      </trkpt>
      <trkpt lat="44.88612" lon="6.77938">
        <ele>2056.4</ele>
        <time>2014-02-17T10:07:54Z</time>
      </trkpt>
      <trkpt lat="44.88617" lon="6.77955">
        <ele>2056.88</ele>
        <time>2014-02-17T10:08:10Z</time>
      </trkpt>
      <trkpt lat="44.88623" lon="6.77975">
        <ele>2054.47</ele>
        <time>2014-02-17T10:08:25Z</time>
      </trkpt>
      <trkpt lat="44.88623" lon="6.77976">
        <ele>2054.47</ele>
        <time>2014-02-17T10:08:26Z</time>
      </trkpt>
      <trkpt lat="44.88628" lon="6.7799">
        <ele>2056.4</ele>
        <time>2014-02-17T10:08:41Z</time>
      </trkpt>
      <trkpt lat="44.88633" lon="6.78003">
        <ele>2057.36</ele>
        <time>2014-02-17T10:08:56Z</time>
      </trkpt>
      <trkpt lat="44.88638" lon="6.78014">
        <ele>2059.76</ele>
        <time>2014-02-17T10:09:12Z</time>
      </trkpt>
      <trkpt lat="44.88641" lon="6.78023">
        <ele>2061.2</ele>
        <time>2014-02-17T10:09:23Z</time>
      </trkpt>
      <trkpt lat="44.88646" lon="6.78035">
        <ele>2062.65</ele>
        <time>2014-02-17T10:09:37Z</time>
      </trkpt>
      <trkpt lat="44.8865" lon="6.78043">
        <ele>2064.57</ele>
        <time>2014-02-17T10:09:49Z</time>
      </trkpt>
      <trkpt lat="44.88655" lon="6.7805">
        <ele>2066.49</ele>
        <time>2014-02-17T10:10:02Z</time>
      </trkpt>
      <trkpt lat="44.88658" lon="6.78055">
        <ele>2068.41</ele>
        <time>2014-02-17T10:10:14Z</time>
      </trkpt>
      <trkpt lat="44.88665" lon="6.78063">
        <ele>2070.34</ele>
        <time>2014-02-17T10:10:27Z</time>
      </trkpt>
      <trkpt lat="44.88671" lon="6.78069">
        <ele>2072.74</ele>
        <time>2014-02-17T10:10:41Z</time>
      </trkpt>
      <trkpt lat="44.88675" lon="6.78074">
        <ele>2074.18</ele>
        <time>2014-02-17T10:10:52Z</time>
      </trkpt>
      <trkpt lat="44.88682" lon="6.78082">
        <ele>2077.07</ele>
        <time>2014-02-17T10:11:09Z</time>
      </trkpt>
      <trkpt lat="44.88683" lon="6.78082">
        <ele>2076.59</ele>
        <time>2014-02-17T10:11:10Z</time>
      </trkpt>
      <trkpt lat="44.88691" lon="6.78085">
        <ele>2078.99</ele>
        <time>2014-02-17T10:11:24Z</time>
      </trkpt>
      <trkpt lat="44.887" lon="6.78091">
        <ele>2080.43</ele>
        <time>2014-02-17T10:11:39Z</time>
      </trkpt>
      <trkpt lat="44.88707" lon="6.78098">
        <ele>2081.39</ele>
        <time>2014-02-17T10:11:52Z</time>
      </trkpt>
      <trkpt lat="44.88715" lon="6.78106">
        <ele>2082.83</ele>
        <time>2014-02-17T10:12:07Z</time>
      </trkpt>
      <trkpt lat="44.88724" lon="6.78111">
        <ele>2084.76</ele>
        <time>2014-02-17T10:12:21Z</time>
      </trkpt>
      <trkpt lat="44.8873" lon="6.78112">
        <ele>2085.72</ele>
        <time>2014-02-17T10:12:33Z</time>
      </trkpt>
      <trkpt lat="44.88739" lon="6.78115">
        <ele>2087.16</ele>
        <time>2014-02-17T10:12:48Z</time>
      </trkpt>
      <trkpt lat="44.8875" lon="6.7812">
        <ele>2089.56</ele>
        <time>2014-02-17T10:13:04Z</time>
      </trkpt>
      <trkpt lat="44.88761" lon="6.78124">
        <ele>2090.52</ele>
        <time>2014-02-17T10:13:20Z</time>
      </trkpt>
      <trkpt lat="44.88766" lon="6.78126">
        <ele>2091.49</ele>
        <time>2014-02-17T10:13:35Z</time>
      </trkpt>
      <trkpt lat="44.88769" lon="6.78127">
        <ele>2091.97</ele>
        <time>2014-02-17T10:13:46Z</time>
      </trkpt>
      <trkpt lat="44.88781" lon="6.7813">
        <ele>2093.89</ele>
        <time>2014-02-17T10:14:01Z</time>
      </trkpt>
      <trkpt lat="44.88784" lon="6.7813">
        <ele>2093.89</ele>
        <time>2014-02-17T10:14:05Z</time>
      </trkpt>
      <trkpt lat="44.88794" lon="6.78129">
        <ele>2096.29</ele>
        <time>2014-02-17T10:14:19Z</time>
      </trkpt>
      <trkpt lat="44.88804" lon="6.78126">
        <ele>2098.21</ele>
        <time>2014-02-17T10:14:31Z</time>
      </trkpt>
      <trkpt lat="44.88813" lon="6.78123">
        <ele>2099.66</ele>
        <time>2014-02-17T10:14:44Z</time>
      </trkpt>
      <trkpt lat="44.88821" lon="6.7812">
        <ele>2101.1</ele>
        <time>2014-02-17T10:14:57Z</time>
      </trkpt>
      <trkpt lat="44.8883" lon="6.78116">
        <ele>2103.02</ele>
        <time>2014-02-17T10:15:11Z</time>
      </trkpt>
      <trkpt lat="44.88841" lon="6.78111">
        <ele>2105.91</ele>
        <time>2014-02-17T10:15:25Z</time>
      </trkpt>
      <trkpt lat="44.88853" lon="6.78111">
        <ele>2106.39</ele>
        <time>2014-02-17T10:15:38Z</time>
      </trkpt>
      <trkpt lat="44.88862" lon="6.78114">
        <ele>2108.31</ele>
        <time>2014-02-17T10:15:51Z</time>
      </trkpt>
      <trkpt lat="44.88871" lon="6.78118">
        <ele>2110.23</ele>
        <time>2014-02-17T10:16:04Z</time>
      </trkpt>
      <trkpt lat="44.88881" lon="6.78125">
        <ele>2111.19</ele>
        <time>2014-02-17T10:16:18Z</time>
      </trkpt>
      <trkpt lat="44.8889" lon="6.78136">
        <ele>2112.15</ele>
        <time>2014-02-17T10:16:32Z</time>
      </trkpt>
      <trkpt lat="44.88899" lon="6.78145">
        <ele>2113.6</ele>
        <time>2014-02-17T10:16:45Z</time>
      </trkpt>
      <trkpt lat="44.88901" lon="6.78146">
        <ele>2113.12</ele>
        <time>2014-02-17T10:16:47Z</time>
      </trkpt>
      <trkpt lat="44.88913" lon="6.78153">
        <ele>2114.08</ele>
        <time>2014-02-17T10:17:01Z</time>
      </trkpt>
      <trkpt lat="44.88929" lon="6.78158">
        <ele>2114.56</ele>
        <time>2014-02-17T10:17:18Z</time>
      </trkpt>
      <trkpt lat="44.88931" lon="6.78158">
        <ele>2113.6</ele>
        <time>2014-02-17T10:17:33Z</time>
      </trkpt>
      <trkpt lat="44.8894" lon="6.78159">
        <ele>2113.6</ele>
        <time>2014-02-17T10:17:45Z</time>
      </trkpt>
      <trkpt lat="44.88941" lon="6.78159">
        <ele>2114.08</ele>
        <time>2014-02-17T10:17:46Z</time>
      </trkpt>
      <trkpt lat="44.88955" lon="6.78164">
        <ele>2113.6</ele>
        <time>2014-02-17T10:17:59Z</time>
      </trkpt>
      <trkpt lat="44.8896" lon="6.78166">
        <ele>2113.12</ele>
        <time>2014-02-17T10:18:12Z</time>
      </trkpt>
      <trkpt lat="44.88961" lon="6.78168">
        <ele>2113.6</ele>
        <time>2014-02-17T10:18:32Z</time>
      </trkpt>
      <trkpt lat="44.88965" lon="6.78169">
        <ele>2113.6</ele>
        <time>2014-02-17T10:18:36Z</time>
      </trkpt>
      <trkpt lat="44.88978" lon="6.78174">
        <ele>2113.6</ele>
        <time>2014-02-17T10:18:49Z</time>
      </trkpt>
      <trkpt lat="44.88991" lon="6.78177">
        <ele>2113.12</ele>
        <time>2014-02-17T10:19:02Z</time>
      </trkpt>
      <trkpt lat="44.89004" lon="6.78178">
        <ele>2113.6</ele>
        <time>2014-02-17T10:19:15Z</time>
      </trkpt>
      <trkpt lat="44.89007" lon="6.78176">
        <ele>2113.12</ele>
        <time>2014-02-17T10:19:27Z</time>
      </trkpt>
      <trkpt lat="44.89008" lon="6.78176">
        <ele>2113.12</ele>
        <time>2014-02-17T10:19:28Z</time>
      </trkpt>
      <trkpt lat="44.89023" lon="6.78176">
        <ele>2113.12</ele>
        <time>2014-02-17T10:19:43Z</time>
      </trkpt>
      <trkpt lat="44.89032" lon="6.78177">
        <ele>2113.6</ele>
        <time>2014-02-17T10:19:52Z</time>
      </trkpt>
      <trkpt lat="44.89034" lon="6.78177">
        <ele>2114.08</ele>
        <time>2014-02-17T10:19:55Z</time>
      </trkpt>
      <trkpt lat="44.89044" lon="6.78181">
        <ele>2115.52</ele>
        <time>2014-02-17T10:20:07Z</time>
      </trkpt>
      <trkpt lat="44.89053" lon="6.78185">
        <ele>2116.48</ele>
        <time>2014-02-17T10:20:20Z</time>
      </trkpt>
      <trkpt lat="44.89062" lon="6.78195">
        <ele>2117.92</ele>
        <time>2014-02-17T10:20:34Z</time>
      </trkpt>
      <trkpt lat="44.8907" lon="6.78205">
        <ele>2118.88</ele>
        <time>2014-02-17T10:20:46Z</time>
      </trkpt>
      <trkpt lat="44.89079" lon="6.78212">
        <ele>2120.81</ele>
        <time>2014-02-17T10:21:00Z</time>
      </trkpt>
      <trkpt lat="44.89088" lon="6.78217">
        <ele>2122.25</ele>
        <time>2014-02-17T10:21:13Z</time>
      </trkpt>
      <trkpt lat="44.89091" lon="6.7822">
        <ele>2124.17</ele>
        <time>2014-02-17T10:21:18Z</time>
      </trkpt>
      <trkpt lat="44.89094" lon="6.7823">
        <ele>2125.61</ele>
        <time>2014-02-17T10:21:31Z</time>
      </trkpt>
      <trkpt lat="44.89096" lon="6.78233">
        <ele>2126.57</ele>
        <time>2014-02-17T10:21:35Z</time>
      </trkpt>
      <trkpt lat="44.89098" lon="6.78238">
        <ele>2127.53</ele>
        <time>2014-02-17T10:21:40Z</time>
      </trkpt>
      <trkpt lat="44.89102" lon="6.78246">
        <ele>2129.46</ele>
        <time>2014-02-17T10:21:53Z</time>
      </trkpt>
      <trkpt lat="44.89107" lon="6.78256">
        <ele>2130.9</ele>
        <time>2014-02-17T10:22:06Z</time>
      </trkpt>
      <trkpt lat="44.89111" lon="6.78264">
        <ele>2131.86</ele>
        <time>2014-02-17T10:22:18Z</time>
      </trkpt>
      <trkpt lat="44.89121" lon="6.78274">
        <ele>2133.78</ele>
        <time>2014-02-17T10:22:32Z</time>
      </trkpt>
      <trkpt lat="44.89132" lon="6.78282">
        <ele>2135.23</ele>
        <time>2014-02-17T10:22:44Z</time>
      </trkpt>
      <trkpt lat="44.89142" lon="6.78287">
        <ele>2136.67</ele>
        <time>2014-02-17T10:22:54Z</time>
      </trkpt>
      <trkpt lat="44.89147" lon="6.78288">
        <ele>2138.59</ele>
        <time>2014-02-17T10:23:05Z</time>
      </trkpt>
      <trkpt lat="44.89154" lon="6.7829">
        <ele>2140.51</ele>
        <time>2014-02-17T10:23:17Z</time>
      </trkpt>
      <trkpt lat="44.89163" lon="6.78292">
        <ele>2143.4</ele>
        <time>2014-02-17T10:23:29Z</time>
      </trkpt>
      <trkpt lat="44.89171" lon="6.78296">
        <ele>2145.8</ele>
        <time>2014-02-17T10:23:42Z</time>
      </trkpt>
      <trkpt lat="44.89176" lon="6.783">
        <ele>2147.72</ele>
        <time>2014-02-17T10:23:55Z</time>
      </trkpt>
      <trkpt lat="44.89183" lon="6.78304">
        <ele>2150.13</ele>
        <time>2014-02-17T10:24:08Z</time>
      </trkpt>
      <trkpt lat="44.8919" lon="6.7831">
        <ele>2151.57</ele>
        <time>2014-02-17T10:24:18Z</time>
      </trkpt>
      <trkpt lat="44.89197" lon="6.78316">
        <ele>2153.49</ele>
        <time>2014-02-17T10:24:30Z</time>
      </trkpt>
      <trkpt lat="44.89203" lon="6.78322">
        <ele>2155.41</ele>
        <time>2014-02-17T10:24:41Z</time>
      </trkpt>
      <trkpt lat="44.8921" lon="6.78328">
        <ele>2156.86</ele>
        <time>2014-02-17T10:24:52Z</time>
      </trkpt>
      <trkpt lat="44.89212" lon="6.78329">
        <ele>2158.3</ele>
        <time>2014-02-17T10:24:55Z</time>
      </trkpt>
      <trkpt lat="44.89219" lon="6.78336">
        <ele>2158.78</ele>
        <time>2014-02-17T10:25:07Z</time>
      </trkpt>
      <trkpt lat="44.89227" lon="6.78346">
        <ele>2161.18</ele>
        <time>2014-02-17T10:25:20Z</time>
      </trkpt>
      <trkpt lat="44.89234" lon="6.78352">
        <ele>2163.1</ele>
        <time>2014-02-17T10:25:33Z</time>
      </trkpt>
      <trkpt lat="44.89237" lon="6.7835">
        <ele>2163.1</ele>
        <time>2014-02-17T10:25:48Z</time>
      </trkpt>
      <trkpt lat="44.89234" lon="6.78349">
        <ele>2163.1</ele>
        <time>2014-02-17T10:26:03Z</time>
      </trkpt>
      <trkpt lat="44.89234" lon="6.78351">
        <ele>2162.62</ele>
        <time>2014-02-17T10:26:21Z</time>
      </trkpt>
      <trkpt lat="44.89238" lon="6.78352">
        <ele>2162.62</ele>
        <time>2014-02-17T10:26:40Z</time>
      </trkpt>
      <trkpt lat="44.89241" lon="6.78353">
        <ele>2164.06</ele>
        <time>2014-02-17T10:26:50Z</time>
      </trkpt>
      <trkpt lat="44.89242" lon="6.78356">
        <ele>2163.58</ele>
        <time>2014-02-17T10:27:05Z</time>
      </trkpt>
      <trkpt lat="44.89241" lon="6.78355">
        <ele>2163.58</ele>
        <time>2014-02-17T10:27:18Z</time>
      </trkpt>
      <trkpt lat="44.8924" lon="6.78352">
        <ele>2163.58</ele>
        <time>2014-02-17T10:27:36Z</time>
      </trkpt>
      <trkpt lat="44.89239" lon="6.78353">
        <ele>2163.58</ele>
        <time>2014-02-17T10:27:56Z</time>
      </trkpt>
      <trkpt lat="44.8924" lon="6.78353">
        <ele>2163.1</ele>
        <time>2014-02-17T10:28:16Z</time>
      </trkpt>
      <trkpt lat="44.89241" lon="6.78354">
        <ele>2163.58</ele>
        <time>2014-02-17T10:28:35Z</time>
      </trkpt>
      <trkpt lat="44.8924" lon="6.78354">
        <ele>2164.06</ele>
        <time>2014-02-17T10:28:53Z</time>
      </trkpt>
      <trkpt lat="44.89247" lon="6.78358">
        <ele>2165.03</ele>
        <time>2014-02-17T10:29:05Z</time>
      </trkpt>
      <trkpt lat="44.89256" lon="6.78364">
        <ele>2167.43</ele>
        <time>2014-02-17T10:29:17Z</time>
      </trkpt>
      <trkpt lat="44.89263" lon="6.78368">
        <ele>2169.35</ele>
        <time>2014-02-17T10:29:30Z</time>
      </trkpt>
      <trkpt lat="44.89271" lon="6.78375">
        <ele>2171.27</ele>
        <time>2014-02-17T10:29:43Z</time>
      </trkpt>
      <trkpt lat="44.89274" lon="6.78378">
        <ele>2171.76</ele>
        <time>2014-02-17T10:29:48Z</time>
      </trkpt>
      <trkpt lat="44.89279" lon="6.78385">
        <ele>2173.68</ele>
        <time>2014-02-17T10:30:01Z</time>
      </trkpt>
      <trkpt lat="44.89281" lon="6.78385">
        <ele>2174.64</ele>
        <time>2014-02-17T10:30:14Z</time>
      </trkpt>
      <trkpt lat="44.89282" lon="6.78385">
        <ele>2174.16</ele>
        <time>2014-02-17T10:30:34Z</time>
      </trkpt>
      <trkpt lat="44.89284" lon="6.78382">
        <ele>2174.64</ele>
        <time>2014-02-17T10:30:58Z</time>
      </trkpt>
      <trkpt lat="44.89284" lon="6.78383">
        <ele>2174.16</ele>
        <time>2014-02-17T10:31:16Z</time>
      </trkpt>
      <trkpt lat="44.89284" lon="6.78386">
        <ele>2174.16</ele>
        <time>2014-02-17T10:31:38Z</time>
      </trkpt>
      <trkpt lat="44.89286" lon="6.78385">
        <ele>2173.68</ele>
        <time>2014-02-17T10:32:02Z</time>
      </trkpt>
      <trkpt lat="44.89288" lon="6.78389">
        <ele>2175.12</ele>
        <time>2014-02-17T10:32:16Z</time>
      </trkpt>
      <trkpt lat="44.89292" lon="6.78394">
        <ele>2176.08</ele>
        <time>2014-02-17T10:32:24Z</time>
      </trkpt>
      <trkpt lat="44.89301" lon="6.78403">
        <ele>2177.52</ele>
        <time>2014-02-17T10:32:37Z</time>
      </trkpt>
      <trkpt lat="44.8931" lon="6.78406">
        <ele>2179.93</ele>
        <time>2014-02-17T10:32:50Z</time>
      </trkpt>
      <trkpt lat="44.89313" lon="6.78407">
        <ele>2181.85</ele>
        <time>2014-02-17T10:32:55Z</time>
      </trkpt>
      <trkpt lat="44.89322" lon="6.78409">
        <ele>2183.77</ele>
        <time>2014-02-17T10:33:09Z</time>
      </trkpt>
      <trkpt lat="44.8933" lon="6.78414">
        <ele>2186.18</ele>
        <time>2014-02-17T10:33:21Z</time>
      </trkpt>
      <trkpt lat="44.8934" lon="6.78417">
        <ele>2187.62</ele>
        <time>2014-02-17T10:33:34Z</time>
      </trkpt>
      <trkpt lat="44.89342" lon="6.78421">
        <ele>2188.1</ele>
        <time>2014-02-17T10:33:51Z</time>
      </trkpt>
      <trkpt lat="44.89342" lon="6.78417">
        <ele>2188.1</ele>
        <time>2014-02-17T10:34:23Z</time>
      </trkpt>
      <trkpt lat="44.89341" lon="6.78415">
        <ele>2187.62</ele>
        <time>2014-02-17T10:34:41Z</time>
      </trkpt>
      <trkpt lat="44.89343" lon="6.78415">
        <ele>2187.14</ele>
        <time>2014-02-17T10:34:56Z</time>
      </trkpt>
      <trkpt lat="44.8935" lon="6.78418">
        <ele>2188.58</ele>
        <time>2014-02-17T10:35:09Z</time>
      </trkpt>
      <trkpt lat="44.89359" lon="6.78421">
        <ele>2190.02</ele>
        <time>2014-02-17T10:35:21Z</time>
      </trkpt>
      <trkpt lat="44.89368" lon="6.78426">
        <ele>2191.94</ele>
        <time>2014-02-17T10:35:34Z</time>
      </trkpt>
      <trkpt lat="44.89381" lon="6.78436">
        <ele>2192.42</ele>
        <time>2014-02-17T10:35:49Z</time>
      </trkpt>
      <trkpt lat="44.89392" lon="6.78442">
        <ele>2193.39</ele>
        <time>2014-02-17T10:36:02Z</time>
      </trkpt>
      <trkpt lat="44.89404" lon="6.7845">
        <ele>2195.31</ele>
        <time>2014-02-17T10:36:16Z</time>
      </trkpt>
      <trkpt lat="44.89413" lon="6.78458">
        <ele>2196.75</ele>
        <time>2014-02-17T10:36:28Z</time>
      </trkpt>
      <trkpt lat="44.89428" lon="6.78464">
        <ele>2197.23</ele>
        <time>2014-02-17T10:36:42Z</time>
      </trkpt>
      <trkpt lat="44.8944" lon="6.78465">
        <ele>2198.19</ele>
        <time>2014-02-17T10:36:57Z</time>
      </trkpt>
      <trkpt lat="44.89448" lon="6.78465">
        <ele>2200.11</ele>
        <time>2014-02-17T10:37:08Z</time>
      </trkpt>
      <trkpt lat="44.8946" lon="6.7847">
        <ele>2202.52</ele>
        <time>2014-02-17T10:37:22Z</time>
      </trkpt>
      <trkpt lat="44.89462" lon="6.7847">
        <ele>2203</ele>
        <time>2014-02-17T10:37:24Z</time>
      </trkpt>
      <trkpt lat="44.89471" lon="6.78466">
        <ele>2203.48</ele>
        <time>2014-02-17T10:37:38Z</time>
      </trkpt>
      <trkpt lat="44.89473" lon="6.78465">
        <ele>2202.04</ele>
        <time>2014-02-17T10:37:50Z</time>
      </trkpt>
      <trkpt lat="44.89473" lon="6.78464">
        <ele>2202.04</ele>
        <time>2014-02-17T10:37:51Z</time>
      </trkpt>
      <trkpt lat="44.89471" lon="6.78467">
        <ele>2202.52</ele>
        <time>2014-02-17T10:38:29Z</time>
      </trkpt>
      <trkpt lat="44.89471" lon="6.78469">
        <ele>2201.08</ele>
        <time>2014-02-17T10:39:04Z</time>
      </trkpt>
      <trkpt lat="44.89469" lon="6.78466">
        <ele>2201.56</ele>
        <time>2014-02-17T10:39:46Z</time>
      </trkpt>
      <trkpt lat="44.89469" lon="6.78466">
        <ele>2201.08</ele>
        <time>2014-02-17T10:40:23Z</time>
      </trkpt>
      <trkpt lat="44.89469" lon="6.78464">
        <ele>2201.56</ele>
        <time>2014-02-17T10:40:54Z</time>
      </trkpt>
      <trkpt lat="44.8947" lon="6.78463">
        <ele>2201.56</ele>
        <time>2014-02-17T10:41:31Z</time>
      </trkpt>
      <trkpt lat="44.8947" lon="6.78462">
        <ele>2201.56</ele>
        <time>2014-02-17T10:41:56Z</time>
      </trkpt>
      <trkpt lat="44.8947" lon="6.78463">
        <ele>2202.04</ele>
        <time>2014-02-17T10:42:02Z</time>
      </trkpt>
      <trkpt lat="44.8947" lon="6.78465">
        <ele>2202.52</ele>
        <time>2014-02-17T10:42:33Z</time>
      </trkpt>
      <trkpt lat="44.8947" lon="6.78465">
        <ele>2201.56</ele>
        <time>2014-02-17T10:43:13Z</time>
      </trkpt>
      <trkpt lat="44.89469" lon="6.78465">
        <ele>2201.56</ele>
        <time>2014-02-17T10:44:01Z</time>
      </trkpt>
      <trkpt lat="44.8947" lon="6.78465">
        <ele>2201.08</ele>
        <time>2014-02-17T10:44:49Z</time>
      </trkpt>
      <trkpt lat="44.89469" lon="6.78465">
        <ele>2201.56</ele>
        <time>2014-02-17T10:45:31Z</time>
      </trkpt>
      <trkpt lat="44.89469" lon="6.78464">
        <ele>2202.04</ele>
        <time>2014-02-17T10:46:09Z</time>
      </trkpt>
      <trkpt lat="44.89469" lon="6.78463">
        <ele>2201.08</ele>
        <time>2014-02-17T10:47:00Z</time>
      </trkpt>
      <trkpt lat="44.8947" lon="6.78461">
        <ele>2201.56</ele>
        <time>2014-02-17T10:47:46Z</time>
      </trkpt>
      <trkpt lat="44.89469" lon="6.78462">
        <ele>2202.04</ele>
        <time>2014-02-17T10:48:40Z</time>
      </trkpt>
      <trkpt lat="44.89468" lon="6.78462">
        <ele>2202.04</ele>
        <time>2014-02-17T10:49:17Z</time>
      </trkpt>
      <trkpt lat="44.89469" lon="6.78462">
        <ele>2201.08</ele>
        <time>2014-02-17T10:49:53Z</time>
      </trkpt>
      <trkpt lat="44.89469" lon="6.78462">
        <ele>2202.52</ele>
        <time>2014-02-17T10:49:58Z</time>
      </trkpt>
      <trkpt lat="44.89469" lon="6.78462">
        <ele>2202.52</ele>
        <time>2014-02-17T10:50:20Z</time>
      </trkpt>
      <trkpt lat="44.8947" lon="6.78461">
        <ele>2201.56</ele>
        <time>2014-02-17T10:50:59Z</time>
      </trkpt>
      <trkpt lat="44.89468" lon="6.78461">
        <ele>2202.04</ele>
        <time>2014-02-17T10:51:13Z</time>
      </trkpt>
      <trkpt lat="44.89467" lon="6.78461">
        <ele>2202.04</ele>
        <time>2014-02-17T10:52:04Z</time>
      </trkpt>
      <trkpt lat="44.89469" lon="6.78461">
        <ele>2201.56</ele>
        <time>2014-02-17T10:52:54Z</time>
      </trkpt>
      <trkpt lat="44.89469" lon="6.78461">
        <ele>2201.56</ele>
        <time>2014-02-17T10:53:51Z</time>
      </trkpt>
      <trkpt lat="44.89469" lon="6.78462">
        <ele>2202.04</ele>
        <time>2014-02-17T10:54:07Z</time>
      </trkpt>
      <trkpt lat="44.89469" lon="6.78463">
        <ele>2203</ele>
        <time>2014-02-17T10:54:09Z</time>
      </trkpt>
      <trkpt lat="44.89468" lon="6.78463">
        <ele>2202.52</ele>
        <time>2014-02-17T10:54:19Z</time>
      </trkpt>
      <trkpt lat="44.89469" lon="6.78463">
        <ele>2203</ele>
        <time>2014-02-17T10:54:37Z</time>
      </trkpt>
      <trkpt lat="44.89469" lon="6.78461">
        <ele>2203.48</ele>
        <time>2014-02-17T10:54:58Z</time>
      </trkpt>
      <trkpt lat="44.89469" lon="6.78463">
        <ele>2202.52</ele>
        <time>2014-02-17T10:55:11Z</time>
      </trkpt>
      <trkpt lat="44.89476" lon="6.78459">
        <ele>2202.04</ele>
        <time>2014-02-17T10:55:24Z</time>
      </trkpt>
      <trkpt lat="44.8948" lon="6.78457">
        <ele>2201.56</ele>
        <time>2014-02-17T10:55:27Z</time>
      </trkpt>
      <trkpt lat="44.89491" lon="6.78451">
        <ele>2200.11</ele>
        <time>2014-02-17T10:55:34Z</time>
      </trkpt>
      <trkpt lat="44.89509" lon="6.78442">
        <ele>2196.27</ele>
        <time>2014-02-17T10:55:41Z</time>
      </trkpt>
      <trkpt lat="44.89518" lon="6.78436">
        <ele>2192.9</ele>
        <time>2014-02-17T10:55:44Z</time>
      </trkpt>
      <trkpt lat="44.89524" lon="6.78432">
        <ele>2190.02</ele>
        <time>2014-02-17T10:55:46Z</time>
      </trkpt>
      <trkpt lat="44.89541" lon="6.78424">
        <ele>2186.66</ele>
        <time>2014-02-17T10:55:51Z</time>
      </trkpt>
      <trkpt lat="44.89557" lon="6.78417">
        <ele>2183.29</ele>
        <time>2014-02-17T10:55:55Z</time>
      </trkpt>
      <trkpt lat="44.89573" lon="6.78409">
        <ele>2179.93</ele>
        <time>2014-02-17T10:55:58Z</time>
      </trkpt>
      <trkpt lat="44.89592" lon="6.784">
        <ele>2175.6</ele>
        <time>2014-02-17T10:56:01Z</time>
      </trkpt>
      <trkpt lat="44.89613" lon="6.78387">
        <ele>2171.27</ele>
        <time>2014-02-17T10:56:04Z</time>
      </trkpt>
      <trkpt lat="44.89624" lon="6.7838">
        <ele>2169.83</ele>
        <time>2014-02-17T10:56:06Z</time>
      </trkpt>
      <trkpt lat="44.89635" lon="6.78375">
        <ele>2169.35</ele>
        <time>2014-02-17T10:56:13Z</time>
      </trkpt>
      <trkpt lat="44.89646" lon="6.78376">
        <ele>2169.35</ele>
        <time>2014-02-17T10:56:26Z</time>
      </trkpt>
      <trkpt lat="44.89658" lon="6.78383">
        <ele>2170.79</ele>
        <time>2014-02-17T10:56:40Z</time>
      </trkpt>
      <trkpt lat="44.8966" lon="6.78384">
        <ele>2171.27</ele>
        <time>2014-02-17T10:56:42Z</time>
      </trkpt>
      <trkpt lat="44.89664" lon="6.78387">
        <ele>2171.27</ele>
        <time>2014-02-17T10:56:47Z</time>
      </trkpt>
      <trkpt lat="44.89674" lon="6.78395">
        <ele>2171.76</ele>
        <time>2014-02-17T10:57:00Z</time>
      </trkpt>
      <trkpt lat="44.89688" lon="6.78403">
        <ele>2172.24</ele>
        <time>2014-02-17T10:57:14Z</time>
      </trkpt>
      <trkpt lat="44.89691" lon="6.78406">
        <ele>2171.76</ele>
        <time>2014-02-17T10:57:17Z</time>
      </trkpt>
      <trkpt lat="44.89706" lon="6.78413">
        <ele>2170.31</ele>
        <time>2014-02-17T10:57:31Z</time>
      </trkpt>
      <trkpt lat="44.89708" lon="6.78413">
        <ele>2170.79</ele>
        <time>2014-02-17T10:57:33Z</time>
      </trkpt>
      <trkpt lat="44.89723" lon="6.78422">
        <ele>2169.35</ele>
        <time>2014-02-17T10:57:45Z</time>
      </trkpt>
      <trkpt lat="44.89728" lon="6.78423">
        <ele>2168.87</ele>
        <time>2014-02-17T10:57:48Z</time>
      </trkpt>
      <trkpt lat="44.8973" lon="6.78426">
        <ele>2167.91</ele>
        <time>2014-02-17T10:57:50Z</time>
      </trkpt>
      <trkpt lat="44.89752" lon="6.78431">
        <ele>2165.51</ele>
        <time>2014-02-17T10:58:04Z</time>
      </trkpt>
      <trkpt lat="44.89764" lon="6.78435">
        <ele>2165.51</ele>
        <time>2014-02-17T10:58:16Z</time>
      </trkpt>
      <trkpt lat="44.89779" lon="6.78442">
        <ele>2165.99</ele>
        <time>2014-02-17T10:58:31Z</time>
      </trkpt>
      <trkpt lat="44.89792" lon="6.7845">
        <ele>2165.99</ele>
        <time>2014-02-17T10:58:47Z</time>
      </trkpt>
      <trkpt lat="44.89805" lon="6.78456">
        <ele>2166.95</ele>
        <time>2014-02-17T10:59:02Z</time>
      </trkpt>
      <trkpt lat="44.89818" lon="6.78464">
        <ele>2166.95</ele>
        <time>2014-02-17T10:59:16Z</time>
      </trkpt>
      <trkpt lat="44.89833" lon="6.78476">
        <ele>2167.43</ele>
        <time>2014-02-17T10:59:32Z</time>
      </trkpt>
      <trkpt lat="44.89837" lon="6.78478">
        <ele>2167.91</ele>
        <time>2014-02-17T10:59:38Z</time>
      </trkpt>
      <trkpt lat="44.89852" lon="6.78487">
        <ele>2167.91</ele>
        <time>2014-02-17T10:59:55Z</time>
      </trkpt>
      <trkpt lat="44.8986" lon="6.78493">
        <ele>2167.91</ele>
        <time>2014-02-17T11:00:05Z</time>
      </trkpt>
      <trkpt lat="44.89873" lon="6.785">
        <ele>2167.43</ele>
        <time>2014-02-17T11:00:19Z</time>
      </trkpt>
      <trkpt lat="44.89887" lon="6.78511">
        <ele>2167.43</ele>
        <time>2014-02-17T11:00:34Z</time>
      </trkpt>
      <trkpt lat="44.89901" lon="6.78522">
        <ele>2166.95</ele>
        <time>2014-02-17T11:00:47Z</time>
      </trkpt>
      <trkpt lat="44.89914" lon="6.78533">
        <ele>2166.47</ele>
        <time>2014-02-17T11:01:00Z</time>
      </trkpt>
      <trkpt lat="44.8992" lon="6.78538">
        <ele>2166.47</ele>
        <time>2014-02-17T11:01:06Z</time>
      </trkpt>
      <trkpt lat="44.89935" lon="6.78553">
        <ele>2165.51</ele>
        <time>2014-02-17T11:01:21Z</time>
      </trkpt>
      <trkpt lat="44.89948" lon="6.78565">
        <ele>2164.55</ele>
        <time>2014-02-17T11:01:35Z</time>
      </trkpt>
      <trkpt lat="44.89949" lon="6.78566">
        <ele>2164.06</ele>
        <time>2014-02-17T11:01:36Z</time>
      </trkpt>
      <trkpt lat="44.89963" lon="6.78585">
        <ele>2163.58</ele>
        <time>2014-02-17T11:01:52Z</time>
      </trkpt>
      <trkpt lat="44.89976" lon="6.78603">
        <ele>2161.66</ele>
        <time>2014-02-17T11:02:06Z</time>
      </trkpt>
      <trkpt lat="44.89992" lon="6.78625">
        <ele>2159.26</ele>
        <time>2014-02-17T11:02:21Z</time>
      </trkpt>
      <trkpt lat="44.90007" lon="6.78643">
        <ele>2158.78</ele>
        <time>2014-02-17T11:02:37Z</time>
      </trkpt>
      <trkpt lat="44.90024" lon="6.78652">
        <ele>2158.78</ele>
        <time>2014-02-17T11:02:54Z</time>
      </trkpt>
      <trkpt lat="44.90038" lon="6.7866">
        <ele>2157.34</ele>
        <time>2014-02-17T11:03:08Z</time>
      </trkpt>
      <trkpt lat="44.90052" lon="6.78675">
        <ele>2156.86</ele>
        <time>2014-02-17T11:03:22Z</time>
      </trkpt>
      <trkpt lat="44.9006" lon="6.78694">
        <ele>2155.41</ele>
        <time>2014-02-17T11:03:35Z</time>
      </trkpt>
      <trkpt lat="44.90067" lon="6.78714">
        <ele>2152.05</ele>
        <time>2014-02-17T11:03:46Z</time>
      </trkpt>
      <trkpt lat="44.90071" lon="6.78724">
        <ele>2150.61</ele>
        <time>2014-02-17T11:03:50Z</time>
      </trkpt>
      <trkpt lat="44.90076" lon="6.78734">
        <ele>2149.16</ele>
        <time>2014-02-17T11:03:54Z</time>
      </trkpt>
      <trkpt lat="44.90084" lon="6.78747">
        <ele>2147.24</ele>
        <time>2014-02-17T11:03:58Z</time>
      </trkpt>
      <trkpt lat="44.90092" lon="6.78757">
        <ele>2145.32</ele>
        <time>2014-02-17T11:04:01Z</time>
      </trkpt>
      <trkpt lat="44.90101" lon="6.78767">
        <ele>2143.4</ele>
        <time>2014-02-17T11:04:04Z</time>
      </trkpt>
      <trkpt lat="44.90114" lon="6.78781">
        <ele>2139.55</ele>
        <time>2014-02-17T11:04:08Z</time>
      </trkpt>
      <trkpt lat="44.90124" lon="6.78794">
        <ele>2136.19</ele>
        <time>2014-02-17T11:04:11Z</time>
      </trkpt>
      <trkpt lat="44.90132" lon="6.78804">
        <ele>2134.74</ele>
        <time>2014-02-17T11:04:14Z</time>
      </trkpt>
      <trkpt lat="44.90148" lon="6.78825">
        <ele>2132.34</ele>
        <time>2014-02-17T11:04:27Z</time>
      </trkpt>
      <trkpt lat="44.90158" lon="6.78836">
        <ele>2129.46</ele>
        <time>2014-02-17T11:04:33Z</time>
      </trkpt>
      <trkpt lat="44.90164" lon="6.7884">
        <ele>2128.98</ele>
        <time>2014-02-17T11:04:39Z</time>
      </trkpt>
      <trkpt lat="44.90177" lon="6.7886">
        <ele>2127.05</ele>
        <time>2014-02-17T11:04:54Z</time>
      </trkpt>
      <trkpt lat="44.90192" lon="6.78879">
        <ele>2126.57</ele>
        <time>2014-02-17T11:05:09Z</time>
      </trkpt>
      <trkpt lat="44.90204" lon="6.78886">
        <ele>2126.57</ele>
        <time>2014-02-17T11:05:21Z</time>
      </trkpt>
      <trkpt lat="44.90208" lon="6.78889">
        <ele>2126.57</ele>
        <time>2014-02-17T11:05:25Z</time>
      </trkpt>
      <trkpt lat="44.90214" lon="6.7889">
        <ele>2126.57</ele>
        <time>2014-02-17T11:05:30Z</time>
      </trkpt>
      <trkpt lat="44.90217" lon="6.78891">
        <ele>2126.09</ele>
        <time>2014-02-17T11:05:33Z</time>
      </trkpt>
      <trkpt lat="44.90224" lon="6.78893">
        <ele>2125.61</ele>
        <time>2014-02-17T11:05:39Z</time>
      </trkpt>
      <trkpt lat="44.9024" lon="6.78899">
        <ele>2123.69</ele>
        <time>2014-02-17T11:05:50Z</time>
      </trkpt>
      <trkpt lat="44.90242" lon="6.78903">
        <ele>2123.21</ele>
        <time>2014-02-17T11:06:02Z</time>
      </trkpt>
      <trkpt lat="44.90241" lon="6.78901">
        <ele>2123.21</ele>
        <time>2014-02-17T11:06:25Z</time>
      </trkpt>
      <trkpt lat="44.9024" lon="6.78901">
        <ele>2123.21</ele>
        <time>2014-02-17T11:07:02Z</time>
      </trkpt>
      <trkpt lat="44.90251" lon="6.78916">
        <ele>2120.81</ele>
        <time>2014-02-17T11:07:16Z</time>
      </trkpt>
      <trkpt lat="44.90261" lon="6.78934">
        <ele>2117.44</ele>
        <time>2014-02-17T11:07:20Z</time>
      </trkpt>
      <trkpt lat="44.90264" lon="6.78943">
        <ele>2116</ele>
        <time>2014-02-17T11:07:22Z</time>
      </trkpt>
      <trkpt lat="44.90268" lon="6.78959">
        <ele>2114.08</ele>
        <time>2014-02-17T11:07:31Z</time>
      </trkpt>
      <trkpt lat="44.90266" lon="6.78955">
        <ele>2114.08</ele>
        <time>2014-02-17T11:07:56Z</time>
      </trkpt>
      <trkpt lat="44.9027" lon="6.78959">
        <ele>2114.56</ele>
        <time>2014-02-17T11:08:08Z</time>
      </trkpt>
      <trkpt lat="44.90269" lon="6.7896">
        <ele>2114.08</ele>
        <time>2014-02-17T11:08:23Z</time>
      </trkpt>
      <trkpt lat="44.90271" lon="6.7896">
        <ele>2113.6</ele>
        <time>2014-02-17T11:08:36Z</time>
      </trkpt>
      <trkpt lat="44.90272" lon="6.78963">
        <ele>2113.6</ele>
        <time>2014-02-17T11:08:46Z</time>
      </trkpt>
      <trkpt lat="44.9027" lon="6.78959">
        <ele>2112.63</ele>
        <time>2014-02-17T11:09:06Z</time>
      </trkpt>
      <trkpt lat="44.90258" lon="6.78944">
        <ele>2113.12</ele>
        <time>2014-02-17T11:09:33Z</time>
      </trkpt>
      <trkpt lat="44.90261" lon="6.78957">
        <ele>2113.12</ele>
        <time>2014-02-17T11:09:56Z</time>
      </trkpt>
      <trkpt lat="44.9026" lon="6.78965">
        <ele>2113.6</ele>
        <time>2014-02-17T11:10:16Z</time>
      </trkpt>
      <trkpt lat="44.90257" lon="6.78965">
        <ele>2111.67</ele>
        <time>2014-02-17T11:10:41Z</time>
      </trkpt>
      <trkpt lat="44.90257" lon="6.78965">
        <ele>2113.6</ele>
        <time>2014-02-17T11:10:42Z</time>
      </trkpt>
      <trkpt lat="44.90257" lon="6.78957">
        <ele>2112.15</ele>
        <time>2014-02-17T11:15:17Z</time>
      </trkpt>
      <trkpt lat="44.90267" lon="6.78953">
        <ele>2112.15</ele>
        <time>2014-02-17T11:15:45Z</time>
      </trkpt>
      <trkpt lat="44.90265" lon="6.7896">
        <ele>2111.67</ele>
        <time>2014-02-17T11:16:20Z</time>
      </trkpt>
      <trkpt lat="44.90269" lon="6.78957">
        <ele>2111.67</ele>
        <time>2014-02-17T11:16:49Z</time>
      </trkpt>
      <trkpt lat="44.90273" lon="6.78963">
        <ele>2112.15</ele>
        <time>2014-02-17T11:17:13Z</time>
      </trkpt>
      <trkpt lat="44.90275" lon="6.78957">
        <ele>2112.15</ele>
        <time>2014-02-17T11:26:27Z</time>
      </trkpt>
      <trkpt lat="44.90276" lon="6.78962">
        <ele>2111.67</ele>
        <time>2014-02-17T11:27:06Z</time>
      </trkpt>
      <trkpt lat="44.90285" lon="6.7897">
        <ele>2111.67</ele>
        <time>2014-02-17T11:27:37Z</time>
      </trkpt>
      <trkpt lat="44.90284" lon="6.78969">
        <ele>2111.67</ele>
        <time>2014-02-17T11:28:05Z</time>
      </trkpt>
      <trkpt lat="44.90277" lon="6.7896">
        <ele>2111.67</ele>
        <time>2014-02-17T11:28:31Z</time>
      </trkpt>
      <trkpt lat="44.90276" lon="6.78962">
        <ele>2111.67</ele>
        <time>2014-02-17T11:28:56Z</time>
      </trkpt>
      <trkpt lat="44.9027" lon="6.78952">
        <ele>2112.15</ele>
        <time>2014-02-17T11:29:21Z</time>
      </trkpt>
      <trkpt lat="44.90274" lon="6.78961">
        <ele>2112.15</ele>
        <time>2014-02-17T11:29:49Z</time>
      </trkpt>
      <trkpt lat="44.90275" lon="6.78959">
        <ele>2111.67</ele>
        <time>2014-02-17T11:30:27Z</time>
      </trkpt>
      <trkpt lat="44.90277" lon="6.78959">
        <ele>2112.15</ele>
        <time>2014-02-17T11:30:29Z</time>
      </trkpt>
      <trkpt lat="44.90301" lon="6.78973">
        <ele>2111.67</ele>
        <time>2014-02-17T11:30:49Z</time>
      </trkpt>
      <trkpt lat="44.90292" lon="6.78977">
        <ele>2112.15</ele>
        <time>2014-02-17T11:31:16Z</time>
      </trkpt>
      <trkpt lat="44.90284" lon="6.78974">
        <ele>2112.15</ele>
        <time>2014-02-17T11:31:46Z</time>
      </trkpt>
      <trkpt lat="44.90278" lon="6.78968">
        <ele>2112.63</ele>
        <time>2014-02-17T11:32:15Z</time>
      </trkpt>
      <trkpt lat="44.90273" lon="6.7896">
        <ele>2111.67</ele>
        <time>2014-02-17T11:32:38Z</time>
      </trkpt>
      <trkpt lat="44.90271" lon="6.78958">
        <ele>2111.67</ele>
        <time>2014-02-17T11:32:57Z</time>
      </trkpt>
      <trkpt lat="44.90274" lon="6.78974">
        <ele>2111.67</ele>
        <time>2014-02-17T11:33:18Z</time>
      </trkpt>
      <trkpt lat="44.90288" lon="6.78993">
        <ele>2111.67</ele>
        <time>2014-02-17T11:33:36Z</time>
      </trkpt>
      <trkpt lat="44.90327" lon="6.79036">
        <ele>2112.15</ele>
        <time>2014-02-17T11:33:58Z</time>
      </trkpt>
      <trkpt lat="44.90269" lon="6.78951">
        <ele>2111.67</ele>
        <time>2014-02-17T11:39:13Z</time>
      </trkpt>
      <trkpt lat="44.90267" lon="6.7896">
        <ele>2111.19</ele>
        <time>2014-02-17T11:39:51Z</time>
      </trkpt>
      <trkpt lat="44.90274" lon="6.78961">
        <ele>2111.19</ele>
        <time>2014-02-17T11:40:20Z</time>
      </trkpt>
      <trkpt lat="44.90275" lon="6.78963">
        <ele>2111.67</ele>
        <time>2014-02-17T11:40:49Z</time>
      </trkpt>
      <trkpt lat="44.90276" lon="6.78966">
        <ele>2111.19</ele>
        <time>2014-02-17T11:41:17Z</time>
      </trkpt>
      <trkpt lat="44.90272" lon="6.78961">
        <ele>2111.19</ele>
        <time>2014-02-17T11:41:49Z</time>
      </trkpt>
      <trkpt lat="44.90273" lon="6.78965">
        <ele>2111.19</ele>
        <time>2014-02-17T11:42:24Z</time>
      </trkpt>
      <trkpt lat="44.90275" lon="6.78959">
        <ele>2110.71</ele>
        <time>2014-02-17T11:42:55Z</time>
      </trkpt>
      <trkpt lat="44.90272" lon="6.78957">
        <ele>2110.71</ele>
        <time>2014-02-17T11:43:28Z</time>
      </trkpt>
      <trkpt lat="44.90273" lon="6.78957">
        <ele>2110.71</ele>
        <time>2014-02-17T11:43:57Z</time>
      </trkpt>
      <trkpt lat="44.90276" lon="6.78963">
        <ele>2110.23</ele>
        <time>2014-02-17T11:44:26Z</time>
      </trkpt>
      <trkpt lat="44.90277" lon="6.78966">
        <ele>2110.71</ele>
        <time>2014-02-17T11:44:55Z</time>
      </trkpt>
      <trkpt lat="44.90279" lon="6.78954">
        <ele>2111.19</ele>
        <time>2014-02-17T11:45:30Z</time>
      </trkpt>
      <trkpt lat="44.90283" lon="6.78951">
        <ele>2111.19</ele>
        <time>2014-02-17T11:46:06Z</time>
      </trkpt>
      <trkpt lat="44.90285" lon="6.78948">
        <ele>2109.75</ele>
        <time>2014-02-17T11:46:36Z</time>
      </trkpt>
      <trkpt lat="44.90285" lon="6.78949">
        <ele>2109.27</ele>
        <time>2014-02-17T11:47:03Z</time>
      </trkpt>
      <trkpt lat="44.90292" lon="6.78947">
        <ele>2109.27</ele>
        <time>2014-02-17T11:47:35Z</time>
      </trkpt>
      <trkpt lat="44.90283" lon="6.78948">
        <ele>2109.27</ele>
        <time>2014-02-17T11:48:07Z</time>
      </trkpt>
      <trkpt lat="44.9028" lon="6.78952">
        <ele>2109.27</ele>
        <time>2014-02-17T11:48:39Z</time>
      </trkpt>
      <trkpt lat="44.90275" lon="6.78962">
        <ele>2109.75</ele>
        <time>2014-02-17T11:49:09Z</time>
      </trkpt>
      <trkpt lat="44.90274" lon="6.78972">
        <ele>2109.75</ele>
        <time>2014-02-17T11:49:33Z</time>
      </trkpt>
      <trkpt lat="44.90276" lon="6.78967">
        <ele>2109.75</ele>
        <time>2014-02-17T11:50:00Z</time>
      </trkpt>
      <trkpt lat="44.90275" lon="6.78966">
        <ele>2109.27</ele>
        <time>2014-02-17T11:50:27Z</time>
      </trkpt>
      <trkpt lat="44.9028" lon="6.78958">
        <ele>2109.27</ele>
        <time>2014-02-17T11:50:51Z</time>
      </trkpt>
      <trkpt lat="44.90295" lon="6.78942">
        <ele>2109.75</ele>
        <time>2014-02-17T11:51:09Z</time>
      </trkpt>
      <trkpt lat="44.90283" lon="6.78954">
        <ele>2109.75</ele>
        <time>2014-02-17T11:51:29Z</time>
      </trkpt>
      <trkpt lat="44.9028" lon="6.78958">
        <ele>2109.27</ele>
        <time>2014-02-17T11:51:58Z</time>
      </trkpt>
      <trkpt lat="44.90271" lon="6.78967">
        <ele>2109.75</ele>
        <time>2014-02-17T11:52:25Z</time>
      </trkpt>
      <trkpt lat="44.90271" lon="6.78968">
        <ele>2109.75</ele>
        <time>2014-02-17T11:52:51Z</time>
      </trkpt>
      <trkpt lat="44.90269" lon="6.78966">
        <ele>2109.27</ele>
        <time>2014-02-17T11:53:22Z</time>
      </trkpt>
      <trkpt lat="44.90267" lon="6.78967">
        <ele>2110.71</ele>
        <time>2014-02-17T11:53:52Z</time>
      </trkpt>
      <trkpt lat="44.90266" lon="6.78971">
        <ele>2109.75</ele>
        <time>2014-02-17T11:54:28Z</time>
      </trkpt>
      <trkpt lat="44.90261" lon="6.78972">
        <ele>2110.23</ele>
        <time>2014-02-17T11:54:56Z</time>
      </trkpt>
      <trkpt lat="44.90264" lon="6.78971">
        <ele>2109.75</ele>
        <time>2014-02-17T11:55:29Z</time>
      </trkpt>
      <trkpt lat="44.90272" lon="6.78967">
        <ele>2110.23</ele>
        <time>2014-02-17T11:56:01Z</time>
      </trkpt>
      <trkpt lat="44.90266" lon="6.78966">
        <ele>2110.23</ele>
        <time>2014-02-17T11:56:27Z</time>
      </trkpt>
      <trkpt lat="44.90267" lon="6.78965">
        <ele>2110.71</ele>
        <time>2014-02-17T11:56:53Z</time>
      </trkpt>
      <trkpt lat="44.90276" lon="6.78961">
        <ele>2110.71</ele>
        <time>2014-02-17T11:57:30Z</time>
      </trkpt>
      <trkpt lat="44.90274" lon="6.78966">
        <ele>2110.23</ele>
        <time>2014-02-17T11:57:53Z</time>
      </trkpt>
      <trkpt lat="44.9027" lon="6.78969">
        <ele>2110.71</ele>
        <time>2014-02-17T11:58:19Z</time>
      </trkpt>
      <trkpt lat="44.9027" lon="6.78963">
        <ele>2110.23</ele>
        <time>2014-02-17T11:58:49Z</time>
      </trkpt>
      <trkpt lat="44.90276" lon="6.78963">
        <ele>2111.19</ele>
        <time>2014-02-17T11:59:20Z</time>
      </trkpt>
      <trkpt lat="44.90285" lon="6.7896">
        <ele>2110.71</ele>
        <time>2014-02-17T11:59:52Z</time>
      </trkpt>
      <trkpt lat="44.90285" lon="6.78953">
        <ele>2110.71</ele>
        <time>2014-02-17T12:00:25Z</time>
      </trkpt>
      <trkpt lat="44.90283" lon="6.78956">
        <ele>2110.23</ele>
        <time>2014-02-17T12:00:58Z</time>
      </trkpt>
      <trkpt lat="44.90283" lon="6.78959">
        <ele>2110.71</ele>
        <time>2014-02-17T12:01:28Z</time>
      </trkpt>
      <trkpt lat="44.9028" lon="6.78963">
        <ele>2111.19</ele>
        <time>2014-02-17T12:02:06Z</time>
      </trkpt>
      <trkpt lat="44.90278" lon="6.78958">
        <ele>2110.71</ele>
        <time>2014-02-17T12:02:34Z</time>
      </trkpt>
      <trkpt lat="44.90276" lon="6.78965">
        <ele>2110.71</ele>
        <time>2014-02-17T12:03:01Z</time>
      </trkpt>
      <trkpt lat="44.90277" lon="6.78964">
        <ele>2110.71</ele>
        <time>2014-02-17T12:03:24Z</time>
      </trkpt>
      <trkpt lat="44.90284" lon="6.78964">
        <ele>2110.71</ele>
        <time>2014-02-17T12:03:49Z</time>
      </trkpt>
      <trkpt lat="44.90278" lon="6.78967">
        <ele>2110.71</ele>
        <time>2014-02-17T12:04:15Z</time>
      </trkpt>
      <trkpt lat="44.90283" lon="6.78965">
        <ele>2110.71</ele>
        <time>2014-02-17T12:04:36Z</time>
      </trkpt>
      <trkpt lat="44.9028" lon="6.78955">
        <ele>2110.71</ele>
        <time>2014-02-17T12:05:03Z</time>
      </trkpt>
      <trkpt lat="44.9027" lon="6.7896">
        <ele>2111.19</ele>
        <time>2014-02-17T12:05:32Z</time>
      </trkpt>
      <trkpt lat="44.90282" lon="6.78955">
        <ele>2110.71</ele>
        <time>2014-02-17T12:06:00Z</time>
      </trkpt>
      <trkpt lat="44.90284" lon="6.78952">
        <ele>2110.71</ele>
        <time>2014-02-17T12:06:26Z</time>
      </trkpt>
      <trkpt lat="44.90274" lon="6.78962">
        <ele>2110.71</ele>
        <time>2014-02-17T12:06:56Z</time>
      </trkpt>
      <trkpt lat="44.90266" lon="6.78968">
        <ele>2110.71</ele>
        <time>2014-02-17T12:07:22Z</time>
      </trkpt>
      <trkpt lat="44.90271" lon="6.78966">
        <ele>2110.71</ele>
        <time>2014-02-17T12:07:47Z</time>
      </trkpt>
      <trkpt lat="44.90275" lon="6.78964">
        <ele>2110.71</ele>
        <time>2014-02-17T12:08:10Z</time>
      </trkpt>
      <trkpt lat="44.90271" lon="6.78957">
        <ele>2111.19</ele>
        <time>2014-02-17T12:08:35Z</time>
      </trkpt>
      <trkpt lat="44.90267" lon="6.78962">
        <ele>2111.19</ele>
        <time>2014-02-17T12:09:02Z</time>
      </trkpt>
      <trkpt lat="44.90282" lon="6.78948">
        <ele>2110.71</ele>
        <time>2014-02-17T12:09:26Z</time>
      </trkpt>
      <trkpt lat="44.90291" lon="6.78933">
        <ele>2111.67</ele>
        <time>2014-02-17T12:09:52Z</time>
      </trkpt>
      <trkpt lat="44.90283" lon="6.78949">
        <ele>2110.71</ele>
        <time>2014-02-17T12:10:22Z</time>
      </trkpt>
      <trkpt lat="44.90279" lon="6.78966">
        <ele>2111.19</ele>
        <time>2014-02-17T12:10:46Z</time>
      </trkpt>
      <trkpt lat="44.90275" lon="6.7897">
        <ele>2111.67</ele>
        <time>2014-02-17T12:11:12Z</time>
      </trkpt>
      <trkpt lat="44.90275" lon="6.78967">
        <ele>2111.19</ele>
        <time>2014-02-17T12:11:41Z</time>
      </trkpt>
      <trkpt lat="44.90274" lon="6.7897">
        <ele>2111.67</ele>
        <time>2014-02-17T12:12:16Z</time>
      </trkpt>
      <trkpt lat="44.90269" lon="6.78971">
        <ele>2111.19</ele>
        <time>2014-02-17T12:12:47Z</time>
      </trkpt>
      <trkpt lat="44.90273" lon="6.78972">
        <ele>2112.15</ele>
        <time>2014-02-17T12:13:12Z</time>
      </trkpt>
      <trkpt lat="44.9027" lon="6.78975">
        <ele>2111.67</ele>
        <time>2014-02-17T12:13:25Z</time>
      </trkpt>
      <trkpt lat="44.90266" lon="6.7898">
        <ele>2112.15</ele>
        <time>2014-02-17T12:13:51Z</time>
      </trkpt>
      <trkpt lat="44.90257" lon="6.78999">
        <ele>2111.67</ele>
        <time>2014-02-17T12:14:14Z</time>
      </trkpt>
      <trkpt lat="44.90273" lon="6.78987">
        <ele>2111.67</ele>
        <time>2014-02-17T12:14:32Z</time>
      </trkpt>
      <trkpt lat="44.90305" lon="6.7896">
        <ele>2111.67</ele>
        <time>2014-02-17T12:14:57Z</time>
      </trkpt>
      <trkpt lat="44.90344" lon="6.78991">
        <ele>2111.67</ele>
        <time>2014-02-17T12:15:11Z</time>
      </trkpt>
      <trkpt lat="44.90423" lon="6.7906">
        <ele>2111.19</ele>
        <time>2014-02-17T12:15:31Z</time>
      </trkpt>
      <trkpt lat="44.90514" lon="6.79075">
        <ele>2110.71</ele>
        <time>2014-02-17T12:15:49Z</time>
      </trkpt>
      <trkpt lat="44.90413" lon="6.78982">
        <ele>2110.23</ele>
        <time>2014-02-17T12:15:55Z</time>
      </trkpt>
      <trkpt lat="44.90546" lon="6.79028">
        <ele>2110.23</ele>
        <time>2014-02-17T12:16:15Z</time>
      </trkpt>
      <trkpt lat="44.9071" lon="6.791">
        <ele>2110.71</ele>
        <time>2014-02-17T12:16:35Z</time>
      </trkpt>
      <trkpt lat="44.90854" lon="6.79135">
        <ele>2110.71</ele>
        <time>2014-02-17T12:16:52Z</time>
      </trkpt>
      <trkpt lat="44.9102" lon="6.79204">
        <ele>2110.23</ele>
        <time>2014-02-17T12:17:15Z</time>
      </trkpt>
      <trkpt lat="44.9109" lon="6.79234">
        <ele>2110.71</ele>
        <time>2014-02-17T12:17:28Z</time>
      </trkpt>
      <trkpt lat="44.91147" lon="6.79291">
        <ele>2110.71</ele>
        <time>2014-02-17T12:17:36Z</time>
      </trkpt>
      <trkpt lat="44.91187" lon="6.79373">
        <ele>2111.19</ele>
        <time>2014-02-17T12:17:45Z</time>
      </trkpt>
      <trkpt lat="44.91193" lon="6.79426">
        <ele>2111.19</ele>
        <time>2014-02-17T12:17:56Z</time>
      </trkpt>
      <trkpt lat="44.91168" lon="6.79444">
        <ele>2111.19</ele>
        <time>2014-02-17T12:18:11Z</time>
      </trkpt>
      <trkpt lat="44.91108" lon="6.7942">
        <ele>2110.71</ele>
        <time>2014-02-17T12:18:36Z</time>
      </trkpt>
      <trkpt lat="44.91057" lon="6.79373">
        <ele>2110.23</ele>
        <time>2014-02-17T12:19:06Z</time>
      </trkpt>
      <trkpt lat="44.91031" lon="6.79319">
        <ele>2110.23</ele>
        <time>2014-02-17T12:19:26Z</time>
      </trkpt>
      <trkpt lat="44.90952" lon="6.7921">
        <ele>2110.23</ele>
        <time>2014-02-17T12:19:57Z</time>
      </trkpt>
      <trkpt lat="44.90902" lon="6.79158">
        <ele>2110.23</ele>
        <time>2014-02-17T12:20:19Z</time>
      </trkpt>
      <trkpt lat="44.90871" lon="6.79105">
        <ele>2110.23</ele>
        <time>2014-02-17T12:20:44Z</time>
      </trkpt>
      <trkpt lat="44.90846" lon="6.79075">
        <ele>2110.23</ele>
        <time>2014-02-17T12:21:15Z</time>
      </trkpt>
      <trkpt lat="44.90819" lon="6.79036">
        <ele>2110.23</ele>
        <time>2014-02-17T12:21:41Z</time>
      </trkpt>
      <trkpt lat="44.90658" lon="6.7888">
        <ele>2110.23</ele>
        <time>2014-02-17T12:22:08Z</time>
      </trkpt>
      <trkpt lat="44.90532" lon="6.78797">
        <ele>2110.23</ele>
        <time>2014-02-17T12:22:41Z</time>
      </trkpt>
      <trkpt lat="44.90415" lon="6.78766">
        <ele>2110.23</ele>
        <time>2014-02-17T12:23:14Z</time>
      </trkpt>
      <trkpt lat="44.90311" lon="6.7888">
        <ele>2110.23</ele>
        <time>2014-02-17T12:23:45Z</time>
      </trkpt>
      <trkpt lat="44.90293" lon="6.78914">
        <ele>2109.27</ele>
        <time>2014-02-17T12:24:14Z</time>
      </trkpt>
      <trkpt lat="44.90304" lon="6.78933">
        <ele>2108.79</ele>
        <time>2014-02-17T12:24:40Z</time>
      </trkpt>
      <trkpt lat="44.90311" lon="6.78944">
        <ele>2107.83</ele>
        <time>2014-02-17T12:24:57Z</time>
      </trkpt>
      <trkpt lat="44.90318" lon="6.78957">
        <ele>2108.31</ele>
        <time>2014-02-17T12:25:28Z</time>
      </trkpt>
      <trkpt lat="44.9032" lon="6.78958">
        <ele>2108.31</ele>
        <time>2014-02-17T12:25:57Z</time>
      </trkpt>
      <trkpt lat="44.90292" lon="6.78972">
        <ele>2108.79</ele>
        <time>2014-02-17T12:26:27Z</time>
      </trkpt>
      <trkpt lat="44.90286" lon="6.7896">
        <ele>2109.27</ele>
        <time>2014-02-17T12:26:54Z</time>
      </trkpt>
      <trkpt lat="44.90282" lon="6.78955">
        <ele>2108.79</ele>
        <time>2014-02-17T12:27:31Z</time>
      </trkpt>
      <trkpt lat="44.90276" lon="6.78959">
        <ele>2108.79</ele>
        <time>2014-02-17T12:28:10Z</time>
      </trkpt>
      <trkpt lat="44.90272" lon="6.78963">
        <ele>2108.31</ele>
        <time>2014-02-17T12:28:44Z</time>
      </trkpt>
      <trkpt lat="44.90269" lon="6.78971">
        <ele>2107.83</ele>
        <time>2014-02-17T12:29:14Z</time>
      </trkpt>
      <trkpt lat="44.9027" lon="6.78966">
        <ele>2108.31</ele>
        <time>2014-02-17T12:29:43Z</time>
      </trkpt>
      <trkpt lat="44.90273" lon="6.7896">
        <ele>2107.83</ele>
        <time>2014-02-17T12:30:18Z</time>
      </trkpt>
      <trkpt lat="44.90276" lon="6.78964">
        <ele>2107.35</ele>
        <time>2014-02-17T12:30:49Z</time>
      </trkpt>
      <trkpt lat="44.90277" lon="6.78954">
        <ele>2106.87</ele>
        <time>2014-02-17T12:31:21Z</time>
      </trkpt>
      <trkpt lat="44.90276" lon="6.78955">
        <ele>2107.35</ele>
        <time>2014-02-17T12:31:51Z</time>
      </trkpt>
      <trkpt lat="44.90285" lon="6.78957">
        <ele>2107.83</ele>
        <time>2014-02-17T12:32:26Z</time>
      </trkpt>
      <trkpt lat="44.90288" lon="6.78947">
        <ele>2107.83</ele>
        <time>2014-02-17T12:32:49Z</time>
      </trkpt>
      <trkpt lat="44.90286" lon="6.78944">
        <ele>2107.83</ele>
        <time>2014-02-17T12:32:54Z</time>
      </trkpt>
      <trkpt lat="44.90282" lon="6.78943">
        <ele>2107.83</ele>
        <time>2014-02-17T12:33:18Z</time>
      </trkpt>
      <trkpt lat="44.90279" lon="6.78948">
        <ele>2107.83</ele>
        <time>2014-02-17T12:34:04Z</time>
      </trkpt>
      <trkpt lat="44.90272" lon="6.78958">
        <ele>2108.79</ele>
        <time>2014-02-17T12:34:31Z</time>
      </trkpt>
      <trkpt lat="44.90272" lon="6.78956">
        <ele>2108.31</ele>
        <time>2014-02-17T12:34:59Z</time>
      </trkpt>
      <trkpt lat="44.90299" lon="6.78937">
        <ele>2108.31</ele>
        <time>2014-02-17T12:35:24Z</time>
      </trkpt>
      <trkpt lat="44.90316" lon="6.78922">
        <ele>2108.79</ele>
        <time>2014-02-17T12:35:51Z</time>
      </trkpt>
      <trkpt lat="44.90285" lon="6.78953">
        <ele>2109.27</ele>
        <time>2014-02-17T12:36:31Z</time>
      </trkpt>
      <trkpt lat="44.90276" lon="6.78959">
        <ele>2108.79</ele>
        <time>2014-02-17T12:37:00Z</time>
      </trkpt>
      <trkpt lat="44.90275" lon="6.7896">
        <ele>2116.96</ele>
        <time>2014-02-17T12:37:06Z</time>
      </trkpt>
      <trkpt lat="44.90275" lon="6.78961">
        <ele>2109.75</ele>
        <time>2014-02-17T12:37:07Z</time>
      </trkpt>
      <trkpt lat="44.90276" lon="6.78961">
        <ele>2110.23</ele>
        <time>2014-02-17T12:37:13Z</time>
      </trkpt>
      <trkpt lat="44.90276" lon="6.78961">
        <ele>2106.39</ele>
        <time>2014-02-17T12:37:14Z</time>
      </trkpt>
      <trkpt lat="44.90276" lon="6.78961">
        <ele>2107.83</ele>
        <time>2014-02-17T12:37:15Z</time>
      </trkpt>
      <trkpt lat="44.90283" lon="6.78952">
        <ele>2107.83</ele>
        <time>2014-02-17T12:37:42Z</time>
      </trkpt>
      <trkpt lat="44.90287" lon="6.78956">
        <ele>2107.83</ele>
        <time>2014-02-17T12:38:02Z</time>
      </trkpt>
      <trkpt lat="44.90287" lon="6.78959">
        <ele>2107.35</ele>
        <time>2014-02-17T12:38:04Z</time>
      </trkpt>
      <trkpt lat="44.90285" lon="6.78964">
        <ele>2106.39</ele>
        <time>2014-02-17T12:38:08Z</time>
      </trkpt>
      <trkpt lat="44.90284" lon="6.78966">
        <ele>2107.83</ele>
        <time>2014-02-17T12:38:09Z</time>
      </trkpt>
      <trkpt lat="44.90281" lon="6.78971">
        <ele>2105.91</ele>
        <time>2014-02-17T12:38:14Z</time>
      </trkpt>
      <trkpt lat="44.90281" lon="6.78971">
        <ele>2109.27</ele>
        <time>2014-02-17T12:38:15Z</time>
      </trkpt>
      <trkpt lat="44.90279" lon="6.78973">
        <ele>2104.94</ele>
        <time>2014-02-17T12:38:19Z</time>
      </trkpt>
      <trkpt lat="44.90278" lon="6.78973">
        <ele>2107.35</ele>
        <time>2014-02-17T12:38:20Z</time>
      </trkpt>
      <trkpt lat="44.90273" lon="6.78976">
        <ele>2108.31</ele>
        <time>2014-02-17T12:38:34Z</time>
      </trkpt>
      <trkpt lat="44.90272" lon="6.78977">
        <ele>2107.83</ele>
        <time>2014-02-17T12:38:35Z</time>
      </trkpt>
      <trkpt lat="44.90262" lon="6.78979">
        <ele>2109.27</ele>
        <time>2014-02-17T12:38:52Z</time>
      </trkpt>
      <trkpt lat="44.90276" lon="6.78957">
        <ele>2109.75</ele>
        <time>2014-02-17T12:39:17Z</time>
      </trkpt>
      <trkpt lat="44.90272" lon="6.78956">
        <ele>2109.75</ele>
        <time>2014-02-17T12:39:28Z</time>
      </trkpt>
      <trkpt lat="44.90271" lon="6.7896">
        <ele>2109.75</ele>
        <time>2014-02-17T12:39:40Z</time>
      </trkpt>
      <trkpt lat="44.90271" lon="6.78958">
        <ele>2110.23</ele>
        <time>2014-02-17T12:39:56Z</time>
      </trkpt>
      <trkpt lat="44.90272" lon="6.78957">
        <ele>2110.23</ele>
        <time>2014-02-17T12:40:09Z</time>
      </trkpt>
      <trkpt lat="44.90273" lon="6.7896">
        <ele>2110.23</ele>
        <time>2014-02-17T12:40:21Z</time>
      </trkpt>
      <trkpt lat="44.90273" lon="6.7896">
        <ele>2109.27</ele>
        <time>2014-02-17T12:40:32Z</time>
      </trkpt>
      <trkpt lat="44.90273" lon="6.78958">
        <ele>2109.75</ele>
        <time>2014-02-17T12:40:35Z</time>
      </trkpt>
      <trkpt lat="44.90271" lon="6.78954">
        <ele>2110.71</ele>
        <time>2014-02-17T12:40:40Z</time>
      </trkpt>
      <trkpt lat="44.90266" lon="6.78947">
        <ele>2111.19</ele>
        <time>2014-02-17T12:40:53Z</time>
      </trkpt>
      <trkpt lat="44.90267" lon="6.78947">
        <ele>2110.71</ele>
        <time>2014-02-17T12:40:59Z</time>
      </trkpt>
      <trkpt lat="44.90265" lon="6.78942">
        <ele>2111.19</ele>
        <time>2014-02-17T12:41:03Z</time>
      </trkpt>
      <trkpt lat="44.90259" lon="6.78929">
        <ele>2113.6</ele>
        <time>2014-02-17T12:41:19Z</time>
      </trkpt>
      <trkpt lat="44.90256" lon="6.7892">
        <ele>2114.56</ele>
        <time>2014-02-17T12:41:32Z</time>
      </trkpt>
      <trkpt lat="44.90251" lon="6.78908">
        <ele>2116.48</ele>
        <time>2014-02-17T12:41:47Z</time>
      </trkpt>
      <trkpt lat="44.90248" lon="6.78896">
        <ele>2117.92</ele>
        <time>2014-02-17T12:42:02Z</time>
      </trkpt>
      <trkpt lat="44.90247" lon="6.78895">
        <ele>2119.36</ele>
        <time>2014-02-17T12:42:11Z</time>
      </trkpt>
      <trkpt lat="44.90239" lon="6.78897">
        <ele>2120.32</ele>
        <time>2014-02-17T12:42:25Z</time>
      </trkpt>
      <trkpt lat="44.90236" lon="6.78897">
        <ele>2121.29</ele>
        <time>2014-02-17T12:42:29Z</time>
      </trkpt>
      <trkpt lat="44.90227" lon="6.78894">
        <ele>2122.25</ele>
        <time>2014-02-17T12:42:43Z</time>
      </trkpt>
      <trkpt lat="44.90223" lon="6.78893">
        <ele>2123.21</ele>
        <time>2014-02-17T12:42:48Z</time>
      </trkpt>
      <trkpt lat="44.9021" lon="6.78887">
        <ele>2123.69</ele>
        <time>2014-02-17T12:43:04Z</time>
      </trkpt>
      <trkpt lat="44.90206" lon="6.78885">
        <ele>2123.69</ele>
        <time>2014-02-17T12:43:18Z</time>
      </trkpt>
      <trkpt lat="44.90196" lon="6.78879">
        <ele>2124.65</ele>
        <time>2014-02-17T12:43:30Z</time>
      </trkpt>
      <trkpt lat="44.9019" lon="6.78871">
        <ele>2123.69</ele>
        <time>2014-02-17T12:43:35Z</time>
      </trkpt>
      <trkpt lat="44.90176" lon="6.78855">
        <ele>2124.65</ele>
        <time>2014-02-17T12:43:49Z</time>
      </trkpt>
      <trkpt lat="44.90174" lon="6.78851">
        <ele>2125.13</ele>
        <time>2014-02-17T12:43:52Z</time>
      </trkpt>
      <trkpt lat="44.90163" lon="6.78839">
        <ele>2125.61</ele>
        <time>2014-02-17T12:44:07Z</time>
      </trkpt>
      <trkpt lat="44.90155" lon="6.78831">
        <ele>2127.05</ele>
        <time>2014-02-17T12:44:19Z</time>
      </trkpt>
      <trkpt lat="44.90149" lon="6.78825">
        <ele>2128.98</ele>
        <time>2014-02-17T12:44:31Z</time>
      </trkpt>
      <trkpt lat="44.90138" lon="6.78814">
        <ele>2130.42</ele>
        <time>2014-02-17T12:44:47Z</time>
      </trkpt>
      <trkpt lat="44.90132" lon="6.78804">
        <ele>2129.94</ele>
        <time>2014-02-17T12:44:57Z</time>
      </trkpt>
      <trkpt lat="44.90123" lon="6.78795">
        <ele>2132.82</ele>
        <time>2014-02-17T12:45:13Z</time>
      </trkpt>
      <trkpt lat="44.90118" lon="6.7879">
        <ele>2134.74</ele>
        <time>2014-02-17T12:45:25Z</time>
      </trkpt>
      <trkpt lat="44.90113" lon="6.78782">
        <ele>2136.67</ele>
        <time>2014-02-17T12:45:37Z</time>
      </trkpt>
      <trkpt lat="44.90106" lon="6.78776">
        <ele>2138.59</ele>
        <time>2014-02-17T12:45:51Z</time>
      </trkpt>
      <trkpt lat="44.90102" lon="6.78772">
        <ele>2139.55</ele>
        <time>2014-02-17T12:45:57Z</time>
      </trkpt>
      <trkpt lat="44.9009" lon="6.78763">
        <ele>2140.51</ele>
        <time>2014-02-17T12:46:11Z</time>
      </trkpt>
      <trkpt lat="44.90079" lon="6.78756">
        <ele>2142.44</ele>
        <time>2014-02-17T12:46:26Z</time>
      </trkpt>
      <trkpt lat="44.90067" lon="6.7875">
        <ele>2144.84</ele>
        <time>2014-02-17T12:46:42Z</time>
      </trkpt>
      <trkpt lat="44.90055" lon="6.78748">
        <ele>2146.76</ele>
        <time>2014-02-17T12:46:56Z</time>
      </trkpt>
      <trkpt lat="44.90048" lon="6.78746">
        <ele>2147.24</ele>
        <time>2014-02-17T12:47:04Z</time>
      </trkpt>
      <trkpt lat="44.90035" lon="6.78737">
        <ele>2149.16</ele>
        <time>2014-02-17T12:47:20Z</time>
      </trkpt>
      <trkpt lat="44.90023" lon="6.78728">
        <ele>2152.05</ele>
        <time>2014-02-17T12:47:34Z</time>
      </trkpt>
      <trkpt lat="44.90021" lon="6.78726">
        <ele>2151.57</ele>
        <time>2014-02-17T12:47:36Z</time>
      </trkpt>
      <trkpt lat="44.90013" lon="6.78718">
        <ele>2153.49</ele>
        <time>2014-02-17T12:47:46Z</time>
      </trkpt>
      <trkpt lat="44.89998" lon="6.78706">
        <ele>2154.93</ele>
        <time>2014-02-17T12:48:01Z</time>
      </trkpt>
      <trkpt lat="44.89985" lon="6.78696">
        <ele>2157.82</ele>
        <time>2014-02-17T12:48:18Z</time>
      </trkpt>
      <trkpt lat="44.89976" lon="6.78687">
        <ele>2160.7</ele>
        <time>2014-02-17T12:48:32Z</time>
      </trkpt>
      <trkpt lat="44.89964" lon="6.78678">
        <ele>2162.62</ele>
        <time>2014-02-17T12:48:45Z</time>
      </trkpt>
      <trkpt lat="44.8996" lon="6.78675">
        <ele>2162.62</ele>
        <time>2014-02-17T12:48:49Z</time>
      </trkpt>
      <trkpt lat="44.89944" lon="6.78662">
        <ele>2164.06</ele>
        <time>2014-02-17T12:49:05Z</time>
      </trkpt>
      <trkpt lat="44.89931" lon="6.78652">
        <ele>2165.03</ele>
        <time>2014-02-17T12:49:20Z</time>
      </trkpt>
      <trkpt lat="44.89915" lon="6.7864">
        <ele>2165.99</ele>
        <time>2014-02-17T12:49:35Z</time>
      </trkpt>
      <trkpt lat="44.89901" lon="6.78628">
        <ele>2165.99</ele>
        <time>2014-02-17T12:49:50Z</time>
      </trkpt>
      <trkpt lat="44.89892" lon="6.78627">
        <ele>2167.91</ele>
        <time>2014-02-17T12:49:57Z</time>
      </trkpt>
      <trkpt lat="44.89878" lon="6.78626">
        <ele>2167.91</ele>
        <time>2014-02-17T12:50:12Z</time>
      </trkpt>
      <trkpt lat="44.89872" lon="6.78625">
        <ele>2168.39</ele>
        <time>2014-02-17T12:50:24Z</time>
      </trkpt>
      <trkpt lat="44.89866" lon="6.78622">
        <ele>2168.39</ele>
        <time>2014-02-17T12:50:34Z</time>
      </trkpt>
      <trkpt lat="44.8986" lon="6.78614">
        <ele>2168.39</ele>
        <time>2014-02-17T12:50:47Z</time>
      </trkpt>
      <trkpt lat="44.89841" lon="6.78595">
        <ele>2167.91</ele>
        <time>2014-02-17T12:50:59Z</time>
      </trkpt>
      <trkpt lat="44.8983" lon="6.78584">
        <ele>2167.91</ele>
        <time>2014-02-17T12:51:08Z</time>
      </trkpt>
      <trkpt lat="44.89824" lon="6.7858">
        <ele>2167.91</ele>
        <time>2014-02-17T12:51:14Z</time>
      </trkpt>
      <trkpt lat="44.89813" lon="6.78581">
        <ele>2166.95</ele>
        <time>2014-02-17T12:51:27Z</time>
      </trkpt>
      <trkpt lat="44.89811" lon="6.78582">
        <ele>2167.43</ele>
        <time>2014-02-17T12:51:44Z</time>
      </trkpt>
      <trkpt lat="44.89812" lon="6.78577">
        <ele>2166.95</ele>
        <time>2014-02-17T12:52:11Z</time>
      </trkpt>
      <trkpt lat="44.89809" lon="6.78581">
        <ele>2167.43</ele>
        <time>2014-02-17T12:52:45Z</time>
      </trkpt>
      <trkpt lat="44.89804" lon="6.78593">
        <ele>2166.95</ele>
        <time>2014-02-17T12:53:02Z</time>
      </trkpt>
      <trkpt lat="44.89805" lon="6.78591">
        <ele>2166.95</ele>
        <time>2014-02-17T12:53:10Z</time>
      </trkpt>
      <trkpt lat="44.89808" lon="6.78606">
        <ele>2165.03</ele>
        <time>2014-02-17T12:53:20Z</time>
      </trkpt>
      <trkpt lat="44.89818" lon="6.78625">
        <ele>2160.7</ele>
        <time>2014-02-17T12:53:24Z</time>
      </trkpt>
      <trkpt lat="44.89818" lon="6.7863">
        <ele>2160.7</ele>
        <time>2014-02-17T12:53:25Z</time>
      </trkpt>
      <trkpt lat="44.89806" lon="6.78637">
        <ele>2157.82</ele>
        <time>2014-02-17T12:53:30Z</time>
      </trkpt>
      <trkpt lat="44.89801" lon="6.78653">
        <ele>2153.49</ele>
        <time>2014-02-17T12:53:34Z</time>
      </trkpt>
      <trkpt lat="44.89785" lon="6.78665">
        <ele>2149.65</ele>
        <time>2014-02-17T12:53:39Z</time>
      </trkpt>
      <trkpt lat="44.89775" lon="6.78671">
        <ele>2148.2</ele>
        <time>2014-02-17T12:53:46Z</time>
      </trkpt>
      <trkpt lat="44.89764" lon="6.78668">
        <ele>2147.72</ele>
        <time>2014-02-17T12:53:54Z</time>
      </trkpt>
      <trkpt lat="44.8975" lon="6.78668">
        <ele>2147.72</ele>
        <time>2014-02-17T12:54:08Z</time>
      </trkpt>
      <trkpt lat="44.89739" lon="6.78671">
        <ele>2149.16</ele>
        <time>2014-02-17T12:54:22Z</time>
      </trkpt>
      <trkpt lat="44.89733" lon="6.78666">
        <ele>2150.13</ele>
        <time>2014-02-17T12:54:34Z</time>
      </trkpt>
      <trkpt lat="44.89727" lon="6.78655">
        <ele>2152.53</ele>
        <time>2014-02-17T12:54:49Z</time>
      </trkpt>
      <trkpt lat="44.89726" lon="6.78643">
        <ele>2153.01</ele>
        <time>2014-02-17T12:55:03Z</time>
      </trkpt>
      <trkpt lat="44.89722" lon="6.78632">
        <ele>2154.45</ele>
        <time>2014-02-17T12:55:16Z</time>
      </trkpt>
      <trkpt lat="44.89714" lon="6.78626">
        <ele>2155.41</ele>
        <time>2014-02-17T12:55:31Z</time>
      </trkpt>
      <trkpt lat="44.89707" lon="6.7862">
        <ele>2156.86</ele>
        <time>2014-02-17T12:55:45Z</time>
      </trkpt>
      <trkpt lat="44.89703" lon="6.78613">
        <ele>2158.78</ele>
        <time>2014-02-17T12:55:58Z</time>
      </trkpt>
      <trkpt lat="44.89698" lon="6.78606">
        <ele>2159.74</ele>
        <time>2014-02-17T12:56:13Z</time>
      </trkpt>
      <trkpt lat="44.89695" lon="6.78612">
        <ele>2160.22</ele>
        <time>2014-02-17T12:56:24Z</time>
      </trkpt>
      <trkpt lat="44.89694" lon="6.7862">
        <ele>2161.18</ele>
        <time>2014-02-17T12:56:36Z</time>
      </trkpt>
      <trkpt lat="44.89693" lon="6.78635">
        <ele>2163.1</ele>
        <time>2014-02-17T12:56:52Z</time>
      </trkpt>
      <trkpt lat="44.89692" lon="6.78642">
        <ele>2164.06</ele>
        <time>2014-02-17T12:57:06Z</time>
      </trkpt>
      <trkpt lat="44.89693" lon="6.78642">
        <ele>2164.06</ele>
        <time>2014-02-17T12:57:27Z</time>
      </trkpt>
      <trkpt lat="44.89691" lon="6.78642">
        <ele>2164.06</ele>
        <time>2014-02-17T12:57:46Z</time>
      </trkpt>
      <trkpt lat="44.89692" lon="6.78645">
        <ele>2164.55</ele>
        <time>2014-02-17T12:57:58Z</time>
      </trkpt>
      <trkpt lat="44.8969" lon="6.78644">
        <ele>2165.51</ele>
        <time>2014-02-17T12:58:08Z</time>
      </trkpt>
      <trkpt lat="44.89685" lon="6.78636">
        <ele>2166.95</ele>
        <time>2014-02-17T12:58:23Z</time>
      </trkpt>
      <trkpt lat="44.8968" lon="6.78626">
        <ele>2167.91</ele>
        <time>2014-02-17T12:58:39Z</time>
      </trkpt>
      <trkpt lat="44.89677" lon="6.78617">
        <ele>2169.35</ele>
        <time>2014-02-17T12:58:54Z</time>
      </trkpt>
      <trkpt lat="44.89674" lon="6.7861">
        <ele>2169.83</ele>
        <time>2014-02-17T12:59:08Z</time>
      </trkpt>
      <trkpt lat="44.89671" lon="6.78599">
        <ele>2171.76</ele>
        <time>2014-02-17T12:59:26Z</time>
      </trkpt>
      <trkpt lat="44.8967" lon="6.78597">
        <ele>2172.72</ele>
        <time>2014-02-17T12:59:29Z</time>
      </trkpt>
      <trkpt lat="44.89669" lon="6.78593">
        <ele>2173.2</ele>
        <time>2014-02-17T12:59:40Z</time>
      </trkpt>
      <trkpt lat="44.89668" lon="6.78594">
        <ele>2172.24</ele>
        <time>2014-02-17T13:00:00Z</time>
      </trkpt>
      <trkpt lat="44.89667" lon="6.78593">
        <ele>2172.72</ele>
        <time>2014-02-17T13:00:18Z</time>
      </trkpt>
      <trkpt lat="44.89667" lon="6.78593">
        <ele>2172.72</ele>
        <time>2014-02-17T13:00:39Z</time>
      </trkpt>
      <trkpt lat="44.89667" lon="6.78599">
        <ele>2172.72</ele>
        <time>2014-02-17T13:00:54Z</time>
      </trkpt>
      <trkpt lat="44.89664" lon="6.78605">
        <ele>2174.16</ele>
        <time>2014-02-17T13:01:08Z</time>
      </trkpt>
      <trkpt lat="44.89662" lon="6.78617">
        <ele>2175.6</ele>
        <time>2014-02-17T13:01:22Z</time>
      </trkpt>
      <trkpt lat="44.8966" lon="6.78629">
        <ele>2177.52</ele>
        <time>2014-02-17T13:01:35Z</time>
      </trkpt>
      <trkpt lat="44.89661" lon="6.78641">
        <ele>2178.97</ele>
        <time>2014-02-17T13:01:50Z</time>
      </trkpt>
      <trkpt lat="44.89661" lon="6.78649">
        <ele>2179.93</ele>
        <time>2014-02-17T13:02:02Z</time>
      </trkpt>
      <trkpt lat="44.89657" lon="6.78662">
        <ele>2180.89</ele>
        <time>2014-02-17T13:02:16Z</time>
      </trkpt>
      <trkpt lat="44.89654" lon="6.78673">
        <ele>2182.81</ele>
        <time>2014-02-17T13:02:29Z</time>
      </trkpt>
      <trkpt lat="44.89646" lon="6.78679">
        <ele>2184.25</ele>
        <time>2014-02-17T13:02:44Z</time>
      </trkpt>
      <trkpt lat="44.89638" lon="6.78681">
        <ele>2184.25</ele>
        <time>2014-02-17T13:02:57Z</time>
      </trkpt>
      <trkpt lat="44.89626" lon="6.78682">
        <ele>2185.21</ele>
        <time>2014-02-17T13:03:12Z</time>
      </trkpt>
      <trkpt lat="44.89613" lon="6.78684">
        <ele>2185.69</ele>
        <time>2014-02-17T13:03:28Z</time>
      </trkpt>
      <trkpt lat="44.89599" lon="6.78677">
        <ele>2186.66</ele>
        <time>2014-02-17T13:03:43Z</time>
      </trkpt>
      <trkpt lat="44.89589" lon="6.78664">
        <ele>2187.14</ele>
        <time>2014-02-17T13:03:57Z</time>
      </trkpt>
      <trkpt lat="44.89578" lon="6.78648">
        <ele>2188.1</ele>
        <time>2014-02-17T13:04:15Z</time>
      </trkpt>
      <trkpt lat="44.89576" lon="6.78645">
        <ele>2189.06</ele>
        <time>2014-02-17T13:04:19Z</time>
      </trkpt>
      <trkpt lat="44.89566" lon="6.78631">
        <ele>2190.5</ele>
        <time>2014-02-17T13:04:35Z</time>
      </trkpt>
      <trkpt lat="44.89554" lon="6.78613">
        <ele>2191.46</ele>
        <time>2014-02-17T13:04:52Z</time>
      </trkpt>
      <trkpt lat="44.89546" lon="6.78601">
        <ele>2191.94</ele>
        <time>2014-02-17T13:05:05Z</time>
      </trkpt>
      <trkpt lat="44.89535" lon="6.78588">
        <ele>2193.39</ele>
        <time>2014-02-17T13:05:20Z</time>
      </trkpt>
      <trkpt lat="44.89535" lon="6.78586">
        <ele>2193.39</ele>
        <time>2014-02-17T13:05:21Z</time>
      </trkpt>
      <trkpt lat="44.89523" lon="6.78568">
        <ele>2193.87</ele>
        <time>2014-02-17T13:05:37Z</time>
      </trkpt>
      <trkpt lat="44.89511" lon="6.78548">
        <ele>2194.35</ele>
        <time>2014-02-17T13:05:54Z</time>
      </trkpt>
      <trkpt lat="44.89503" lon="6.78533">
        <ele>2195.31</ele>
        <time>2014-02-17T13:06:09Z</time>
      </trkpt>
      <trkpt lat="44.89494" lon="6.78518">
        <ele>2196.75</ele>
        <time>2014-02-17T13:06:24Z</time>
      </trkpt>
      <trkpt lat="44.89483" lon="6.78502">
        <ele>2197.23</ele>
        <time>2014-02-17T13:06:40Z</time>
      </trkpt>
      <trkpt lat="44.8947" lon="6.7849">
        <ele>2198.19</ele>
        <time>2014-02-17T13:06:58Z</time>
      </trkpt>
      <trkpt lat="44.89468" lon="6.78486">
        <ele>2197.71</ele>
        <time>2014-02-17T13:07:14Z</time>
      </trkpt>
      <trkpt lat="44.89459" lon="6.78482">
        <ele>2197.71</ele>
        <time>2014-02-17T13:07:30Z</time>
      </trkpt>
      <trkpt lat="44.89448" lon="6.78476">
        <ele>2196.27</ele>
        <time>2014-02-17T13:07:34Z</time>
      </trkpt>
      <trkpt lat="44.89437" lon="6.78469">
        <ele>2193.39</ele>
        <time>2014-02-17T13:07:38Z</time>
      </trkpt>
      <trkpt lat="44.89425" lon="6.78463">
        <ele>2192.42</ele>
        <time>2014-02-17T13:07:45Z</time>
      </trkpt>
      <trkpt lat="44.8942" lon="6.7846">
        <ele>2191.94</ele>
        <time>2014-02-17T13:07:50Z</time>
      </trkpt>
      <trkpt lat="44.89397" lon="6.78445">
        <ele>2191.46</ele>
        <time>2014-02-17T13:08:03Z</time>
      </trkpt>
      <trkpt lat="44.89388" lon="6.78442">
        <ele>2190.02</ele>
        <time>2014-02-17T13:08:05Z</time>
      </trkpt>
      <trkpt lat="44.89369" lon="6.78438">
        <ele>2186.66</ele>
        <time>2014-02-17T13:08:11Z</time>
      </trkpt>
      <trkpt lat="44.89344" lon="6.78435">
        <ele>2183.77</ele>
        <time>2014-02-17T13:08:22Z</time>
      </trkpt>
      <trkpt lat="44.8933" lon="6.78432">
        <ele>2181.85</ele>
        <time>2014-02-17T13:08:29Z</time>
      </trkpt>
      <trkpt lat="44.89326" lon="6.78425">
        <ele>2180.89</ele>
        <time>2014-02-17T13:08:31Z</time>
      </trkpt>
      <trkpt lat="44.89313" lon="6.78415">
        <ele>2177.52</ele>
        <time>2014-02-17T13:08:36Z</time>
      </trkpt>
      <trkpt lat="44.89289" lon="6.78415">
        <ele>2172.72</ele>
        <time>2014-02-17T13:08:41Z</time>
      </trkpt>
      <trkpt lat="44.89281" lon="6.78411">
        <ele>2172.24</ele>
        <time>2014-02-17T13:08:43Z</time>
      </trkpt>
      <trkpt lat="44.89271" lon="6.78407">
        <ele>2169.35</ele>
        <time>2014-02-17T13:08:46Z</time>
      </trkpt>
      <trkpt lat="44.89269" lon="6.78418">
        <ele>2166.47</ele>
        <time>2014-02-17T13:08:49Z</time>
      </trkpt>
      <trkpt lat="44.89271" lon="6.78427">
        <ele>2165.03</ele>
        <time>2014-02-17T13:08:51Z</time>
      </trkpt>
      <trkpt lat="44.89261" lon="6.78443">
        <ele>2160.7</ele>
        <time>2014-02-17T13:08:54Z</time>
      </trkpt>
      <trkpt lat="44.89255" lon="6.78444">
        <ele>2158.3</ele>
        <time>2014-02-17T13:08:55Z</time>
      </trkpt>
      <trkpt lat="44.89233" lon="6.78447">
        <ele>2153.49</ele>
        <time>2014-02-17T13:08:59Z</time>
      </trkpt>
      <trkpt lat="44.89226" lon="6.7845">
        <ele>2152.05</ele>
        <time>2014-02-17T13:09:02Z</time>
      </trkpt>
      <trkpt lat="44.89223" lon="6.78451">
        <ele>2151.57</ele>
        <time>2014-02-17T13:09:06Z</time>
      </trkpt>
      <trkpt lat="44.89223" lon="6.78449">
        <ele>2152.05</ele>
        <time>2014-02-17T13:09:15Z</time>
      </trkpt>
      <trkpt lat="44.89222" lon="6.7845">
        <ele>2152.05</ele>
        <time>2014-02-17T13:09:34Z</time>
      </trkpt>
      <trkpt lat="44.89223" lon="6.78451">
        <ele>2152.53</ele>
        <time>2014-02-17T13:09:59Z</time>
      </trkpt>
      <trkpt lat="44.89221" lon="6.78452">
        <ele>2152.05</ele>
        <time>2014-02-17T13:10:35Z</time>
      </trkpt>
      <trkpt lat="44.89222" lon="6.7845">
        <ele>2151.57</ele>
        <time>2014-02-17T13:10:47Z</time>
      </trkpt>
      <trkpt lat="44.89221" lon="6.78451">
        <ele>2152.05</ele>
        <time>2014-02-17T13:10:59Z</time>
      </trkpt>
      <trkpt lat="44.89219" lon="6.7845">
        <ele>2152.53</ele>
        <time>2014-02-17T13:11:01Z</time>
      </trkpt>
      <trkpt lat="44.89209" lon="6.78452">
        <ele>2152.53</ele>
        <time>2014-02-17T13:11:14Z</time>
      </trkpt>
      <trkpt lat="44.89202" lon="6.78455">
        <ele>2153.97</ele>
        <time>2014-02-17T13:11:22Z</time>
      </trkpt>
      <trkpt lat="44.89186" lon="6.78456">
        <ele>2153.97</ele>
        <time>2014-02-17T13:11:37Z</time>
      </trkpt>
      <trkpt lat="44.89173" lon="6.78454">
        <ele>2155.89</ele>
        <time>2014-02-17T13:11:50Z</time>
      </trkpt>
      <trkpt lat="44.89155" lon="6.78453">
        <ele>2154.93</ele>
        <time>2014-02-17T13:12:03Z</time>
      </trkpt>
      <trkpt lat="44.8914" lon="6.78455">
        <ele>2156.37</ele>
        <time>2014-02-17T13:12:17Z</time>
      </trkpt>
      <trkpt lat="44.89132" lon="6.78463">
        <ele>2158.78</ele>
        <time>2014-02-17T13:12:30Z</time>
      </trkpt>
      <trkpt lat="44.89128" lon="6.78465">
        <ele>2159.26</ele>
        <time>2014-02-17T13:12:34Z</time>
      </trkpt>
      <trkpt lat="44.89118" lon="6.78467">
        <ele>2160.22</ele>
        <time>2014-02-17T13:12:48Z</time>
      </trkpt>
      <trkpt lat="44.89103" lon="6.78463">
        <ele>2161.18</ele>
        <time>2014-02-17T13:13:05Z</time>
      </trkpt>
      <trkpt lat="44.89094" lon="6.78464">
        <ele>2162.14</ele>
        <time>2014-02-17T13:13:15Z</time>
      </trkpt>
      <trkpt lat="44.89081" lon="6.78464">
        <ele>2162.62</ele>
        <time>2014-02-17T13:13:28Z</time>
      </trkpt>
      <trkpt lat="44.89068" lon="6.78464">
        <ele>2163.1</ele>
        <time>2014-02-17T13:13:40Z</time>
      </trkpt>
      <trkpt lat="44.89064" lon="6.78466">
        <ele>2164.06</ele>
        <time>2014-02-17T13:13:44Z</time>
      </trkpt>
      <trkpt lat="44.89062" lon="6.78466">
        <ele>2164.55</ele>
        <time>2014-02-17T13:13:46Z</time>
      </trkpt>
      <trkpt lat="44.89057" lon="6.78468">
        <ele>2165.03</ele>
        <time>2014-02-17T13:13:53Z</time>
      </trkpt>
      <trkpt lat="44.89052" lon="6.78471">
        <ele>2165.99</ele>
        <time>2014-02-17T13:14:00Z</time>
      </trkpt>
      <trkpt lat="44.89039" lon="6.78476">
        <ele>2167.91</ele>
        <time>2014-02-17T13:14:16Z</time>
      </trkpt>
      <trkpt lat="44.89028" lon="6.78485">
        <ele>2169.83</ele>
        <time>2014-02-17T13:14:31Z</time>
      </trkpt>
      <trkpt lat="44.89013" lon="6.78488">
        <ele>2171.27</ele>
        <time>2014-02-17T13:14:47Z</time>
      </trkpt>
      <trkpt lat="44.88995" lon="6.78494">
        <ele>2167.91</ele>
        <time>2014-02-17T13:14:54Z</time>
      </trkpt>
      <trkpt lat="44.88987" lon="6.78498">
        <ele>2166.95</ele>
        <time>2014-02-17T13:14:56Z</time>
      </trkpt>
      <trkpt lat="44.88971" lon="6.78507">
        <ele>2165.03</ele>
        <time>2014-02-17T13:15:06Z</time>
      </trkpt>
      <trkpt lat="44.88964" lon="6.78513">
        <ele>2166.47</ele>
        <time>2014-02-17T13:15:18Z</time>
      </trkpt>
      <trkpt lat="44.88955" lon="6.78522">
        <ele>2167.43</ele>
        <time>2014-02-17T13:15:32Z</time>
      </trkpt>
      <trkpt lat="44.88937" lon="6.78537">
        <ele>2165.51</ele>
        <time>2014-02-17T13:15:45Z</time>
      </trkpt>
      <trkpt lat="44.88928" lon="6.78542">
        <ele>2167.43</ele>
        <time>2014-02-17T13:15:58Z</time>
      </trkpt>
      <trkpt lat="44.8892" lon="6.78544">
        <ele>2168.87</ele>
        <time>2014-02-17T13:16:10Z</time>
      </trkpt>
      <trkpt lat="44.88911" lon="6.78547">
        <ele>2170.31</ele>
        <time>2014-02-17T13:16:22Z</time>
      </trkpt>
      <trkpt lat="44.88908" lon="6.78552">
        <ele>2171.27</ele>
        <time>2014-02-17T13:16:30Z</time>
      </trkpt>
      <trkpt lat="44.88901" lon="6.78558">
        <ele>2172.24</ele>
        <time>2014-02-17T13:16:46Z</time>
      </trkpt>
      <trkpt lat="44.88901" lon="6.78558">
        <ele>2171.76</ele>
        <time>2014-02-17T13:17:04Z</time>
      </trkpt>
      <trkpt lat="44.88902" lon="6.78559">
        <ele>2172.24</ele>
        <time>2014-02-17T13:17:26Z</time>
      </trkpt>
      <trkpt lat="44.88901" lon="6.7856">
        <ele>2172.72</ele>
        <time>2014-02-17T13:17:46Z</time>
      </trkpt>
      <trkpt lat="44.88902" lon="6.78559">
        <ele>2172.24</ele>
        <time>2014-02-17T13:18:07Z</time>
      </trkpt>
      <trkpt lat="44.88903" lon="6.7856">
        <ele>2172.72</ele>
        <time>2014-02-17T13:18:27Z</time>
      </trkpt>
      <trkpt lat="44.88901" lon="6.7856">
        <ele>2171.76</ele>
        <time>2014-02-17T13:18:47Z</time>
      </trkpt>
      <trkpt lat="44.88902" lon="6.78559">
        <ele>2172.72</ele>
        <time>2014-02-17T13:19:06Z</time>
      </trkpt>
      <trkpt lat="44.88902" lon="6.7856">
        <ele>2172.72</ele>
        <time>2014-02-17T13:19:22Z</time>
      </trkpt>
      <trkpt lat="44.88902" lon="6.78559">
        <ele>2172.24</ele>
        <time>2014-02-17T13:19:40Z</time>
      </trkpt>
      <trkpt lat="44.88901" lon="6.7856">
        <ele>2172.72</ele>
        <time>2014-02-17T13:20:00Z</time>
      </trkpt>
      <trkpt lat="44.88902" lon="6.78558">
        <ele>2172.24</ele>
        <time>2014-02-17T13:20:24Z</time>
      </trkpt>
      <trkpt lat="44.88902" lon="6.78559">
        <ele>2172.24</ele>
        <time>2014-02-17T13:20:39Z</time>
      </trkpt>
      <trkpt lat="44.88901" lon="6.78558">
        <ele>2172.24</ele>
        <time>2014-02-17T13:21:05Z</time>
      </trkpt>
      <trkpt lat="44.88902" lon="6.78559">
        <ele>2172.24</ele>
        <time>2014-02-17T13:21:28Z</time>
      </trkpt>
      <trkpt lat="44.88902" lon="6.78561">
        <ele>2172.24</ele>
        <time>2014-02-17T13:21:50Z</time>
      </trkpt>
      <trkpt lat="44.88902" lon="6.78558">
        <ele>2172.24</ele>
        <time>2014-02-17T13:22:10Z</time>
      </trkpt>
      <trkpt lat="44.88902" lon="6.78559">
        <ele>2172.24</ele>
        <time>2014-02-17T13:22:35Z</time>
      </trkpt>
      <trkpt lat="44.889" lon="6.78558">
        <ele>2172.24</ele>
        <time>2014-02-17T13:22:59Z</time>
      </trkpt>
      <trkpt lat="44.88897" lon="6.78563">
        <ele>2172.24</ele>
        <time>2014-02-17T13:23:04Z</time>
      </trkpt>
      <trkpt lat="44.88893" lon="6.78569">
        <ele>2173.2</ele>
        <time>2014-02-17T13:23:11Z</time>
      </trkpt>
      <trkpt lat="44.88884" lon="6.78581">
        <ele>2174.64</ele>
        <time>2014-02-17T13:23:27Z</time>
      </trkpt>
      <trkpt lat="44.88888" lon="6.78594">
        <ele>2175.6</ele>
        <time>2014-02-17T13:23:39Z</time>
      </trkpt>
      <trkpt lat="44.88897" lon="6.78612">
        <ele>2175.6</ele>
        <time>2014-02-17T13:23:53Z</time>
      </trkpt>
      <trkpt lat="44.88899" lon="6.7862">
        <ele>2174.16</ele>
        <time>2014-02-17T13:23:56Z</time>
      </trkpt>
      <trkpt lat="44.88903" lon="6.78635">
        <ele>2176.56</ele>
        <time>2014-02-17T13:24:09Z</time>
      </trkpt>
      <trkpt lat="44.88903" lon="6.78636">
        <ele>2176.56</ele>
        <time>2014-02-17T13:24:10Z</time>
      </trkpt>
      <trkpt lat="44.88907" lon="6.78648">
        <ele>2177.52</ele>
        <time>2014-02-17T13:24:23Z</time>
      </trkpt>
      <trkpt lat="44.88908" lon="6.78656">
        <ele>2177.04</ele>
        <time>2014-02-17T13:24:31Z</time>
      </trkpt>
      <trkpt lat="44.88917" lon="6.78667">
        <ele>2173.2</ele>
        <time>2014-02-17T13:24:37Z</time>
      </trkpt>
      <trkpt lat="44.88922" lon="6.78675">
        <ele>2170.79</ele>
        <time>2014-02-17T13:24:45Z</time>
      </trkpt>
      <trkpt lat="44.88934" lon="6.78693">
        <ele>2167.43</ele>
        <time>2014-02-17T13:24:51Z</time>
      </trkpt>
      <trkpt lat="44.88937" lon="6.78699">
        <ele>2165.99</ele>
        <time>2014-02-17T13:24:52Z</time>
      </trkpt>
      <trkpt lat="44.88946" lon="6.78721">
        <ele>2162.14</ele>
        <time>2014-02-17T13:24:55Z</time>
      </trkpt>
      <trkpt lat="44.88948" lon="6.78729">
        <ele>2162.14</ele>
        <time>2014-02-17T13:25:00Z</time>
      </trkpt>
      <trkpt lat="44.88947" lon="6.78734">
        <ele>2162.14</ele>
        <time>2014-02-17T13:25:03Z</time>
      </trkpt>
      <trkpt lat="44.88937" lon="6.78748">
        <ele>2163.58</ele>
        <time>2014-02-17T13:25:19Z</time>
      </trkpt>
      <trkpt lat="44.8893" lon="6.78759">
        <ele>2165.03</ele>
        <time>2014-02-17T13:25:33Z</time>
      </trkpt>
      <trkpt lat="44.88929" lon="6.78759">
        <ele>2165.03</ele>
        <time>2014-02-17T13:25:34Z</time>
      </trkpt>
      <trkpt lat="44.88927" lon="6.78763">
        <ele>2165.03</ele>
        <time>2014-02-17T13:25:38Z</time>
      </trkpt>
      <trkpt lat="44.88919" lon="6.78771">
        <ele>2165.99</ele>
        <time>2014-02-17T13:25:51Z</time>
      </trkpt>
      <trkpt lat="44.88908" lon="6.78779">
        <ele>2167.43</ele>
        <time>2014-02-17T13:26:07Z</time>
      </trkpt>
      <trkpt lat="44.88897" lon="6.7879">
        <ele>2168.87</ele>
        <time>2014-02-17T13:26:23Z</time>
      </trkpt>
      <trkpt lat="44.88888" lon="6.788">
        <ele>2169.83</ele>
        <time>2014-02-17T13:26:38Z</time>
      </trkpt>
      <trkpt lat="44.88885" lon="6.78806">
        <ele>2169.83</ele>
        <time>2014-02-17T13:26:54Z</time>
      </trkpt>
      <trkpt lat="44.88886" lon="6.78807">
        <ele>2170.79</ele>
        <time>2014-02-17T13:27:12Z</time>
      </trkpt>
      <trkpt lat="44.88884" lon="6.78821">
        <ele>2170.31</ele>
        <time>2014-02-17T13:27:23Z</time>
      </trkpt>
      <trkpt lat="44.88888" lon="6.78834">
        <ele>2169.83</ele>
        <time>2014-02-17T13:27:30Z</time>
      </trkpt>
      <trkpt lat="44.88895" lon="6.78863">
        <ele>2167.91</ele>
        <time>2014-02-17T13:27:42Z</time>
      </trkpt>
      <trkpt lat="44.88895" lon="6.78889">
        <ele>2166.95</ele>
        <time>2014-02-17T13:27:56Z</time>
      </trkpt>
      <trkpt lat="44.88892" lon="6.78896">
        <ele>2166.95</ele>
        <time>2014-02-17T13:28:01Z</time>
      </trkpt>
      <trkpt lat="44.8888" lon="6.78907">
        <ele>2166.95</ele>
        <time>2014-02-17T13:28:15Z</time>
      </trkpt>
      <trkpt lat="44.88868" lon="6.78914">
        <ele>2168.39</ele>
        <time>2014-02-17T13:28:31Z</time>
      </trkpt>
      <trkpt lat="44.88856" lon="6.78921">
        <ele>2169.35</ele>
        <time>2014-02-17T13:28:47Z</time>
      </trkpt>
      <trkpt lat="44.88845" lon="6.78926">
        <ele>2170.79</ele>
        <time>2014-02-17T13:29:02Z</time>
      </trkpt>
      <trkpt lat="44.88834" lon="6.78929">
        <ele>2170.79</ele>
        <time>2014-02-17T13:29:17Z</time>
      </trkpt>
      <trkpt lat="44.8883" lon="6.78931">
        <ele>2171.27</ele>
        <time>2014-02-17T13:29:22Z</time>
      </trkpt>
      <trkpt lat="44.88821" lon="6.78934">
        <ele>2172.24</ele>
        <time>2014-02-17T13:29:33Z</time>
      </trkpt>
      <trkpt lat="44.8881" lon="6.78944">
        <ele>2173.68</ele>
        <time>2014-02-17T13:29:47Z</time>
      </trkpt>
      <trkpt lat="44.88806" lon="6.78956">
        <ele>2175.12</ele>
        <time>2014-02-17T13:29:59Z</time>
      </trkpt>
      <trkpt lat="44.88806" lon="6.78971">
        <ele>2176.56</ele>
        <time>2014-02-17T13:30:14Z</time>
      </trkpt>
      <trkpt lat="44.88807" lon="6.78985">
        <ele>2178</ele>
        <time>2014-02-17T13:30:28Z</time>
      </trkpt>
      <trkpt lat="44.88804" lon="6.78997">
        <ele>2179.93</ele>
        <time>2014-02-17T13:30:42Z</time>
      </trkpt>
      <trkpt lat="44.88799" lon="6.79013">
        <ele>2181.85</ele>
        <time>2014-02-17T13:30:57Z</time>
      </trkpt>
      <trkpt lat="44.88796" lon="6.79017">
        <ele>2183.29</ele>
        <time>2014-02-17T13:31:03Z</time>
      </trkpt>
      <trkpt lat="44.88791" lon="6.79027">
        <ele>2185.69</ele>
        <time>2014-02-17T13:31:16Z</time>
      </trkpt>
      <trkpt lat="44.88787" lon="6.79037">
        <ele>2186.18</ele>
        <time>2014-02-17T13:31:30Z</time>
      </trkpt>
      <trkpt lat="44.88781" lon="6.79044">
        <ele>2188.1</ele>
        <time>2014-02-17T13:31:40Z</time>
      </trkpt>
      <trkpt lat="44.88776" lon="6.79052">
        <ele>2188.1</ele>
        <time>2014-02-17T13:31:55Z</time>
      </trkpt>
      <trkpt lat="44.88776" lon="6.79056">
        <ele>2189.06</ele>
        <time>2014-02-17T13:32:12Z</time>
      </trkpt>
      <trkpt lat="44.88771" lon="6.79063">
        <ele>2190.02</ele>
        <time>2014-02-17T13:32:25Z</time>
      </trkpt>
      <trkpt lat="44.88768" lon="6.79076">
        <ele>2191.46</ele>
        <time>2014-02-17T13:32:37Z</time>
      </trkpt>
      <trkpt lat="44.88773" lon="6.79099">
        <ele>2191.46</ele>
        <time>2014-02-17T13:32:53Z</time>
      </trkpt>
      <trkpt lat="44.88774" lon="6.79108">
        <ele>2190.5</ele>
        <time>2014-02-17T13:32:58Z</time>
      </trkpt>
      <trkpt lat="44.88774" lon="6.79135">
        <ele>2189.06</ele>
        <time>2014-02-17T13:33:10Z</time>
      </trkpt>
      <trkpt lat="44.88773" lon="6.79156">
        <ele>2187.62</ele>
        <time>2014-02-17T13:33:22Z</time>
      </trkpt>
      <trkpt lat="44.88772" lon="6.79174">
        <ele>2189.54</ele>
        <time>2014-02-17T13:33:36Z</time>
      </trkpt>
      <trkpt lat="44.88771" lon="6.79178">
        <ele>2189.06</ele>
        <time>2014-02-17T13:33:39Z</time>
      </trkpt>
      <trkpt lat="44.88766" lon="6.79197">
        <ele>2190.5</ele>
        <time>2014-02-17T13:33:55Z</time>
      </trkpt>
      <trkpt lat="44.88764" lon="6.79207">
        <ele>2190.5</ele>
        <time>2014-02-17T13:34:03Z</time>
      </trkpt>
      <trkpt lat="44.88761" lon="6.79221">
        <ele>2190.98</ele>
        <time>2014-02-17T13:34:13Z</time>
      </trkpt>
      <trkpt lat="44.88761" lon="6.79237">
        <ele>2190.98</ele>
        <time>2014-02-17T13:34:26Z</time>
      </trkpt>
      <trkpt lat="44.8876" lon="6.79251">
        <ele>2189.54</ele>
        <time>2014-02-17T13:34:34Z</time>
      </trkpt>
      <trkpt lat="44.88761" lon="6.79251">
        <ele>2189.06</ele>
        <time>2014-02-17T13:34:35Z</time>
      </trkpt>
      <trkpt lat="44.88757" lon="6.79254">
        <ele>2189.54</ele>
        <time>2014-02-17T13:34:45Z</time>
      </trkpt>
      <trkpt lat="44.88749" lon="6.79261">
        <ele>2191.46</ele>
        <time>2014-02-17T13:34:59Z</time>
      </trkpt>
      <trkpt lat="44.88742" lon="6.79268">
        <ele>2191.94</ele>
        <time>2014-02-17T13:35:10Z</time>
      </trkpt>
      <trkpt lat="44.88735" lon="6.79283">
        <ele>2192.9</ele>
        <time>2014-02-17T13:35:27Z</time>
      </trkpt>
      <trkpt lat="44.88729" lon="6.79292">
        <ele>2193.87</ele>
        <time>2014-02-17T13:35:40Z</time>
      </trkpt>
      <trkpt lat="44.88721" lon="6.79301">
        <ele>2195.79</ele>
        <time>2014-02-17T13:35:56Z</time>
      </trkpt>
      <trkpt lat="44.88718" lon="6.79304">
        <ele>2196.27</ele>
        <time>2014-02-17T13:36:12Z</time>
      </trkpt>
      <trkpt lat="44.88716" lon="6.79302">
        <ele>2195.79</ele>
        <time>2014-02-17T13:36:33Z</time>
      </trkpt>
      <trkpt lat="44.88718" lon="6.79302">
        <ele>2193.87</ele>
        <time>2014-02-17T13:36:39Z</time>
      </trkpt>
      <trkpt lat="44.88714" lon="6.79301">
        <ele>2194.83</ele>
        <time>2014-02-17T13:37:11Z</time>
      </trkpt>
      <trkpt lat="44.88718" lon="6.79302">
        <ele>2196.27</ele>
        <time>2014-02-17T13:37:43Z</time>
      </trkpt>
      <trkpt lat="44.88717" lon="6.79303">
        <ele>2191.94</ele>
        <time>2014-02-17T13:37:46Z</time>
      </trkpt>
      <trkpt lat="44.88717" lon="6.79303">
        <ele>2195.31</ele>
        <time>2014-02-17T13:37:47Z</time>
      </trkpt>
      <trkpt lat="44.88717" lon="6.79301">
        <ele>2195.31</ele>
        <time>2014-02-17T13:37:51Z</time>
      </trkpt>
      <trkpt lat="44.88719" lon="6.793">
        <ele>2196.75</ele>
        <time>2014-02-17T13:38:00Z</time>
      </trkpt>
      <trkpt lat="44.88719" lon="6.793">
        <ele>2196.75</ele>
        <time>2014-02-17T13:38:23Z</time>
      </trkpt>
      <trkpt lat="44.88717" lon="6.79299">
        <ele>2196.27</ele>
        <time>2014-02-17T13:38:46Z</time>
      </trkpt>
      <trkpt lat="44.88719" lon="6.79304">
        <ele>2196.75</ele>
        <time>2014-02-17T13:39:08Z</time>
      </trkpt>
      <trkpt lat="44.88718" lon="6.79302">
        <ele>2196.27</ele>
        <time>2014-02-17T13:39:30Z</time>
      </trkpt>
      <trkpt lat="44.88719" lon="6.79301">
        <ele>2196.27</ele>
        <time>2014-02-17T13:39:54Z</time>
      </trkpt>
      <trkpt lat="44.88718" lon="6.79302">
        <ele>2196.75</ele>
        <time>2014-02-17T13:40:10Z</time>
      </trkpt>
      <trkpt lat="44.88719" lon="6.79304">
        <ele>2196.75</ele>
        <time>2014-02-17T13:40:28Z</time>
      </trkpt>
      <trkpt lat="44.8872" lon="6.79298">
        <ele>2196.75</ele>
        <time>2014-02-17T13:40:50Z</time>
      </trkpt>
      <trkpt lat="44.88718" lon="6.79301">
        <ele>2195.79</ele>
        <time>2014-02-17T13:41:19Z</time>
      </trkpt>
      <trkpt lat="44.88719" lon="6.79302">
        <ele>2195.79</ele>
        <time>2014-02-17T13:41:41Z</time>
      </trkpt>
      <trkpt lat="44.88718" lon="6.79303">
        <ele>2195.79</ele>
        <time>2014-02-17T13:42:08Z</time>
      </trkpt>
      <trkpt lat="44.88718" lon="6.79304">
        <ele>2196.27</ele>
        <time>2014-02-17T13:42:25Z</time>
      </trkpt>
      <trkpt lat="44.88718" lon="6.79306">
        <ele>2196.75</ele>
        <time>2014-02-17T13:42:46Z</time>
      </trkpt>
      <trkpt lat="44.88717" lon="6.79305">
        <ele>2196.27</ele>
        <time>2014-02-17T13:43:09Z</time>
      </trkpt>
      <trkpt lat="44.88717" lon="6.79301">
        <ele>2196.75</ele>
        <time>2014-02-17T13:43:37Z</time>
      </trkpt>
      <trkpt lat="44.88719" lon="6.79302">
        <ele>2196.27</ele>
        <time>2014-02-17T13:43:55Z</time>
      </trkpt>
      <trkpt lat="44.88715" lon="6.79306">
        <ele>2196.75</ele>
        <time>2014-02-17T13:44:08Z</time>
      </trkpt>
      <trkpt lat="44.88708" lon="6.79316">
        <ele>2197.23</ele>
        <time>2014-02-17T13:44:21Z</time>
      </trkpt>
      <trkpt lat="44.88703" lon="6.79329">
        <ele>2199.63</ele>
        <time>2014-02-17T13:44:36Z</time>
      </trkpt>
      <trkpt lat="44.887" lon="6.79338">
        <ele>2199.63</ele>
        <time>2014-02-17T13:44:43Z</time>
      </trkpt>
      <trkpt lat="44.88697" lon="6.79347">
        <ele>2199.63</ele>
        <time>2014-02-17T13:44:48Z</time>
      </trkpt>
      <trkpt lat="44.88694" lon="6.79347">
        <ele>2200.59</ele>
        <time>2014-02-17T13:45:00Z</time>
      </trkpt>
      <trkpt lat="44.88687" lon="6.79359">
        <ele>2201.56</ele>
        <time>2014-02-17T13:45:17Z</time>
      </trkpt>
      <trkpt lat="44.88684" lon="6.79363">
        <ele>2202.04</ele>
        <time>2014-02-17T13:45:22Z</time>
      </trkpt>
      <trkpt lat="44.88677" lon="6.79372">
        <ele>2203</ele>
        <time>2014-02-17T13:45:35Z</time>
      </trkpt>
      <trkpt lat="44.8867" lon="6.79376">
        <ele>2204.44</ele>
        <time>2014-02-17T13:45:47Z</time>
      </trkpt>
      <trkpt lat="44.88661" lon="6.79383">
        <ele>2205.88</ele>
        <time>2014-02-17T13:46:02Z</time>
      </trkpt>
      <trkpt lat="44.88653" lon="6.79391">
        <ele>2207.32</ele>
        <time>2014-02-17T13:46:16Z</time>
      </trkpt>
      <trkpt lat="44.88646" lon="6.79397">
        <ele>2209.73</ele>
        <time>2014-02-17T13:46:30Z</time>
      </trkpt>
      <trkpt lat="44.8864" lon="6.79402">
        <ele>2211.17</ele>
        <time>2014-02-17T13:46:45Z</time>
      </trkpt>
      <trkpt lat="44.88639" lon="6.79401">
        <ele>2210.69</ele>
        <time>2014-02-17T13:47:01Z</time>
      </trkpt>
      <trkpt lat="44.8864" lon="6.794">
        <ele>2211.17</ele>
        <time>2014-02-17T13:47:30Z</time>
      </trkpt>
      <trkpt lat="44.88639" lon="6.79405">
        <ele>2211.17</ele>
        <time>2014-02-17T13:48:07Z</time>
      </trkpt>
      <trkpt lat="44.88641" lon="6.79403">
        <ele>2211.17</ele>
        <time>2014-02-17T13:48:37Z</time>
      </trkpt>
      <trkpt lat="44.8864" lon="6.79401">
        <ele>2211.17</ele>
        <time>2014-02-17T13:49:07Z</time>
      </trkpt>
      <trkpt lat="44.8864" lon="6.79401">
        <ele>2211.65</ele>
        <time>2014-02-17T13:49:23Z</time>
      </trkpt>
      <trkpt lat="44.8864" lon="6.79402">
        <ele>2211.65</ele>
        <time>2014-02-17T13:49:50Z</time>
      </trkpt>
      <trkpt lat="44.88638" lon="6.79402">
        <ele>2211.65</ele>
        <time>2014-02-17T13:50:15Z</time>
      </trkpt>
      <trkpt lat="44.88637" lon="6.79406">
        <ele>2212.13</ele>
        <time>2014-02-17T13:50:22Z</time>
      </trkpt>
      <trkpt lat="44.88641" lon="6.794">
        <ele>2211.65</ele>
        <time>2014-02-17T13:50:52Z</time>
      </trkpt>
      <trkpt lat="44.8864" lon="6.79401">
        <ele>2211.65</ele>
        <time>2014-02-17T13:51:10Z</time>
      </trkpt>
      <trkpt lat="44.88635" lon="6.79404">
        <ele>2212.13</ele>
        <time>2014-02-17T13:51:21Z</time>
      </trkpt>
      <trkpt lat="44.88634" lon="6.79409">
        <ele>2212.61</ele>
        <time>2014-02-17T13:51:35Z</time>
      </trkpt>
      <trkpt lat="44.88633" lon="6.79407">
        <ele>2212.13</ele>
        <time>2014-02-17T13:51:51Z</time>
      </trkpt>
      <trkpt lat="44.88632" lon="6.79407">
        <ele>2212.13</ele>
        <time>2014-02-17T13:52:10Z</time>
      </trkpt>
      <trkpt lat="44.88632" lon="6.79405">
        <ele>2212.61</ele>
        <time>2014-02-17T13:52:25Z</time>
      </trkpt>
      <trkpt lat="44.88632" lon="6.79407">
        <ele>2212.61</ele>
        <time>2014-02-17T13:52:46Z</time>
      </trkpt>
      <trkpt lat="44.88631" lon="6.79407">
        <ele>2211.65</ele>
        <time>2014-02-17T13:53:05Z</time>
      </trkpt>
      <trkpt lat="44.88635" lon="6.79407">
        <ele>2212.13</ele>
        <time>2014-02-17T13:53:22Z</time>
      </trkpt>
      <trkpt lat="44.88633" lon="6.79409">
        <ele>2212.13</ele>
        <time>2014-02-17T13:53:48Z</time>
      </trkpt>
      <trkpt lat="44.88629" lon="6.79406">
        <ele>2212.61</ele>
        <time>2014-02-17T13:54:18Z</time>
      </trkpt>
      <trkpt lat="44.88632" lon="6.79406">
        <ele>2212.13</ele>
        <time>2014-02-17T13:54:41Z</time>
      </trkpt>
      <trkpt lat="44.88631" lon="6.79408">
        <ele>2212.61</ele>
        <time>2014-02-17T13:55:01Z</time>
      </trkpt>
      <trkpt lat="44.88625" lon="6.7941">
        <ele>2213.57</ele>
        <time>2014-02-17T13:55:17Z</time>
      </trkpt>
      <trkpt lat="44.88617" lon="6.79412">
        <ele>2214.53</ele>
        <time>2014-02-17T13:55:29Z</time>
      </trkpt>
      <trkpt lat="44.88608" lon="6.79411">
        <ele>2215.98</ele>
        <time>2014-02-17T13:55:43Z</time>
      </trkpt>
      <trkpt lat="44.88602" lon="6.7941">
        <ele>2216.46</ele>
        <time>2014-02-17T13:55:55Z</time>
      </trkpt>
      <trkpt lat="44.88597" lon="6.79411">
        <ele>2217.9</ele>
        <time>2014-02-17T13:56:06Z</time>
      </trkpt>
      <trkpt lat="44.88595" lon="6.79415">
        <ele>2218.86</ele>
        <time>2014-02-17T13:56:13Z</time>
      </trkpt>
      <trkpt lat="44.88588" lon="6.79423">
        <ele>2219.34</ele>
        <time>2014-02-17T13:56:27Z</time>
      </trkpt>
      <trkpt lat="44.88589" lon="6.79423">
        <ele>2219.34</ele>
        <time>2014-02-17T13:56:41Z</time>
      </trkpt>
      <trkpt lat="44.88587" lon="6.79423">
        <ele>2218.86</ele>
        <time>2014-02-17T13:56:58Z</time>
      </trkpt>
      <trkpt lat="44.88587" lon="6.79425">
        <ele>2219.82</ele>
        <time>2014-02-17T13:57:14Z</time>
      </trkpt>
      <trkpt lat="44.88587" lon="6.79425">
        <ele>2220.3</ele>
        <time>2014-02-17T13:57:15Z</time>
      </trkpt>
      <trkpt lat="44.88587" lon="6.79426">
        <ele>2220.3</ele>
        <time>2014-02-17T13:57:27Z</time>
      </trkpt>
      <trkpt lat="44.88586" lon="6.79424">
        <ele>2219.82</ele>
        <time>2014-02-17T13:57:47Z</time>
      </trkpt>
      <trkpt lat="44.88588" lon="6.79424">
        <ele>2219.82</ele>
        <time>2014-02-17T13:57:59Z</time>
      </trkpt>
      <trkpt lat="44.88588" lon="6.79424">
        <ele>2219.82</ele>
        <time>2014-02-17T13:58:01Z</time>
      </trkpt>
      <trkpt lat="44.88586" lon="6.7943">
        <ele>2220.3</ele>
        <time>2014-02-17T13:58:05Z</time>
      </trkpt>
      <trkpt lat="44.88583" lon="6.79442">
        <ele>2218.86</ele>
        <time>2014-02-17T13:58:09Z</time>
      </trkpt>
      <trkpt lat="44.88578" lon="6.79461">
        <ele>2219.34</ele>
        <time>2014-02-17T13:58:24Z</time>
      </trkpt>
      <trkpt lat="44.88574" lon="6.79472">
        <ele>2218.38</ele>
        <time>2014-02-17T13:58:32Z</time>
      </trkpt>
      <trkpt lat="44.88564" lon="6.79497">
        <ele>2216.94</ele>
        <time>2014-02-17T13:58:47Z</time>
      </trkpt>
      <trkpt lat="44.88558" lon="6.79518">
        <ele>2215.98</ele>
        <time>2014-02-17T13:58:58Z</time>
      </trkpt>
      <trkpt lat="44.8855" lon="6.79539">
        <ele>2215.98</ele>
        <time>2014-02-17T13:59:13Z</time>
      </trkpt>
      <trkpt lat="44.88542" lon="6.79558">
        <ele>2215.98</ele>
        <time>2014-02-17T13:59:27Z</time>
      </trkpt>
      <trkpt lat="44.88536" lon="6.79579">
        <ele>2215.5</ele>
        <time>2014-02-17T13:59:43Z</time>
      </trkpt>
      <trkpt lat="44.88533" lon="6.79597">
        <ele>2216.46</ele>
        <time>2014-02-17T13:59:58Z</time>
      </trkpt>
      <trkpt lat="44.88531" lon="6.79616">
        <ele>2216.46</ele>
        <time>2014-02-17T14:00:12Z</time>
      </trkpt>
      <trkpt lat="44.88527" lon="6.79637">
        <ele>2216.46</ele>
        <time>2014-02-17T14:00:27Z</time>
      </trkpt>
      <trkpt lat="44.88524" lon="6.7966">
        <ele>2216.46</ele>
        <time>2014-02-17T14:00:41Z</time>
      </trkpt>
      <trkpt lat="44.88523" lon="6.79672">
        <ele>2215.5</ele>
        <time>2014-02-17T14:00:49Z</time>
      </trkpt>
      <trkpt lat="44.88522" lon="6.79693">
        <ele>2216.46</ele>
        <time>2014-02-17T14:01:04Z</time>
      </trkpt>
      <trkpt lat="44.88521" lon="6.7971">
        <ele>2216.46</ele>
        <time>2014-02-17T14:01:17Z</time>
      </trkpt>
      <trkpt lat="44.88522" lon="6.79732">
        <ele>2215.5</ele>
        <time>2014-02-17T14:01:32Z</time>
      </trkpt>
      <trkpt lat="44.88521" lon="6.79737">
        <ele>2216.46</ele>
        <time>2014-02-17T14:01:46Z</time>
      </trkpt>
      <trkpt lat="44.88522" lon="6.79742">
        <ele>2216.46</ele>
        <time>2014-02-17T14:01:50Z</time>
      </trkpt>
      <trkpt lat="44.88524" lon="6.79759">
        <ele>2216.94</ele>
        <time>2014-02-17T14:02:03Z</time>
      </trkpt>
      <trkpt lat="44.88525" lon="6.79779">
        <ele>2217.42</ele>
        <time>2014-02-17T14:02:18Z</time>
      </trkpt>
      <trkpt lat="44.88528" lon="6.79804">
        <ele>2216.94</ele>
        <time>2014-02-17T14:02:34Z</time>
      </trkpt>
      <trkpt lat="44.88531" lon="6.79832">
        <ele>2215.98</ele>
        <time>2014-02-17T14:02:50Z</time>
      </trkpt>
      <trkpt lat="44.88534" lon="6.79852">
        <ele>2216.46</ele>
        <time>2014-02-17T14:03:05Z</time>
      </trkpt>
      <trkpt lat="44.88536" lon="6.79867">
        <ele>2215.98</ele>
        <time>2014-02-17T14:03:16Z</time>
      </trkpt>
      <trkpt lat="44.88537" lon="6.79874">
        <ele>2215.5</ele>
        <time>2014-02-17T14:03:21Z</time>
      </trkpt>
      <trkpt lat="44.88539" lon="6.79892">
        <ele>2216.46</ele>
        <time>2014-02-17T14:03:35Z</time>
      </trkpt>
      <trkpt lat="44.8854" lon="6.799">
        <ele>2215.5</ele>
        <time>2014-02-17T14:03:41Z</time>
      </trkpt>
      <trkpt lat="44.88542" lon="6.7992">
        <ele>2215.01</ele>
        <time>2014-02-17T14:03:55Z</time>
      </trkpt>
      <trkpt lat="44.88546" lon="6.79941">
        <ele>2215.01</ele>
        <time>2014-02-17T14:04:10Z</time>
      </trkpt>
      <trkpt lat="44.88547" lon="6.79948">
        <ele>2215.01</ele>
        <time>2014-02-17T14:04:15Z</time>
      </trkpt>
      <trkpt lat="44.88547" lon="6.79953">
        <ele>2215.5</ele>
        <time>2014-02-17T14:04:19Z</time>
      </trkpt>
      <trkpt lat="44.8855" lon="6.7997">
        <ele>2215.5</ele>
        <time>2014-02-17T14:04:33Z</time>
      </trkpt>
      <trkpt lat="44.88553" lon="6.7999">
        <ele>2215.01</ele>
        <time>2014-02-17T14:04:49Z</time>
      </trkpt>
      <trkpt lat="44.88554" lon="6.79994">
        <ele>2215.5</ele>
        <time>2014-02-17T14:04:52Z</time>
      </trkpt>
      <trkpt lat="44.88557" lon="6.80012">
        <ele>2215.5</ele>
        <time>2014-02-17T14:05:07Z</time>
      </trkpt>
      <trkpt lat="44.88556" lon="6.80014">
        <ele>2216.46</ele>
        <time>2014-02-17T14:05:21Z</time>
      </trkpt>
      <trkpt lat="44.88557" lon="6.80014">
        <ele>2216.46</ele>
        <time>2014-02-17T14:05:23Z</time>
      </trkpt>
      <trkpt lat="44.88556" lon="6.80015">
        <ele>2215.98</ele>
        <time>2014-02-17T14:05:25Z</time>
      </trkpt>
      <trkpt lat="44.88555" lon="6.80018">
        <ele>2216.46</ele>
        <time>2014-02-17T14:05:38Z</time>
      </trkpt>
      <trkpt lat="44.88556" lon="6.80018">
        <ele>2215.5</ele>
        <time>2014-02-17T14:06:10Z</time>
      </trkpt>
      <trkpt lat="44.88556" lon="6.80017">
        <ele>2215.5</ele>
        <time>2014-02-17T14:06:13Z</time>
      </trkpt>
      <trkpt lat="44.88556" lon="6.80017">
        <ele>2215.01</ele>
        <time>2014-02-17T14:06:18Z</time>
      </trkpt>
      <trkpt lat="44.8856" lon="6.80018">
        <ele>2215.01</ele>
        <time>2014-02-17T14:06:33Z</time>
      </trkpt>
      <trkpt lat="44.88559" lon="6.80018">
        <ele>2214.53</ele>
        <time>2014-02-17T14:07:03Z</time>
      </trkpt>
      <trkpt lat="44.88562" lon="6.80019">
        <ele>2215.01</ele>
        <time>2014-02-17T14:07:35Z</time>
      </trkpt>
      <trkpt lat="44.88561" lon="6.8002">
        <ele>2215.01</ele>
        <time>2014-02-17T14:08:08Z</time>
      </trkpt>
      <trkpt lat="44.88561" lon="6.80019">
        <ele>2215.01</ele>
        <time>2014-02-17T14:08:47Z</time>
      </trkpt>
      <trkpt lat="44.88559" lon="6.80019">
        <ele>2215.5</ele>
        <time>2014-02-17T14:09:10Z</time>
      </trkpt>
      <trkpt lat="44.8856" lon="6.80018">
        <ele>2215.01</ele>
        <time>2014-02-17T14:09:31Z</time>
      </trkpt>
      <trkpt lat="44.88561" lon="6.80018">
        <ele>2215.5</ele>
        <time>2014-02-17T14:09:45Z</time>
      </trkpt>
      <trkpt lat="44.88558" lon="6.80017">
        <ele>2201.08</ele>
        <time>2014-02-17T14:10:05Z</time>
      </trkpt>
      <trkpt lat="44.88557" lon="6.80017">
        <ele>2219.34</ele>
        <time>2014-02-17T14:10:06Z</time>
      </trkpt>
      <trkpt lat="44.88557" lon="6.80017">
        <ele>2215.98</ele>
        <time>2014-02-17T14:10:07Z</time>
      </trkpt>
      <trkpt lat="44.88557" lon="6.80017">
        <ele>2214.53</ele>
        <time>2014-02-17T14:10:09Z</time>
      </trkpt>
      <trkpt lat="44.88558" lon="6.80016">
        <ele>2215.98</ele>
        <time>2014-02-17T14:10:12Z</time>
      </trkpt>
      <trkpt lat="44.88557" lon="6.80017">
        <ele>2215.5</ele>
        <time>2014-02-17T14:10:24Z</time>
      </trkpt>
      <trkpt lat="44.88556" lon="6.80017">
        <ele>2215.98</ele>
        <time>2014-02-17T14:10:30Z</time>
      </trkpt>
      <trkpt lat="44.88557" lon="6.80015">
        <ele>2215.98</ele>
        <time>2014-02-17T14:10:38Z</time>
      </trkpt>
      <trkpt lat="44.88557" lon="6.80017">
        <ele>2215.01</ele>
        <time>2014-02-17T14:10:48Z</time>
      </trkpt>
      <trkpt lat="44.88558" lon="6.80018">
        <ele>2215.5</ele>
        <time>2014-02-17T14:10:49Z</time>
      </trkpt>
      <trkpt lat="44.8856" lon="6.80029">
        <ele>2215.98</ele>
        <time>2014-02-17T14:10:58Z</time>
      </trkpt>
      <trkpt lat="44.88566" lon="6.80052">
        <ele>2215.01</ele>
        <time>2014-02-17T14:11:12Z</time>
      </trkpt>
      <trkpt lat="44.88572" lon="6.80079">
        <ele>2213.57</ele>
        <time>2014-02-17T14:11:26Z</time>
      </trkpt>
      <trkpt lat="44.88574" lon="6.80087">
        <ele>2212.61</ele>
        <time>2014-02-17T14:11:29Z</time>
      </trkpt>
      <trkpt lat="44.88579" lon="6.80111">
        <ele>2210.69</ele>
        <time>2014-02-17T14:11:40Z</time>
      </trkpt>
      <trkpt lat="44.88583" lon="6.80131">
        <ele>2210.69</ele>
        <time>2014-02-17T14:11:54Z</time>
      </trkpt>
      <trkpt lat="44.88587" lon="6.80148">
        <ele>2210.69</ele>
        <time>2014-02-17T14:12:06Z</time>
      </trkpt>
      <trkpt lat="44.88592" lon="6.80161">
        <ele>2210.21</ele>
        <time>2014-02-17T14:12:15Z</time>
      </trkpt>
      <trkpt lat="44.88596" lon="6.80176">
        <ele>2210.21</ele>
        <time>2014-02-17T14:12:29Z</time>
      </trkpt>
      <trkpt lat="44.88595" lon="6.80182">
        <ele>2210.21</ele>
        <time>2014-02-17T14:12:56Z</time>
      </trkpt>
      <trkpt lat="44.88596" lon="6.80183">
        <ele>2209.73</ele>
        <time>2014-02-17T14:12:58Z</time>
      </trkpt>
      <trkpt lat="44.88597" lon="6.80191">
        <ele>2208.77</ele>
        <time>2014-02-17T14:13:02Z</time>
      </trkpt>
      <trkpt lat="44.88601" lon="6.80216">
        <ele>2204.92</ele>
        <time>2014-02-17T14:13:08Z</time>
      </trkpt>
      <trkpt lat="44.88607" lon="6.80236">
        <ele>2202.04</ele>
        <time>2014-02-17T14:13:12Z</time>
      </trkpt>
      <trkpt lat="44.8861" lon="6.80244">
        <ele>2200.59</ele>
        <time>2014-02-17T14:13:15Z</time>
      </trkpt>
      <trkpt lat="44.88613" lon="6.80253">
        <ele>2200.11</ele>
        <time>2014-02-17T14:13:30Z</time>
      </trkpt>
      <trkpt lat="44.88614" lon="6.80253">
        <ele>2199.63</ele>
        <time>2014-02-17T14:13:50Z</time>
      </trkpt>
      <trkpt lat="44.88613" lon="6.80254">
        <ele>2199.15</ele>
        <time>2014-02-17T14:13:59Z</time>
      </trkpt>
      <trkpt lat="44.88614" lon="6.80262">
        <ele>2199.15</ele>
        <time>2014-02-17T14:14:03Z</time>
      </trkpt>
      <trkpt lat="44.8862" lon="6.80295">
        <ele>2195.79</ele>
        <time>2014-02-17T14:14:15Z</time>
      </trkpt>
      <trkpt lat="44.88623" lon="6.80325">
        <ele>2193.87</ele>
        <time>2014-02-17T14:14:29Z</time>
      </trkpt>
      <trkpt lat="44.88627" lon="6.80355">
        <ele>2191.94</ele>
        <time>2014-02-17T14:14:42Z</time>
      </trkpt>
      <trkpt lat="44.88629" lon="6.80367">
        <ele>2191.46</ele>
        <time>2014-02-17T14:14:47Z</time>
      </trkpt>
      <trkpt lat="44.88631" lon="6.80378">
        <ele>2190.98</ele>
        <time>2014-02-17T14:14:52Z</time>
      </trkpt>
      <trkpt lat="44.88632" lon="6.80401">
        <ele>2189.54</ele>
        <time>2014-02-17T14:15:02Z</time>
      </trkpt>
      <trkpt lat="44.88633" lon="6.80408">
        <ele>2189.06</ele>
        <time>2014-02-17T14:15:05Z</time>
      </trkpt>
      <trkpt lat="44.88635" lon="6.80426">
        <ele>2187.62</ele>
        <time>2014-02-17T14:15:14Z</time>
      </trkpt>
      <trkpt lat="44.88636" lon="6.80444">
        <ele>2185.69</ele>
        <time>2014-02-17T14:15:21Z</time>
      </trkpt>
      <trkpt lat="44.88635" lon="6.80462">
        <ele>2182.33</ele>
        <time>2014-02-17T14:15:26Z</time>
      </trkpt>
      <trkpt lat="44.88635" lon="6.80484">
        <ele>2181.37</ele>
        <time>2014-02-17T14:15:37Z</time>
      </trkpt>
      <trkpt lat="44.88637" lon="6.80518">
        <ele>2179.45</ele>
        <time>2014-02-17T14:15:51Z</time>
      </trkpt>
      <trkpt lat="44.88641" lon="6.80553">
        <ele>2176.56</ele>
        <time>2014-02-17T14:16:05Z</time>
      </trkpt>
      <trkpt lat="44.88642" lon="6.80568">
        <ele>2176.08</ele>
        <time>2014-02-17T14:16:12Z</time>
      </trkpt>
      <trkpt lat="44.88644" lon="6.80608">
        <ele>2173.68</ele>
        <time>2014-02-17T14:16:28Z</time>
      </trkpt>
      <trkpt lat="44.88646" lon="6.80638">
        <ele>2172.24</ele>
        <time>2014-02-17T14:16:41Z</time>
      </trkpt>
      <trkpt lat="44.88648" lon="6.80669">
        <ele>2171.27</ele>
        <time>2014-02-17T14:16:54Z</time>
      </trkpt>
      <trkpt lat="44.88647" lon="6.80687">
        <ele>2173.2</ele>
        <time>2014-02-17T14:17:08Z</time>
      </trkpt>
      <trkpt lat="44.8865" lon="6.80689">
        <ele>2173.68</ele>
        <time>2014-02-17T14:17:14Z</time>
      </trkpt>
      <trkpt lat="44.88652" lon="6.80701">
        <ele>2172.72</ele>
        <time>2014-02-17T14:17:25Z</time>
      </trkpt>
      <trkpt lat="44.88655" lon="6.80709">
        <ele>2171.27</ele>
        <time>2014-02-17T14:17:29Z</time>
      </trkpt>
      <trkpt lat="44.8866" lon="6.80729">
        <ele>2167.91</ele>
        <time>2014-02-17T14:17:33Z</time>
      </trkpt>
      <trkpt lat="44.88666" lon="6.80748">
        <ele>2164.55</ele>
        <time>2014-02-17T14:17:38Z</time>
      </trkpt>
      <trkpt lat="44.88667" lon="6.8075">
        <ele>2164.06</ele>
        <time>2014-02-17T14:17:39Z</time>
      </trkpt>
      <trkpt lat="44.88671" lon="6.80759">
        <ele>2163.58</ele>
        <time>2014-02-17T14:17:43Z</time>
      </trkpt>
      <trkpt lat="44.88672" lon="6.80764">
        <ele>2163.1</ele>
        <time>2014-02-17T14:17:46Z</time>
      </trkpt>
      <trkpt lat="44.88669" lon="6.80788">
        <ele>2162.14</ele>
        <time>2014-02-17T14:17:56Z</time>
      </trkpt>
      <trkpt lat="44.88669" lon="6.80813">
        <ele>2159.74</ele>
        <time>2014-02-17T14:18:08Z</time>
      </trkpt>
      <trkpt lat="44.88669" lon="6.80815">
        <ele>2159.26</ele>
        <time>2014-02-17T14:18:09Z</time>
      </trkpt>
      <trkpt lat="44.88671" lon="6.80823">
        <ele>2158.3</ele>
        <time>2014-02-17T14:18:13Z</time>
      </trkpt>
      <trkpt lat="44.88674" lon="6.80847">
        <ele>2156.37</ele>
        <time>2014-02-17T14:18:22Z</time>
      </trkpt>
      <trkpt lat="44.88678" lon="6.80869">
        <ele>2156.86</ele>
        <time>2014-02-17T14:18:34Z</time>
      </trkpt>
      <trkpt lat="44.88679" lon="6.80886">
        <ele>2155.89</ele>
        <time>2014-02-17T14:18:46Z</time>
      </trkpt>
      <trkpt lat="44.88681" lon="6.80888">
        <ele>2156.86</ele>
        <time>2014-02-17T14:18:49Z</time>
      </trkpt>
      <trkpt lat="44.88687" lon="6.80908">
        <ele>2156.37</ele>
        <time>2014-02-17T14:19:03Z</time>
      </trkpt>
      <trkpt lat="44.88693" lon="6.80932">
        <ele>2153.01</ele>
        <time>2014-02-17T14:19:13Z</time>
      </trkpt>
      <trkpt lat="44.88694" lon="6.80942">
        <ele>2152.53</ele>
        <time>2014-02-17T14:19:23Z</time>
      </trkpt>
      <trkpt lat="44.88697" lon="6.80941">
        <ele>2152.05</ele>
        <time>2014-02-17T14:19:38Z</time>
      </trkpt>
      <trkpt lat="44.88697" lon="6.80941">
        <ele>2153.49</ele>
        <time>2014-02-17T14:19:42Z</time>
      </trkpt>
      <trkpt lat="44.88703" lon="6.80941">
        <ele>2151.57</ele>
        <time>2014-02-17T14:19:49Z</time>
      </trkpt>
      <trkpt lat="44.88709" lon="6.80952">
        <ele>2147.72</ele>
        <time>2014-02-17T14:19:53Z</time>
      </trkpt>
      <trkpt lat="44.88715" lon="6.80961">
        <ele>2145.32</ele>
        <time>2014-02-17T14:19:56Z</time>
      </trkpt>
      <trkpt lat="44.88718" lon="6.80971">
        <ele>2145.32</ele>
        <time>2014-02-17T14:20:06Z</time>
      </trkpt>
      <trkpt lat="44.88714" lon="6.80976">
        <ele>2145.32</ele>
        <time>2014-02-17T14:20:24Z</time>
      </trkpt>
      <trkpt lat="44.88717" lon="6.80969">
        <ele>2144.36</ele>
        <time>2014-02-17T14:20:47Z</time>
      </trkpt>
      <trkpt lat="44.88717" lon="6.80968">
        <ele>2144.36</ele>
        <time>2014-02-17T14:21:13Z</time>
      </trkpt>
      <trkpt lat="44.88714" lon="6.80975">
        <ele>2144.36</ele>
        <time>2014-02-17T14:21:21Z</time>
      </trkpt>
      <trkpt lat="44.88716" lon="6.80996">
        <ele>2143.4</ele>
        <time>2014-02-17T14:21:35Z</time>
      </trkpt>
      <trkpt lat="44.88725" lon="6.81023">
        <ele>2140.99</ele>
        <time>2014-02-17T14:21:48Z</time>
      </trkpt>
      <trkpt lat="44.8873" lon="6.8104">
        <ele>2139.07</ele>
        <time>2014-02-17T14:21:56Z</time>
      </trkpt>
      <trkpt lat="44.88731" lon="6.81052">
        <ele>2137.15</ele>
        <time>2014-02-17T14:21:59Z</time>
      </trkpt>
      <trkpt lat="44.88732" lon="6.81086">
        <ele>2135.23</ele>
        <time>2014-02-17T14:22:10Z</time>
      </trkpt>
      <trkpt lat="44.88735" lon="6.81109">
        <ele>2135.71</ele>
        <time>2014-02-17T14:22:23Z</time>
      </trkpt>
      <trkpt lat="44.88736" lon="6.81116">
        <ele>2134.74</ele>
        <time>2014-02-17T14:22:26Z</time>
      </trkpt>
      <trkpt lat="44.88738" lon="6.81141">
        <ele>2133.78</ele>
        <time>2014-02-17T14:22:39Z</time>
      </trkpt>
      <trkpt lat="44.88741" lon="6.81167">
        <ele>2132.34</ele>
        <time>2014-02-17T14:22:52Z</time>
      </trkpt>
      <trkpt lat="44.88746" lon="6.81186">
        <ele>2131.86</ele>
        <time>2014-02-17T14:23:04Z</time>
      </trkpt>
      <trkpt lat="44.8875" lon="6.81197">
        <ele>2131.86</ele>
        <time>2014-02-17T14:23:13Z</time>
      </trkpt>
      <trkpt lat="44.88757" lon="6.81218">
        <ele>2131.86</ele>
        <time>2014-02-17T14:23:26Z</time>
      </trkpt>
      <trkpt lat="44.88766" lon="6.81239">
        <ele>2130.9</ele>
        <time>2014-02-17T14:23:40Z</time>
      </trkpt>
      <trkpt lat="44.88776" lon="6.81261">
        <ele>2129.46</ele>
        <time>2014-02-17T14:23:52Z</time>
      </trkpt>
      <trkpt lat="44.88789" lon="6.81284">
        <ele>2127.05</ele>
        <time>2014-02-17T14:24:05Z</time>
      </trkpt>
      <trkpt lat="44.88806" lon="6.81297">
        <ele>2125.13</ele>
        <time>2014-02-17T14:24:14Z</time>
      </trkpt>
      <trkpt lat="44.88821" lon="6.81312">
        <ele>2120.32</ele>
        <time>2014-02-17T14:24:18Z</time>
      </trkpt>
      <trkpt lat="44.88825" lon="6.81316">
        <ele>2120.32</ele>
        <time>2014-02-17T14:24:19Z</time>
      </trkpt>
      <trkpt lat="44.88835" lon="6.81326">
        <ele>2116.96</ele>
        <time>2014-02-17T14:24:22Z</time>
      </trkpt>
      <trkpt lat="44.88845" lon="6.81338">
        <ele>2113.6</ele>
        <time>2014-02-17T14:24:26Z</time>
      </trkpt>
      <trkpt lat="44.88848" lon="6.81343">
        <ele>2112.15</ele>
        <time>2014-02-17T14:24:29Z</time>
      </trkpt>
      <trkpt lat="44.88848" lon="6.81351">
        <ele>2111.67</ele>
        <time>2014-02-17T14:24:36Z</time>
      </trkpt>
      <trkpt lat="44.88842" lon="6.81361">
        <ele>2111.19</ele>
        <time>2014-02-17T14:24:48Z</time>
      </trkpt>
      <trkpt lat="44.88844" lon="6.81362">
        <ele>2111.67</ele>
        <time>2014-02-17T14:24:53Z</time>
      </trkpt>
      <trkpt lat="44.88855" lon="6.81362">
        <ele>2111.19</ele>
        <time>2014-02-17T14:25:04Z</time>
      </trkpt>
      <trkpt lat="44.88875" lon="6.81355">
        <ele>2109.27</ele>
        <time>2014-02-17T14:25:18Z</time>
      </trkpt>
      <trkpt lat="44.88895" lon="6.8135">
        <ele>2105.91</ele>
        <time>2014-02-17T14:25:30Z</time>
      </trkpt>
      <trkpt lat="44.88903" lon="6.81353">
        <ele>2106.39</ele>
        <time>2014-02-17T14:25:41Z</time>
      </trkpt>
      <trkpt lat="44.88904" lon="6.81353">
        <ele>2105.91</ele>
        <time>2014-02-17T14:25:52Z</time>
      </trkpt>
      <trkpt lat="44.88909" lon="6.81351">
        <ele>2105.42</ele>
        <time>2014-02-17T14:26:04Z</time>
      </trkpt>
      <trkpt lat="44.88911" lon="6.81352">
        <ele>2105.91</ele>
        <time>2014-02-17T14:26:06Z</time>
      </trkpt>
      <trkpt lat="44.8893" lon="6.81355">
        <ele>2104.46</ele>
        <time>2014-02-17T14:26:21Z</time>
      </trkpt>
      <trkpt lat="44.88948" lon="6.8136">
        <ele>2103.02</ele>
        <time>2014-02-17T14:26:35Z</time>
      </trkpt>
      <trkpt lat="44.88953" lon="6.81361">
        <ele>2103.02</ele>
        <time>2014-02-17T14:26:40Z</time>
      </trkpt>
      <trkpt lat="44.88968" lon="6.81373">
        <ele>2102.06</ele>
        <time>2014-02-17T14:26:55Z</time>
      </trkpt>
      <trkpt lat="44.88975" lon="6.8139">
        <ele>2101.1</ele>
        <time>2014-02-17T14:27:07Z</time>
      </trkpt>
      <trkpt lat="44.88982" lon="6.81407">
        <ele>2100.14</ele>
        <time>2014-02-17T14:27:20Z</time>
      </trkpt>
      <trkpt lat="44.88988" lon="6.81419">
        <ele>2100.62</ele>
        <time>2014-02-17T14:27:32Z</time>
      </trkpt>
      <trkpt lat="44.88998" lon="6.81439">
        <ele>2098.7</ele>
        <time>2014-02-17T14:27:44Z</time>
      </trkpt>
      <trkpt lat="44.89" lon="6.81445">
        <ele>2097.73</ele>
        <time>2014-02-17T14:27:48Z</time>
      </trkpt>
      <trkpt lat="44.89002" lon="6.81451">
        <ele>2098.21</ele>
        <time>2014-02-17T14:27:52Z</time>
      </trkpt>
      <trkpt lat="44.8901" lon="6.8147">
        <ele>2096.29</ele>
        <time>2014-02-17T14:28:05Z</time>
      </trkpt>
      <trkpt lat="44.8902" lon="6.81486">
        <ele>2095.33</ele>
        <time>2014-02-17T14:28:17Z</time>
      </trkpt>
      <trkpt lat="44.89031" lon="6.81504">
        <ele>2093.89</ele>
        <time>2014-02-17T14:28:30Z</time>
      </trkpt>
      <trkpt lat="44.89033" lon="6.81508">
        <ele>2094.85</ele>
        <time>2014-02-17T14:28:33Z</time>
      </trkpt>
      <trkpt lat="44.89044" lon="6.81522">
        <ele>2094.85</ele>
        <time>2014-02-17T14:28:49Z</time>
      </trkpt>
      <trkpt lat="44.89053" lon="6.81536">
        <ele>2095.33</ele>
        <time>2014-02-17T14:29:03Z</time>
      </trkpt>
      <trkpt lat="44.89062" lon="6.81549">
        <ele>2094.85</ele>
        <time>2014-02-17T14:29:17Z</time>
      </trkpt>
      <trkpt lat="44.89073" lon="6.81558">
        <ele>2094.37</ele>
        <time>2014-02-17T14:29:29Z</time>
      </trkpt>
      <trkpt lat="44.89086" lon="6.81571">
        <ele>2093.89</ele>
        <time>2014-02-17T14:29:45Z</time>
      </trkpt>
      <trkpt lat="44.89098" lon="6.81586">
        <ele>2093.41</ele>
        <time>2014-02-17T14:29:59Z</time>
      </trkpt>
      <trkpt lat="44.8911" lon="6.816">
        <ele>2092.45</ele>
        <time>2014-02-17T14:30:13Z</time>
      </trkpt>
      <trkpt lat="44.89121" lon="6.81614">
        <ele>2092.45</ele>
        <time>2014-02-17T14:30:26Z</time>
      </trkpt>
      <trkpt lat="44.89137" lon="6.81628">
        <ele>2089.56</ele>
        <time>2014-02-17T14:30:38Z</time>
      </trkpt>
      <trkpt lat="44.89146" lon="6.81635">
        <ele>2087.16</ele>
        <time>2014-02-17T14:30:44Z</time>
      </trkpt>
      <trkpt lat="44.89147" lon="6.81635">
        <ele>2087.16</ele>
        <time>2014-02-17T14:30:45Z</time>
      </trkpt>
      <trkpt lat="44.89148" lon="6.81636">
        <ele>2087.16</ele>
        <time>2014-02-17T14:30:46Z</time>
      </trkpt>
      <trkpt lat="44.8915" lon="6.81637">
        <ele>2087.16</ele>
        <time>2014-02-17T14:30:47Z</time>
      </trkpt>
      <trkpt lat="44.89151" lon="6.81637">
        <ele>2087.16</ele>
        <time>2014-02-17T14:30:48Z</time>
      </trkpt>
      <trkpt lat="44.89153" lon="6.81638">
        <ele>2087.16</ele>
        <time>2014-02-17T14:30:49Z</time>
      </trkpt>
      <trkpt lat="44.89154" lon="6.81638">
        <ele>2087.16</ele>
        <time>2014-02-17T14:30:50Z</time>
      </trkpt>
      <trkpt lat="44.89156" lon="6.81638">
        <ele>2087.16</ele>
        <time>2014-02-17T14:30:51Z</time>
      </trkpt>
      <trkpt lat="44.89158" lon="6.81639">
        <ele>2087.16</ele>
        <time>2014-02-17T14:30:52Z</time>
      </trkpt>
      <trkpt lat="44.89192" lon="6.81644">
        <ele>2084.76</ele>
        <time>2014-02-17T14:31:07Z</time>
      </trkpt>
      <trkpt lat="44.89207" lon="6.81645">
        <ele>2084.28</ele>
        <time>2014-02-17T14:31:16Z</time>
      </trkpt>
      <trkpt lat="44.89209" lon="6.81645">
        <ele>2084.28</ele>
        <time>2014-02-17T14:31:26Z</time>
      </trkpt>
      <trkpt lat="44.89207" lon="6.81645">
        <ele>2083.79</ele>
        <time>2014-02-17T14:31:55Z</time>
      </trkpt>
      <trkpt lat="44.89207" lon="6.81643">
        <ele>2084.76</ele>
        <time>2014-02-17T14:32:18Z</time>
      </trkpt>
      <trkpt lat="44.89208" lon="6.81643">
        <ele>2084.28</ele>
        <time>2014-02-17T14:32:39Z</time>
      </trkpt>
      <trkpt lat="44.89208" lon="6.81645">
        <ele>2084.76</ele>
        <time>2014-02-17T14:33:00Z</time>
      </trkpt>
      <trkpt lat="44.89209" lon="6.81646">
        <ele>2085.24</ele>
        <time>2014-02-17T14:33:18Z</time>
      </trkpt>
      <trkpt lat="44.89209" lon="6.81643">
        <ele>2084.76</ele>
        <time>2014-02-17T14:33:34Z</time>
      </trkpt>
      <trkpt lat="44.8921" lon="6.81645">
        <ele>2084.28</ele>
        <time>2014-02-17T14:33:52Z</time>
      </trkpt>
      <trkpt lat="44.89206" lon="6.81645">
        <ele>2084.76</ele>
        <time>2014-02-17T14:34:18Z</time>
      </trkpt>
      <trkpt lat="44.89213" lon="6.81649">
        <ele>2084.28</ele>
        <time>2014-02-17T14:34:29Z</time>
      </trkpt>
      <trkpt lat="44.89215" lon="6.81651">
        <ele>2083.31</ele>
        <time>2014-02-17T14:34:30Z</time>
      </trkpt>
      <trkpt lat="44.89216" lon="6.81654">
        <ele>2083.79</ele>
        <time>2014-02-17T14:34:31Z</time>
      </trkpt>
      <trkpt lat="44.89218" lon="6.81657">
        <ele>2083.31</ele>
        <time>2014-02-17T14:34:32Z</time>
      </trkpt>
      <trkpt lat="44.89219" lon="6.8166">
        <ele>2083.31</ele>
        <time>2014-02-17T14:34:33Z</time>
      </trkpt>
      <trkpt lat="44.8923" lon="6.81682">
        <ele>2079.95</ele>
        <time>2014-02-17T14:34:39Z</time>
      </trkpt>
      <trkpt lat="44.89245" lon="6.81697">
        <ele>2077.07</ele>
        <time>2014-02-17T14:34:44Z</time>
      </trkpt>
      <trkpt lat="44.8925" lon="6.81703">
        <ele>2076.1</ele>
        <time>2014-02-17T14:34:46Z</time>
      </trkpt>
      <trkpt lat="44.89273" lon="6.81739">
        <ele>2072.26</ele>
        <time>2014-02-17T14:34:59Z</time>
      </trkpt>
      <trkpt lat="44.89282" lon="6.81749">
        <ele>2069.86</ele>
        <time>2014-02-17T14:35:02Z</time>
      </trkpt>
      <trkpt lat="44.89292" lon="6.81758">
        <ele>2068.41</ele>
        <time>2014-02-17T14:35:05Z</time>
      </trkpt>
      <trkpt lat="44.89307" lon="6.81766">
        <ele>2065.05</ele>
        <time>2014-02-17T14:35:10Z</time>
      </trkpt>
      <trkpt lat="44.8931" lon="6.81768">
        <ele>2065.53</ele>
        <time>2014-02-17T14:35:11Z</time>
      </trkpt>
      <trkpt lat="44.89321" lon="6.81778">
        <ele>2061.68</ele>
        <time>2014-02-17T14:35:15Z</time>
      </trkpt>
      <trkpt lat="44.89327" lon="6.81784">
        <ele>2060.24</ele>
        <time>2014-02-17T14:35:17Z</time>
      </trkpt>
      <trkpt lat="44.8934" lon="6.81804">
        <ele>2056.88</ele>
        <time>2014-02-17T14:35:23Z</time>
      </trkpt>
      <trkpt lat="44.89342" lon="6.81808">
        <ele>2056.4</ele>
        <time>2014-02-17T14:35:24Z</time>
      </trkpt>
      <trkpt lat="44.89347" lon="6.8181">
        <ele>2055.44</ele>
        <time>2014-02-17T14:35:26Z</time>
      </trkpt>
      <trkpt lat="44.89356" lon="6.81806">
        <ele>2053.51</ele>
        <time>2014-02-17T14:35:29Z</time>
      </trkpt>
      <trkpt lat="44.89368" lon="6.81818">
        <ele>2048.71</ele>
        <time>2014-02-17T14:35:34Z</time>
      </trkpt>
      <trkpt lat="44.8938" lon="6.81823">
        <ele>2045.34</ele>
        <time>2014-02-17T14:35:38Z</time>
      </trkpt>
      <trkpt lat="44.89385" lon="6.81825">
        <ele>2043.9</ele>
        <time>2014-02-17T14:35:46Z</time>
      </trkpt>
      <trkpt lat="44.89387" lon="6.81827">
        <ele>2043.42</ele>
        <time>2014-02-17T14:35:52Z</time>
      </trkpt>
      <trkpt lat="44.894" lon="6.81843">
        <ele>2039.09</ele>
        <time>2014-02-17T14:35:59Z</time>
      </trkpt>
      <trkpt lat="44.89402" lon="6.81846">
        <ele>2038.61</ele>
        <time>2014-02-17T14:36:00Z</time>
      </trkpt>
      <trkpt lat="44.89404" lon="6.81849">
        <ele>2037.17</ele>
        <time>2014-02-17T14:36:01Z</time>
      </trkpt>
      <trkpt lat="44.89408" lon="6.81859">
        <ele>2035.25</ele>
        <time>2014-02-17T14:36:04Z</time>
      </trkpt>
      <trkpt lat="44.89409" lon="6.8186">
        <ele>2035.73</ele>
        <time>2014-02-17T14:36:05Z</time>
      </trkpt>
      <trkpt lat="44.8941" lon="6.81862">
        <ele>2034.77</ele>
        <time>2014-02-17T14:36:06Z</time>
      </trkpt>
      <trkpt lat="44.89421" lon="6.81876">
        <ele>2030.44</ele>
        <time>2014-02-17T14:36:13Z</time>
      </trkpt>
      <trkpt lat="44.89421" lon="6.81877">
        <ele>2029.96</ele>
        <time>2014-02-17T14:36:14Z</time>
      </trkpt>
      <trkpt lat="44.89422" lon="6.8188">
        <ele>2029.48</ele>
        <time>2014-02-17T14:36:15Z</time>
      </trkpt>
      <trkpt lat="44.89424" lon="6.81883">
        <ele>2028.52</ele>
        <time>2014-02-17T14:36:16Z</time>
      </trkpt>
      <trkpt lat="44.89427" lon="6.81887">
        <ele>2028.04</ele>
        <time>2014-02-17T14:36:17Z</time>
      </trkpt>
      <trkpt lat="44.8943" lon="6.81892">
        <ele>2027.08</ele>
        <time>2014-02-17T14:36:18Z</time>
      </trkpt>
      <trkpt lat="44.89443" lon="6.81912">
        <ele>2022.75</ele>
        <time>2014-02-17T14:36:23Z</time>
      </trkpt>
      <trkpt lat="44.89446" lon="6.81916">
        <ele>2021.31</ele>
        <time>2014-02-17T14:36:24Z</time>
      </trkpt>
      <trkpt lat="44.8945" lon="6.81919">
        <ele>2020.35</ele>
        <time>2014-02-17T14:36:25Z</time>
      </trkpt>
      <trkpt lat="44.89465" lon="6.81928">
        <ele>2015.54</ele>
        <time>2014-02-17T14:36:29Z</time>
      </trkpt>
      <trkpt lat="44.8948" lon="6.81947">
        <ele>2012.18</ele>
        <time>2014-02-17T14:36:35Z</time>
      </trkpt>
      <trkpt lat="44.89486" lon="6.81956">
        <ele>2010.73</ele>
        <time>2014-02-17T14:36:37Z</time>
      </trkpt>
      <trkpt lat="44.8949" lon="6.8196">
        <ele>2010.73</ele>
        <time>2014-02-17T14:36:38Z</time>
      </trkpt>
      <trkpt lat="44.89501" lon="6.81974">
        <ele>2008.33</ele>
        <time>2014-02-17T14:36:41Z</time>
      </trkpt>
      <trkpt lat="44.89505" lon="6.8198">
        <ele>2007.85</ele>
        <time>2014-02-17T14:36:42Z</time>
      </trkpt>
      <trkpt lat="44.89518" lon="6.82004">
        <ele>2004.01</ele>
        <time>2014-02-17T14:36:46Z</time>
      </trkpt>
      <trkpt lat="44.89521" lon="6.82008">
        <ele>2003.52</ele>
        <time>2014-02-17T14:36:47Z</time>
      </trkpt>
      <trkpt lat="44.89529" lon="6.82017">
        <ele>2001.12</ele>
        <time>2014-02-17T14:36:50Z</time>
      </trkpt>
      <trkpt lat="44.89545" lon="6.82034">
        <ele>1997.76</ele>
        <time>2014-02-17T14:36:56Z</time>
      </trkpt>
      <trkpt lat="44.89548" lon="6.82038">
        <ele>1997.28</ele>
        <time>2014-02-17T14:36:57Z</time>
      </trkpt>
      <trkpt lat="44.89554" lon="6.82045">
        <ele>1996.32</ele>
        <time>2014-02-17T14:36:59Z</time>
      </trkpt>
      <trkpt lat="44.8956" lon="6.82054">
        <ele>1994.39</ele>
        <time>2014-02-17T14:37:02Z</time>
      </trkpt>
      <trkpt lat="44.89567" lon="6.82067">
        <ele>1992.95</ele>
        <time>2014-02-17T14:37:05Z</time>
      </trkpt>
      <trkpt lat="44.89573" lon="6.82078">
        <ele>1992.47</ele>
        <time>2014-02-17T14:37:07Z</time>
      </trkpt>
      <trkpt lat="44.89578" lon="6.82085">
        <ele>1991.99</ele>
        <time>2014-02-17T14:37:08Z</time>
      </trkpt>
      <trkpt lat="44.89582" lon="6.82091">
        <ele>1991.03</ele>
        <time>2014-02-17T14:37:09Z</time>
      </trkpt>
      <trkpt lat="44.89591" lon="6.82106">
        <ele>1989.59</ele>
        <time>2014-02-17T14:37:11Z</time>
      </trkpt>
      <trkpt lat="44.89603" lon="6.8213">
        <ele>1986.22</ele>
        <time>2014-02-17T14:37:14Z</time>
      </trkpt>
      <trkpt lat="44.89607" lon="6.82136">
        <ele>1986.22</ele>
        <time>2014-02-17T14:37:15Z</time>
      </trkpt>
      <trkpt lat="44.89617" lon="6.82148">
        <ele>1984.78</ele>
        <time>2014-02-17T14:37:17Z</time>
      </trkpt>
      <trkpt lat="44.89622" lon="6.82153">
        <ele>1983.82</ele>
        <time>2014-02-17T14:37:18Z</time>
      </trkpt>
      <trkpt lat="44.89627" lon="6.82157">
        <ele>1982.86</ele>
        <time>2014-02-17T14:37:19Z</time>
      </trkpt>
      <trkpt lat="44.89632" lon="6.82159">
        <ele>1982.86</ele>
        <time>2014-02-17T14:37:20Z</time>
      </trkpt>
      <trkpt lat="44.89638" lon="6.82161">
        <ele>1981.9</ele>
        <time>2014-02-17T14:37:21Z</time>
      </trkpt>
      <trkpt lat="44.89644" lon="6.82162">
        <ele>1981.41</ele>
        <time>2014-02-17T14:37:22Z</time>
      </trkpt>
      <trkpt lat="44.89656" lon="6.82165">
        <ele>1978.53</ele>
        <time>2014-02-17T14:37:24Z</time>
      </trkpt>
      <trkpt lat="44.89662" lon="6.82165">
        <ele>1977.57</ele>
        <time>2014-02-17T14:37:25Z</time>
      </trkpt>
      <trkpt lat="44.89669" lon="6.82164">
        <ele>1977.57</ele>
        <time>2014-02-17T14:37:26Z</time>
      </trkpt>
      <trkpt lat="44.89675" lon="6.82161">
        <ele>1976.61</ele>
        <time>2014-02-17T14:37:27Z</time>
      </trkpt>
      <trkpt lat="44.89682" lon="6.82158">
        <ele>1975.17</ele>
        <time>2014-02-17T14:37:28Z</time>
      </trkpt>
      <trkpt lat="44.89689" lon="6.82156">
        <ele>1974.2</ele>
        <time>2014-02-17T14:37:29Z</time>
      </trkpt>
      <trkpt lat="44.89713" lon="6.82148">
        <ele>1970.84</ele>
        <time>2014-02-17T14:37:32Z</time>
      </trkpt>
      <trkpt lat="44.89728" lon="6.82147">
        <ele>1968.44</ele>
        <time>2014-02-17T14:37:34Z</time>
      </trkpt>
      <trkpt lat="44.89734" lon="6.82152">
        <ele>1966.99</ele>
        <time>2014-02-17T14:37:35Z</time>
      </trkpt>
      <trkpt lat="44.89739" lon="6.82158">
        <ele>1967.48</ele>
        <time>2014-02-17T14:37:36Z</time>
      </trkpt>
      <trkpt lat="44.89753" lon="6.82183">
        <ele>1964.59</ele>
        <time>2014-02-17T14:37:40Z</time>
      </trkpt>
      <trkpt lat="44.89755" lon="6.8219">
        <ele>1965.07</ele>
        <time>2014-02-17T14:37:41Z</time>
      </trkpt>
      <trkpt lat="44.89764" lon="6.82216">
        <ele>1963.15</ele>
        <time>2014-02-17T14:37:45Z</time>
      </trkpt>
      <trkpt lat="44.89771" lon="6.82233">
        <ele>1963.15</ele>
        <time>2014-02-17T14:37:52Z</time>
      </trkpt>
      <trkpt lat="44.89784" lon="6.82266">
        <ele>1961.23</ele>
        <time>2014-02-17T14:38:03Z</time>
      </trkpt>
      <trkpt lat="44.89789" lon="6.82276">
        <ele>1960.27</ele>
        <time>2014-02-17T14:38:05Z</time>
      </trkpt>
      <trkpt lat="44.89802" lon="6.82316">
        <ele>1959.3</ele>
        <time>2014-02-17T14:38:16Z</time>
      </trkpt>
      <trkpt lat="44.89813" lon="6.82347">
        <ele>1955.94</ele>
        <time>2014-02-17T14:38:25Z</time>
      </trkpt>
      <trkpt lat="44.89815" lon="6.82353">
        <ele>1955.94</ele>
        <time>2014-02-17T14:38:26Z</time>
      </trkpt>
      <trkpt lat="44.89821" lon="6.82379">
        <ele>1953.06</ele>
        <time>2014-02-17T14:38:31Z</time>
      </trkpt>
      <trkpt lat="44.89829" lon="6.82396">
        <ele>1952.57</ele>
        <time>2014-02-17T14:38:41Z</time>
      </trkpt>
      <trkpt lat="44.8984" lon="6.82421">
        <ele>1950.65</ele>
        <time>2014-02-17T14:38:53Z</time>
      </trkpt>
      <trkpt lat="44.89839" lon="6.82424">
        <ele>1950.17</ele>
        <time>2014-02-17T14:39:02Z</time>
      </trkpt>
      <trkpt lat="44.89849" lon="6.82448">
        <ele>1947.29</ele>
        <time>2014-02-17T14:39:09Z</time>
      </trkpt>
      <trkpt lat="44.89853" lon="6.82455">
        <ele>1946.33</ele>
        <time>2014-02-17T14:39:11Z</time>
      </trkpt>
      <trkpt lat="44.89859" lon="6.82462">
        <ele>1944.88</ele>
        <time>2014-02-17T14:39:13Z</time>
      </trkpt>
      <trkpt lat="44.89863" lon="6.82463">
        <ele>1943.92</ele>
        <time>2014-02-17T14:39:15Z</time>
      </trkpt>
      <trkpt lat="44.89865" lon="6.82466">
        <ele>1943.44</ele>
        <time>2014-02-17T14:39:25Z</time>
      </trkpt>
      <trkpt lat="44.89864" lon="6.82468">
        <ele>1943.44</ele>
        <time>2014-02-17T14:39:43Z</time>
      </trkpt>
      <trkpt lat="44.89865" lon="6.82472">
        <ele>1943.44</ele>
        <time>2014-02-17T14:40:03Z</time>
      </trkpt>
      <trkpt lat="44.89863" lon="6.82465">
        <ele>1943.92</ele>
        <time>2014-02-17T14:40:39Z</time>
      </trkpt>
      <trkpt lat="44.89879" lon="6.82466">
        <ele>1941.04</ele>
        <time>2014-02-17T14:40:48Z</time>
      </trkpt>
      <trkpt lat="44.89881" lon="6.82467">
        <ele>1940.56</ele>
        <time>2014-02-17T14:40:49Z</time>
      </trkpt>
      <trkpt lat="44.89899" lon="6.82478">
        <ele>1937.19</ele>
        <time>2014-02-17T14:40:55Z</time>
      </trkpt>
      <trkpt lat="44.89908" lon="6.82482">
        <ele>1934.79</ele>
        <time>2014-02-17T14:40:57Z</time>
      </trkpt>
      <trkpt lat="44.89915" lon="6.82485">
        <ele>1933.83</ele>
        <time>2014-02-17T14:41:01Z</time>
      </trkpt>
      <trkpt lat="44.89932" lon="6.82491">
        <ele>1932.39</ele>
        <time>2014-02-17T14:41:12Z</time>
      </trkpt>
      <trkpt lat="44.89955" lon="6.82501">
        <ele>1928.54</ele>
        <time>2014-02-17T14:41:21Z</time>
      </trkpt>
      <trkpt lat="44.8997" lon="6.82516">
        <ele>1925.66</ele>
        <time>2014-02-17T14:41:29Z</time>
      </trkpt>
      <trkpt lat="44.89973" lon="6.82519">
        <ele>1925.66</ele>
        <time>2014-02-17T14:41:30Z</time>
      </trkpt>
      <trkpt lat="44.89982" lon="6.82535">
        <ele>1922.77</ele>
        <time>2014-02-17T14:41:35Z</time>
      </trkpt>
      <trkpt lat="44.89998" lon="6.82545">
        <ele>1919.41</ele>
        <time>2014-02-17T14:41:40Z</time>
      </trkpt>
      <trkpt lat="44.90007" lon="6.82549">
        <ele>1917.49</ele>
        <time>2014-02-17T14:41:43Z</time>
      </trkpt>
      <trkpt lat="44.90011" lon="6.82551">
        <ele>1917.97</ele>
        <time>2014-02-17T14:41:52Z</time>
      </trkpt>
      <trkpt lat="44.90012" lon="6.82552">
        <ele>1918.45</ele>
        <time>2014-02-17T14:42:05Z</time>
      </trkpt>
      <trkpt lat="44.90012" lon="6.82553">
        <ele>1918.45</ele>
        <time>2014-02-17T14:42:32Z</time>
      </trkpt>
      <trkpt lat="44.90013" lon="6.82552">
        <ele>1918.93</ele>
        <time>2014-02-17T14:42:50Z</time>
      </trkpt>
      <trkpt lat="44.90014" lon="6.82555">
        <ele>1918.45</ele>
        <time>2014-02-17T14:43:10Z</time>
      </trkpt>
      <trkpt lat="44.90014" lon="6.82554">
        <ele>1918.45</ele>
        <time>2014-02-17T14:43:31Z</time>
      </trkpt>
      <trkpt lat="44.90016" lon="6.82554">
        <ele>1918.45</ele>
        <time>2014-02-17T14:43:54Z</time>
      </trkpt>
      <trkpt lat="44.90016" lon="6.82556">
        <ele>1918.45</ele>
        <time>2014-02-17T14:44:25Z</time>
      </trkpt>
      <trkpt lat="44.90016" lon="6.82556">
        <ele>1918.45</ele>
        <time>2014-02-17T14:44:41Z</time>
      </trkpt>
      <trkpt lat="44.90014" lon="6.82555">
        <ele>1918.45</ele>
        <time>2014-02-17T14:45:06Z</time>
      </trkpt>
      <trkpt lat="44.90016" lon="6.82555">
        <ele>1917.97</ele>
        <time>2014-02-17T14:45:27Z</time>
      </trkpt>
      <trkpt lat="44.90015" lon="6.82554">
        <ele>1917.49</ele>
        <time>2014-02-17T14:45:47Z</time>
      </trkpt>
      <trkpt lat="44.90013" lon="6.82553">
        <ele>1918.93</ele>
        <time>2014-02-17T14:46:08Z</time>
      </trkpt>
      <trkpt lat="44.90013" lon="6.82551">
        <ele>1917.97</ele>
        <time>2014-02-17T14:46:31Z</time>
      </trkpt>
      <trkpt lat="44.90013" lon="6.82552">
        <ele>1917.97</ele>
        <time>2014-02-17T14:46:53Z</time>
      </trkpt>
      <trkpt lat="44.90016" lon="6.82555">
        <ele>1917.97</ele>
        <time>2014-02-17T14:47:18Z</time>
      </trkpt>
      <trkpt lat="44.90015" lon="6.82553">
        <ele>1917.49</ele>
        <time>2014-02-17T14:47:32Z</time>
      </trkpt>
      <trkpt lat="44.90013" lon="6.82555">
        <ele>1917.49</ele>
        <time>2014-02-17T14:47:53Z</time>
      </trkpt>
      <trkpt lat="44.90015" lon="6.82554">
        <ele>1917.97</ele>
        <time>2014-02-17T14:48:13Z</time>
      </trkpt>
      <trkpt lat="44.90014" lon="6.82552">
        <ele>1917.49</ele>
        <time>2014-02-17T14:48:34Z</time>
      </trkpt>
      <trkpt lat="44.90016" lon="6.82551">
        <ele>1918.45</ele>
        <time>2014-02-17T14:48:41Z</time>
      </trkpt>
      <trkpt lat="44.90025" lon="6.82537">
        <ele>1915.08</ele>
        <time>2014-02-17T14:48:46Z</time>
      </trkpt>
      <trkpt lat="44.90028" lon="6.82533">
        <ele>1914.12</ele>
        <time>2014-02-17T14:48:47Z</time>
      </trkpt>
      <trkpt lat="44.9003" lon="6.8253">
        <ele>1913.64</ele>
        <time>2014-02-17T14:48:48Z</time>
      </trkpt>
      <trkpt lat="44.90035" lon="6.82531">
        <ele>1912.2</ele>
        <time>2014-02-17T14:48:50Z</time>
      </trkpt>
      <trkpt lat="44.90037" lon="6.82534">
        <ele>1910.28</ele>
        <time>2014-02-17T14:48:51Z</time>
      </trkpt>
      <trkpt lat="44.90038" lon="6.82538">
        <ele>1910.28</ele>
        <time>2014-02-17T14:48:52Z</time>
      </trkpt>
      <trkpt lat="44.9004" lon="6.82539">
        <ele>1909.8</ele>
        <time>2014-02-17T14:48:53Z</time>
      </trkpt>
      <trkpt lat="44.90042" lon="6.82539">
        <ele>1909.32</ele>
        <time>2014-02-17T14:48:54Z</time>
      </trkpt>
      <trkpt lat="44.90048" lon="6.82535">
        <ele>1908.35</ele>
        <time>2014-02-17T14:48:56Z</time>
      </trkpt>
      <trkpt lat="44.90059" lon="6.82544">
        <ele>1903.07</ele>
        <time>2014-02-17T14:49:00Z</time>
      </trkpt>
      <trkpt lat="44.90068" lon="6.82553">
        <ele>1901.14</ele>
        <time>2014-02-17T14:49:03Z</time>
      </trkpt>
      <trkpt lat="44.90085" lon="6.82553">
        <ele>1896.34</ele>
        <time>2014-02-17T14:49:08Z</time>
      </trkpt>
      <trkpt lat="44.90086" lon="6.82554">
        <ele>1896.34</ele>
        <time>2014-02-17T14:49:09Z</time>
      </trkpt>
      <trkpt lat="44.9009" lon="6.82558">
        <ele>1896.34</ele>
        <time>2014-02-17T14:49:14Z</time>
      </trkpt>
      <trkpt lat="44.90093" lon="6.82564">
        <ele>1896.34</ele>
        <time>2014-02-17T14:49:27Z</time>
      </trkpt>
      <trkpt lat="44.90094" lon="6.82565">
        <ele>1896.82</ele>
        <time>2014-02-17T14:49:29Z</time>
      </trkpt>
      <trkpt lat="44.90108" lon="6.82578">
        <ele>1892.97</ele>
        <time>2014-02-17T14:49:39Z</time>
      </trkpt>
      <trkpt lat="44.90125" lon="6.82596">
        <ele>1891.05</ele>
        <time>2014-02-17T14:49:50Z</time>
      </trkpt>
      <trkpt lat="44.90132" lon="6.82605">
        <ele>1890.09</ele>
        <time>2014-02-17T14:50:01Z</time>
      </trkpt>
      <trkpt lat="44.90133" lon="6.82607">
        <ele>1890.09</ele>
        <time>2014-02-17T14:50:15Z</time>
      </trkpt>
      <trkpt lat="44.90133" lon="6.82607">
        <ele>1890.57</ele>
        <time>2014-02-17T14:50:26Z</time>
      </trkpt>
      <trkpt lat="44.90133" lon="6.82608">
        <ele>1890.09</ele>
        <time>2014-02-17T14:50:44Z</time>
      </trkpt>
      <trkpt lat="44.90135" lon="6.82611">
        <ele>1889.13</ele>
        <time>2014-02-17T14:50:50Z</time>
      </trkpt>
      <trkpt lat="44.90136" lon="6.82617">
        <ele>1888.65</ele>
        <time>2014-02-17T14:50:54Z</time>
      </trkpt>
      <trkpt lat="44.90146" lon="6.82633">
        <ele>1886.24</ele>
        <time>2014-02-17T14:51:05Z</time>
      </trkpt>
      <trkpt lat="44.90153" lon="6.82645">
        <ele>1884.8</ele>
        <time>2014-02-17T14:51:08Z</time>
      </trkpt>
      <trkpt lat="44.90165" lon="6.82661">
        <ele>1880.96</ele>
        <time>2014-02-17T14:51:13Z</time>
      </trkpt>
      <trkpt lat="44.90167" lon="6.82665">
        <ele>1880.96</ele>
        <time>2014-02-17T14:51:14Z</time>
      </trkpt>
      <trkpt lat="44.9017" lon="6.82671">
        <ele>1880.48</ele>
        <time>2014-02-17T14:51:16Z</time>
      </trkpt>
      <trkpt lat="44.9017" lon="6.82685">
        <ele>1877.59</ele>
        <time>2014-02-17T14:51:20Z</time>
      </trkpt>
      <trkpt lat="44.90171" lon="6.82686">
        <ele>1875.19</ele>
        <time>2014-02-17T14:51:23Z</time>
      </trkpt>
      <trkpt lat="44.90173" lon="6.82688">
        <ele>1876.63</ele>
        <time>2014-02-17T14:51:43Z</time>
      </trkpt>
      <trkpt lat="44.90172" lon="6.82689">
        <ele>1875.19</ele>
        <time>2014-02-17T14:51:46Z</time>
      </trkpt>
      <trkpt lat="44.90172" lon="6.8269">
        <ele>1877.11</ele>
        <time>2014-02-17T14:51:56Z</time>
      </trkpt>
      <trkpt lat="44.90171" lon="6.82688">
        <ele>1876.63</ele>
        <time>2014-02-17T14:52:13Z</time>
      </trkpt>
      <trkpt lat="44.90171" lon="6.82689">
        <ele>1877.11</ele>
        <time>2014-02-17T14:52:23Z</time>
      </trkpt>
      <trkpt lat="44.90175" lon="6.82697">
        <ele>1875.67</ele>
        <time>2014-02-17T14:52:28Z</time>
      </trkpt>
      <trkpt lat="44.90171" lon="6.8271">
        <ele>1873.75</ele>
        <time>2014-02-17T14:52:32Z</time>
      </trkpt>
      <trkpt lat="44.90173" lon="6.82721">
        <ele>1871.82</ele>
        <time>2014-02-17T14:52:38Z</time>
      </trkpt>
      <trkpt lat="44.90184" lon="6.82724">
        <ele>1869.42</ele>
        <time>2014-02-17T14:52:43Z</time>
      </trkpt>
      <trkpt lat="44.90186" lon="6.82729">
        <ele>1866.06</ele>
        <time>2014-02-17T14:52:47Z</time>
      </trkpt>
      <trkpt lat="44.90188" lon="6.8273">
        <ele>1866.54</ele>
        <time>2014-02-17T14:52:54Z</time>
      </trkpt>
      <trkpt lat="44.90186" lon="6.82729">
        <ele>1866.54</ele>
        <time>2014-02-17T14:53:10Z</time>
      </trkpt>
      <trkpt lat="44.90186" lon="6.82733">
        <ele>1866.54</ele>
        <time>2014-02-17T14:53:25Z</time>
      </trkpt>
      <trkpt lat="44.90187" lon="6.82733">
        <ele>1866.06</ele>
        <time>2014-02-17T14:53:29Z</time>
      </trkpt>
      <trkpt lat="44.90168" lon="6.82738">
        <ele>1862.69</ele>
        <time>2014-02-17T14:53:38Z</time>
      </trkpt>
      <trkpt lat="44.9016" lon="6.82743">
        <ele>1859.33</ele>
        <time>2014-02-17T14:53:42Z</time>
      </trkpt>
      <trkpt lat="44.90152" lon="6.8276">
        <ele>1855.96</ele>
        <time>2014-02-17T14:53:47Z</time>
      </trkpt>
      <trkpt lat="44.90151" lon="6.82765">
        <ele>1855</ele>
        <time>2014-02-17T14:53:51Z</time>
      </trkpt>
      <trkpt lat="44.90161" lon="6.82777">
        <ele>1851.64</ele>
        <time>2014-02-17T14:53:55Z</time>
      </trkpt>
      <trkpt lat="44.90166" lon="6.82782">
        <ele>1850.68</ele>
        <time>2014-02-17T14:53:57Z</time>
      </trkpt>
      <trkpt lat="44.90174" lon="6.8279">
        <ele>1849.71</ele>
        <time>2014-02-17T14:54:07Z</time>
      </trkpt>
      <trkpt lat="44.90184" lon="6.82796">
        <ele>1848.27</ele>
        <time>2014-02-17T14:54:12Z</time>
      </trkpt>
      <trkpt lat="44.90194" lon="6.82791">
        <ele>1845.39</ele>
        <time>2014-02-17T14:54:15Z</time>
      </trkpt>
      <trkpt lat="44.90198" lon="6.8279">
        <ele>1844.91</ele>
        <time>2014-02-17T14:54:16Z</time>
      </trkpt>
      <trkpt lat="44.90202" lon="6.82791">
        <ele>1843.47</ele>
        <time>2014-02-17T14:54:17Z</time>
      </trkpt>
      <trkpt lat="44.90205" lon="6.82793">
        <ele>1842.5</ele>
        <time>2014-02-17T14:54:18Z</time>
      </trkpt>
      <trkpt lat="44.90208" lon="6.82795">
        <ele>1841.54</ele>
        <time>2014-02-17T14:54:19Z</time>
      </trkpt>
      <trkpt lat="44.90211" lon="6.82797">
        <ele>1841.54</ele>
        <time>2014-02-17T14:54:20Z</time>
      </trkpt>
      <trkpt lat="44.90222" lon="6.82806">
        <ele>1839.62</ele>
        <time>2014-02-17T14:54:30Z</time>
      </trkpt>
      <trkpt lat="44.90228" lon="6.82808">
        <ele>1838.18</ele>
        <time>2014-02-17T14:54:35Z</time>
      </trkpt>
      <trkpt lat="44.90234" lon="6.82809">
        <ele>1837.7</ele>
        <time>2014-02-17T14:54:42Z</time>
      </trkpt>
      <trkpt lat="44.90235" lon="6.82809">
        <ele>1837.7</ele>
        <time>2014-02-17T14:54:43Z</time>
      </trkpt>
      <trkpt lat="44.90237" lon="6.82809">
        <ele>1837.7</ele>
        <time>2014-02-17T14:54:44Z</time>
      </trkpt>
      <trkpt lat="44.90239" lon="6.82809">
        <ele>1836.74</ele>
        <time>2014-02-17T14:54:45Z</time>
      </trkpt>
      <trkpt lat="44.90242" lon="6.82809">
        <ele>1836.74</ele>
        <time>2014-02-17T14:54:46Z</time>
      </trkpt>
      <trkpt lat="44.90254" lon="6.82811">
        <ele>1833.85</ele>
        <time>2014-02-17T14:54:50Z</time>
      </trkpt>
      <trkpt lat="44.90256" lon="6.8281">
        <ele>1833.85</ele>
        <time>2014-02-17T14:54:51Z</time>
      </trkpt>
      <trkpt lat="44.90266" lon="6.82811">
        <ele>1830.49</ele>
        <time>2014-02-17T14:54:55Z</time>
      </trkpt>
      <trkpt lat="44.90272" lon="6.82813">
        <ele>1827.12</ele>
        <time>2014-02-17T14:54:59Z</time>
      </trkpt>
      <trkpt lat="44.90272" lon="6.82816">
        <ele>1826.64</ele>
        <time>2014-02-17T14:55:05Z</time>
      </trkpt>
      <trkpt lat="44.90269" lon="6.82826">
        <ele>1825.68</ele>
        <time>2014-02-17T14:55:09Z</time>
      </trkpt>
      <trkpt lat="44.90267" lon="6.82833">
        <ele>1824.24</ele>
        <time>2014-02-17T14:55:11Z</time>
      </trkpt>
      <trkpt lat="44.90263" lon="6.82841">
        <ele>1820.87</ele>
        <time>2014-02-17T14:55:18Z</time>
      </trkpt>
      <trkpt lat="44.90263" lon="6.82841">
        <ele>1821.35</ele>
        <time>2014-02-17T14:55:19Z</time>
      </trkpt>
      <trkpt lat="44.9027" lon="6.82847">
        <ele>1817.03</ele>
        <time>2014-02-17T14:55:23Z</time>
      </trkpt>
      <trkpt lat="44.90274" lon="6.82847">
        <ele>1815.59</ele>
        <time>2014-02-17T14:55:26Z</time>
      </trkpt>
      <trkpt lat="44.90275" lon="6.82849">
        <ele>1815.59</ele>
        <time>2014-02-17T14:55:31Z</time>
      </trkpt>
      <trkpt lat="44.90277" lon="6.82855">
        <ele>1813.18</ele>
        <time>2014-02-17T14:55:34Z</time>
      </trkpt>
      <trkpt lat="44.90275" lon="6.8286">
        <ele>1811.26</ele>
        <time>2014-02-17T14:55:40Z</time>
      </trkpt>
      <trkpt lat="44.9027" lon="6.82873">
        <ele>1809.82</ele>
        <time>2014-02-17T14:55:45Z</time>
      </trkpt>
      <trkpt lat="44.90273" lon="6.82878">
        <ele>1806.94</ele>
        <time>2014-02-17T14:55:49Z</time>
      </trkpt>
      <trkpt lat="44.90274" lon="6.82879">
        <ele>1806.45</ele>
        <time>2014-02-17T14:55:50Z</time>
      </trkpt>
      <trkpt lat="44.90279" lon="6.82881">
        <ele>1805.49</ele>
        <time>2014-02-17T14:55:54Z</time>
      </trkpt>
      <trkpt lat="44.90284" lon="6.82883">
        <ele>1803.09</ele>
        <time>2014-02-17T14:56:01Z</time>
      </trkpt>
      <trkpt lat="44.90281" lon="6.82894">
        <ele>1802.61</ele>
        <time>2014-02-17T14:56:10Z</time>
      </trkpt>
      <trkpt lat="44.9028" lon="6.82897">
        <ele>1802.13</ele>
        <time>2014-02-17T14:56:12Z</time>
      </trkpt>
      <trkpt lat="44.90274" lon="6.82908">
        <ele>1799.73</ele>
        <time>2014-02-17T14:56:18Z</time>
      </trkpt>
      <trkpt lat="44.90266" lon="6.82918">
        <ele>1799.73</ele>
        <time>2014-02-17T14:56:29Z</time>
      </trkpt>
      <trkpt lat="44.90265" lon="6.82919">
        <ele>1799.73</ele>
        <time>2014-02-17T14:56:30Z</time>
      </trkpt>
      <trkpt lat="44.90275" lon="6.82919">
        <ele>1796.36</ele>
        <time>2014-02-17T14:56:36Z</time>
      </trkpt>
      <trkpt lat="44.90281" lon="6.82917">
        <ele>1794.92</ele>
        <time>2014-02-17T14:56:41Z</time>
      </trkpt>
      <trkpt lat="44.90288" lon="6.82918">
        <ele>1793</ele>
        <time>2014-02-17T14:56:45Z</time>
      </trkpt>
      <trkpt lat="44.90295" lon="6.82915">
        <ele>1791.07</ele>
        <time>2014-02-17T14:56:50Z</time>
      </trkpt>
      <trkpt lat="44.90305" lon="6.82912">
        <ele>1789.15</ele>
        <time>2014-02-17T14:56:57Z</time>
      </trkpt>
      <trkpt lat="44.90315" lon="6.82906">
        <ele>1785.31</ele>
        <time>2014-02-17T14:57:01Z</time>
      </trkpt>
      <trkpt lat="44.90318" lon="6.82904">
        <ele>1783.86</ele>
        <time>2014-02-17T14:57:04Z</time>
      </trkpt>
      <trkpt lat="44.90319" lon="6.82906">
        <ele>1783.86</ele>
        <time>2014-02-17T14:57:05Z</time>
      </trkpt>
      <trkpt lat="44.9032" lon="6.82916">
        <ele>1782.9</ele>
        <time>2014-02-17T14:57:09Z</time>
      </trkpt>
      <trkpt lat="44.90319" lon="6.82919">
        <ele>1781.94</ele>
        <time>2014-02-17T14:57:10Z</time>
      </trkpt>
      <trkpt lat="44.9032" lon="6.82923">
        <ele>1780.5</ele>
        <time>2014-02-17T14:57:12Z</time>
      </trkpt>
      <trkpt lat="44.90323" lon="6.82925">
        <ele>1778.58</ele>
        <time>2014-02-17T14:57:15Z</time>
      </trkpt>
      <trkpt lat="44.90323" lon="6.82924">
        <ele>1778.58</ele>
        <time>2014-02-17T14:57:30Z</time>
      </trkpt>
      <trkpt lat="44.90326" lon="6.82928">
        <ele>1777.61</ele>
        <time>2014-02-17T14:57:33Z</time>
      </trkpt>
      <trkpt lat="44.90335" lon="6.82939">
        <ele>1774.25</ele>
        <time>2014-02-17T14:57:45Z</time>
      </trkpt>
      <trkpt lat="44.90337" lon="6.82942">
        <ele>1773.77</ele>
        <time>2014-02-17T14:57:51Z</time>
      </trkpt>
      <trkpt lat="44.90337" lon="6.82947">
        <ele>1773.29</ele>
        <time>2014-02-17T14:58:01Z</time>
      </trkpt>
      <trkpt lat="44.90333" lon="6.82949">
        <ele>1770.89</ele>
        <time>2014-02-17T14:58:07Z</time>
      </trkpt>
      <trkpt lat="44.9033" lon="6.82957">
        <ele>1769.44</ele>
        <time>2014-02-17T14:58:11Z</time>
      </trkpt>
      <trkpt lat="44.9033" lon="6.82964">
        <ele>1766.56</ele>
        <time>2014-02-17T14:58:24Z</time>
      </trkpt>
      <trkpt lat="44.9033" lon="6.82966">
        <ele>1766.56</ele>
        <time>2014-02-17T14:58:36Z</time>
      </trkpt>
      <trkpt lat="44.90336" lon="6.8297">
        <ele>1765.12</ele>
        <time>2014-02-17T14:58:40Z</time>
      </trkpt>
      <trkpt lat="44.90347" lon="6.82984">
        <ele>1758.87</ele>
        <time>2014-02-17T14:58:45Z</time>
      </trkpt>
      <trkpt lat="44.90353" lon="6.8299">
        <ele>1756.95</ele>
        <time>2014-02-17T14:58:47Z</time>
      </trkpt>
      <trkpt lat="44.90357" lon="6.82998">
        <ele>1755.02</ele>
        <time>2014-02-17T14:58:50Z</time>
      </trkpt>
      <trkpt lat="44.90351" lon="6.8301">
        <ele>1751.66</ele>
        <time>2014-02-17T14:58:54Z</time>
      </trkpt>
      <trkpt lat="44.90348" lon="6.83016">
        <ele>1750.22</ele>
        <time>2014-02-17T14:58:56Z</time>
      </trkpt>
      <trkpt lat="44.90348" lon="6.8302">
        <ele>1748.78</ele>
        <time>2014-02-17T14:58:58Z</time>
      </trkpt>
      <trkpt lat="44.9035" lon="6.83022">
        <ele>1748.29</ele>
        <time>2014-02-17T14:58:59Z</time>
      </trkpt>
      <trkpt lat="44.90352" lon="6.83022">
        <ele>1748.29</ele>
        <time>2014-02-17T14:59:02Z</time>
      </trkpt>
      <trkpt lat="44.90357" lon="6.83029">
        <ele>1745.41</ele>
        <time>2014-02-17T14:59:06Z</time>
      </trkpt>
      <trkpt lat="44.9037" lon="6.83034">
        <ele>1741.08</ele>
        <time>2014-02-17T14:59:10Z</time>
      </trkpt>
      <trkpt lat="44.90372" lon="6.83036">
        <ele>1739.64</ele>
        <time>2014-02-17T14:59:12Z</time>
      </trkpt>
      <trkpt lat="44.90383" lon="6.83057">
        <ele>1735.8</ele>
        <time>2014-02-17T14:59:19Z</time>
      </trkpt>
      <trkpt lat="44.90384" lon="6.83063">
        <ele>1736.28</ele>
        <time>2014-02-17T14:59:28Z</time>
      </trkpt>
      <trkpt lat="44.90389" lon="6.83071">
        <ele>1734.84</ele>
        <time>2014-02-17T14:59:39Z</time>
      </trkpt>
      <trkpt lat="44.90389" lon="6.83074">
        <ele>1734.36</ele>
        <time>2014-02-17T14:59:58Z</time>
      </trkpt>
      <trkpt lat="44.90389" lon="6.83068">
        <ele>1736.28</ele>
        <time>2014-02-17T15:00:09Z</time>
      </trkpt>
      <trkpt lat="44.90389" lon="6.83071">
        <ele>1735.8</ele>
        <time>2014-02-17T15:00:15Z</time>
      </trkpt>
      <trkpt lat="44.90388" lon="6.83075">
        <ele>1735.32</ele>
        <time>2014-02-17T15:00:19Z</time>
      </trkpt>
      <trkpt lat="44.90379" lon="6.83084">
        <ele>1733.39</ele>
        <time>2014-02-17T15:00:23Z</time>
      </trkpt>
      <trkpt lat="44.90372" lon="6.8309">
        <ele>1730.03</ele>
        <time>2014-02-17T15:00:25Z</time>
      </trkpt>
      <trkpt lat="44.90369" lon="6.83093">
        <ele>1729.07</ele>
        <time>2014-02-17T15:00:26Z</time>
      </trkpt>
      <trkpt lat="44.9037" lon="6.83118">
        <ele>1725.22</ele>
        <time>2014-02-17T15:00:37Z</time>
      </trkpt>
      <trkpt lat="44.9037" lon="6.83122">
        <ele>1724.74</ele>
        <time>2014-02-17T15:00:40Z</time>
      </trkpt>
      <trkpt lat="44.90379" lon="6.83138">
        <ele>1721.86</ele>
        <time>2014-02-17T15:00:48Z</time>
      </trkpt>
      <trkpt lat="44.90391" lon="6.83142">
        <ele>1718.49</ele>
        <time>2014-02-17T15:00:57Z</time>
      </trkpt>
      <trkpt lat="44.90392" lon="6.83146">
        <ele>1717.53</ele>
        <time>2014-02-17T15:01:03Z</time>
      </trkpt>
      <trkpt lat="44.90387" lon="6.83152">
        <ele>1718.01</ele>
        <time>2014-02-17T15:01:14Z</time>
      </trkpt>
      <trkpt lat="44.90386" lon="6.83155">
        <ele>1717.05</ele>
        <time>2014-02-17T15:01:25Z</time>
      </trkpt>
      <trkpt lat="44.90386" lon="6.8316">
        <ele>1717.05</ele>
        <time>2014-02-17T15:01:35Z</time>
      </trkpt>
      <trkpt lat="44.90386" lon="6.83164">
        <ele>1717.05</ele>
        <time>2014-02-17T15:01:40Z</time>
      </trkpt>
      <trkpt lat="44.90387" lon="6.83181">
        <ele>1713.21</ele>
        <time>2014-02-17T15:01:48Z</time>
      </trkpt>
      <trkpt lat="44.90388" lon="6.8319">
        <ele>1712.25</ele>
        <time>2014-02-17T15:01:58Z</time>
      </trkpt>
      <trkpt lat="44.90389" lon="6.8319">
        <ele>1711.28</ele>
        <time>2014-02-17T15:01:59Z</time>
      </trkpt>
      <trkpt lat="44.90392" lon="6.8319">
        <ele>1710.8</ele>
        <time>2014-02-17T15:02:02Z</time>
      </trkpt>
      <trkpt lat="44.90393" lon="6.83194">
        <ele>1709.36</ele>
        <time>2014-02-17T15:02:04Z</time>
      </trkpt>
      <trkpt lat="44.90393" lon="6.83203">
        <ele>1707.44</ele>
        <time>2014-02-17T15:02:06Z</time>
      </trkpt>
      <trkpt lat="44.90393" lon="6.83207">
        <ele>1706.96</ele>
        <time>2014-02-17T15:02:07Z</time>
      </trkpt>
      <trkpt lat="44.90397" lon="6.83212">
        <ele>1705.04</ele>
        <time>2014-02-17T15:02:10Z</time>
      </trkpt>
      <trkpt lat="44.90406" lon="6.83211">
        <ele>1702.15</ele>
        <time>2014-02-17T15:02:13Z</time>
      </trkpt>
      <trkpt lat="44.90411" lon="6.83223">
        <ele>1697.83</ele>
        <time>2014-02-17T15:02:18Z</time>
      </trkpt>
      <trkpt lat="44.90407" lon="6.83239">
        <ele>1695.9</ele>
        <time>2014-02-17T15:02:23Z</time>
      </trkpt>
      <trkpt lat="44.90416" lon="6.83247">
        <ele>1691.58</ele>
        <time>2014-02-17T15:02:27Z</time>
      </trkpt>
      <trkpt lat="44.90419" lon="6.83247">
        <ele>1691.1</ele>
        <time>2014-02-17T15:02:28Z</time>
      </trkpt>
      <trkpt lat="44.90432" lon="6.8326">
        <ele>1686.29</ele>
        <time>2014-02-17T15:02:33Z</time>
      </trkpt>
      <trkpt lat="44.90434" lon="6.8326">
        <ele>1685.33</ele>
        <time>2014-02-17T15:02:34Z</time>
      </trkpt>
      <trkpt lat="44.90437" lon="6.8326">
        <ele>1684.37</ele>
        <time>2014-02-17T15:02:35Z</time>
      </trkpt>
      <trkpt lat="44.90447" lon="6.83254">
        <ele>1682.93</ele>
        <time>2014-02-17T15:02:46Z</time>
      </trkpt>
      <trkpt lat="44.90453" lon="6.83244">
        <ele>1681.48</ele>
        <time>2014-02-17T15:02:57Z</time>
      </trkpt>
      <trkpt lat="44.9046" lon="6.83232">
        <ele>1681</ele>
        <time>2014-02-17T15:03:03Z</time>
      </trkpt>
      <trkpt lat="44.90475" lon="6.83225">
        <ele>1676.68</ele>
        <time>2014-02-17T15:03:08Z</time>
      </trkpt>
      <trkpt lat="44.90483" lon="6.83226">
        <ele>1673.31</ele>
        <time>2014-02-17T15:03:12Z</time>
      </trkpt>
      <trkpt lat="44.90485" lon="6.83238">
        <ele>1670.43</ele>
        <time>2014-02-17T15:03:15Z</time>
      </trkpt>
      <trkpt lat="44.90489" lon="6.83238">
        <ele>1668.51</ele>
        <time>2014-02-17T15:03:18Z</time>
      </trkpt>
      <trkpt lat="44.90492" lon="6.83237">
        <ele>1667.54</ele>
        <time>2014-02-17T15:03:31Z</time>
      </trkpt>
      <trkpt lat="44.90495" lon="6.83239">
        <ele>1668.02</ele>
        <time>2014-02-17T15:03:47Z</time>
      </trkpt>
      <trkpt lat="44.90495" lon="6.83239">
        <ele>1667.54</ele>
        <time>2014-02-17T15:04:16Z</time>
      </trkpt>
      <trkpt lat="44.90496" lon="6.83236">
        <ele>1667.06</ele>
        <time>2014-02-17T15:04:41Z</time>
      </trkpt>
      <trkpt lat="44.90495" lon="6.83238">
        <ele>1667.54</ele>
        <time>2014-02-17T15:04:58Z</time>
      </trkpt>
      <trkpt lat="44.90495" lon="6.83238">
        <ele>1667.54</ele>
        <time>2014-02-17T15:05:15Z</time>
      </trkpt>
      <trkpt lat="44.90496" lon="6.83237">
        <ele>1667.54</ele>
        <time>2014-02-17T15:05:20Z</time>
      </trkpt>
      <trkpt lat="44.90492" lon="6.83237">
        <ele>1668.02</ele>
        <time>2014-02-17T15:05:44Z</time>
      </trkpt>
      <trkpt lat="44.90496" lon="6.8324">
        <ele>1668.02</ele>
        <time>2014-02-17T15:06:13Z</time>
      </trkpt>
      <trkpt lat="44.90493" lon="6.83245">
        <ele>1668.51</ele>
        <time>2014-02-17T15:06:49Z</time>
      </trkpt>
      <trkpt lat="44.90493" lon="6.83242">
        <ele>1667.06</ele>
        <time>2014-02-17T15:07:21Z</time>
      </trkpt>
      <trkpt lat="44.90493" lon="6.83237">
        <ele>1668.02</ele>
        <time>2014-02-17T15:07:30Z</time>
      </trkpt>
      <trkpt lat="44.90493" lon="6.83237">
        <ele>1668.99</ele>
        <time>2014-02-17T15:07:43Z</time>
      </trkpt>
      <trkpt lat="44.90494" lon="6.83234">
        <ele>1668.99</ele>
        <time>2014-02-17T15:07:53Z</time>
      </trkpt>
      <trkpt lat="44.90494" lon="6.83234">
        <ele>1669.47</ele>
        <time>2014-02-17T15:07:54Z</time>
      </trkpt>
      <trkpt lat="44.905" lon="6.83226">
        <ele>1669.47</ele>
        <time>2014-02-17T15:08:08Z</time>
      </trkpt>
      <trkpt lat="44.90512" lon="6.83229">
        <ele>1667.06</ele>
        <time>2014-02-17T15:08:14Z</time>
      </trkpt>
      <trkpt lat="44.90519" lon="6.83234">
        <ele>1665.62</ele>
        <time>2014-02-17T15:08:16Z</time>
      </trkpt>
      <trkpt lat="44.90526" lon="6.83241">
        <ele>1663.7</ele>
        <time>2014-02-17T15:08:18Z</time>
      </trkpt>
      <trkpt lat="44.90539" lon="6.83248">
        <ele>1660.81</ele>
        <time>2014-02-17T15:08:22Z</time>
      </trkpt>
      <trkpt lat="44.90547" lon="6.83246">
        <ele>1660.33</ele>
        <time>2014-02-17T15:08:32Z</time>
      </trkpt>
      <trkpt lat="44.90558" lon="6.83241">
        <ele>1659.85</ele>
        <time>2014-02-17T15:08:43Z</time>
      </trkpt>
      <trkpt lat="44.90573" lon="6.83246">
        <ele>1657.45</ele>
        <time>2014-02-17T15:08:50Z</time>
      </trkpt>
      <trkpt lat="44.90582" lon="6.83248">
        <ele>1657.45</ele>
        <time>2014-02-17T15:08:59Z</time>
      </trkpt>
      <trkpt lat="44.90595" lon="6.83248">
        <ele>1660.33</ele>
        <time>2014-02-17T15:09:13Z</time>
      </trkpt>
      <trkpt lat="44.90602" lon="6.83248">
        <ele>1661.3</ele>
        <time>2014-02-17T15:09:23Z</time>
      </trkpt>
      <trkpt lat="44.90606" lon="6.83252">
        <ele>1660.81</ele>
        <time>2014-02-17T15:09:37Z</time>
      </trkpt>
      <trkpt lat="44.90608" lon="6.83253">
        <ele>1661.3</ele>
        <time>2014-02-17T15:09:53Z</time>
      </trkpt>
      <trkpt lat="44.9061" lon="6.83261">
        <ele>1661.3</ele>
        <time>2014-02-17T15:09:57Z</time>
      </trkpt>
      <trkpt lat="44.90611" lon="6.83271">
        <ele>1660.81</ele>
        <time>2014-02-17T15:10:01Z</time>
      </trkpt>
      <trkpt lat="44.9061" lon="6.83279">
        <ele>1661.3</ele>
        <time>2014-02-17T15:10:05Z</time>
      </trkpt>
      <trkpt lat="44.90612" lon="6.83302">
        <ele>1660.81</ele>
        <time>2014-02-17T15:10:16Z</time>
      </trkpt>
      <trkpt lat="44.90612" lon="6.83311">
        <ele>1660.81</ele>
        <time>2014-02-17T15:10:20Z</time>
      </trkpt>
      <trkpt lat="44.90617" lon="6.83344">
        <ele>1661.78</ele>
        <time>2014-02-17T15:10:35Z</time>
      </trkpt>
      <trkpt lat="44.90626" lon="6.83357">
        <ele>1663.22</ele>
        <time>2014-02-17T15:10:48Z</time>
      </trkpt>
      <trkpt lat="44.90627" lon="6.83359">
        <ele>1663.22</ele>
        <time>2014-02-17T15:10:59Z</time>
      </trkpt>
      <trkpt lat="44.90627" lon="6.83355">
        <ele>1663.7</ele>
        <time>2014-02-17T15:11:18Z</time>
      </trkpt>
      <trkpt lat="44.90627" lon="6.8336">
        <ele>1662.74</ele>
        <time>2014-02-17T15:11:37Z</time>
      </trkpt>
      <trkpt lat="44.90628" lon="6.83362">
        <ele>1663.22</ele>
        <time>2014-02-17T15:12:00Z</time>
      </trkpt>
      <trkpt lat="44.90627" lon="6.83365">
        <ele>1663.22</ele>
        <time>2014-02-17T15:12:02Z</time>
      </trkpt>
      <trkpt lat="44.90616" lon="6.83371">
        <ele>1663.22</ele>
        <time>2014-02-17T15:12:15Z</time>
      </trkpt>
      <trkpt lat="44.90617" lon="6.83372">
        <ele>1663.7</ele>
        <time>2014-02-17T15:12:47Z</time>
      </trkpt>
      <trkpt lat="44.90617" lon="6.83373">
        <ele>1663.22</ele>
        <time>2014-02-17T15:12:49Z</time>
      </trkpt>
      <trkpt lat="44.90626" lon="6.83367">
        <ele>1663.7</ele>
        <time>2014-02-17T15:13:02Z</time>
      </trkpt>
      <trkpt lat="44.90632" lon="6.83364">
        <ele>1663.22</ele>
        <time>2014-02-17T15:13:08Z</time>
      </trkpt>
      <trkpt lat="44.90651" lon="6.83355">
        <ele>1662.26</ele>
        <time>2014-02-17T15:13:21Z</time>
      </trkpt>
      <trkpt lat="44.90668" lon="6.83348">
        <ele>1661.78</ele>
        <time>2014-02-17T15:13:32Z</time>
      </trkpt>
      <trkpt lat="44.90675" lon="6.83346">
        <ele>1661.3</ele>
        <time>2014-02-17T15:13:36Z</time>
      </trkpt>
      <trkpt lat="44.90676" lon="6.83345">
        <ele>1661.78</ele>
        <time>2014-02-17T15:13:37Z</time>
      </trkpt>
      <trkpt lat="44.90677" lon="6.83344">
        <ele>1661.3</ele>
        <time>2014-02-17T15:13:38Z</time>
      </trkpt>
      <trkpt lat="44.90679" lon="6.83344">
        <ele>1661.3</ele>
        <time>2014-02-17T15:13:39Z</time>
      </trkpt>
      <trkpt lat="44.9068" lon="6.83343">
        <ele>1661.3</ele>
        <time>2014-02-17T15:13:40Z</time>
      </trkpt>
      <trkpt lat="44.90682" lon="6.83342">
        <ele>1661.78</ele>
        <time>2014-02-17T15:13:41Z</time>
      </trkpt>
      <trkpt lat="44.90684" lon="6.83341">
        <ele>1661.78</ele>
        <time>2014-02-17T15:13:42Z</time>
      </trkpt>
      <trkpt lat="44.90686" lon="6.8334">
        <ele>1661.3</ele>
        <time>2014-02-17T15:13:43Z</time>
      </trkpt>
      <trkpt lat="44.90687" lon="6.83338">
        <ele>1661.78</ele>
        <time>2014-02-17T15:13:44Z</time>
      </trkpt>
      <trkpt lat="44.90689" lon="6.83337">
        <ele>1661.3</ele>
        <time>2014-02-17T15:13:45Z</time>
      </trkpt>
      <trkpt lat="44.90691" lon="6.83335">
        <ele>1661.78</ele>
        <time>2014-02-17T15:13:57Z</time>
      </trkpt>
      <trkpt lat="44.90694" lon="6.83319">
        <ele>1660.33</ele>
        <time>2014-02-17T15:14:10Z</time>
      </trkpt>
      <trkpt lat="44.90697" lon="6.83319">
        <ele>1660.81</ele>
        <time>2014-02-17T15:14:27Z</time>
      </trkpt>
      <trkpt lat="44.90696" lon="6.83318">
        <ele>1660.81</ele>
        <time>2014-02-17T15:14:54Z</time>
      </trkpt>
      <trkpt lat="44.90695" lon="6.83297">
        <ele>1659.85</ele>
        <time>2014-02-17T15:15:12Z</time>
      </trkpt>
      <trkpt lat="44.90695" lon="6.83291">
        <ele>1658.89</ele>
        <time>2014-02-17T15:15:13Z</time>
      </trkpt>
      <trkpt lat="44.90695" lon="6.83278">
        <ele>1657.93</ele>
        <time>2014-02-17T15:15:15Z</time>
      </trkpt>
      <trkpt lat="44.90696" lon="6.83271">
        <ele>1656.97</ele>
        <time>2014-02-17T15:15:16Z</time>
      </trkpt>
      <trkpt lat="44.90697" lon="6.83266">
        <ele>1656.49</ele>
        <time>2014-02-17T15:15:17Z</time>
      </trkpt>
      <trkpt lat="44.907" lon="6.83262">
        <ele>1655.53</ele>
        <time>2014-02-17T15:15:18Z</time>
      </trkpt>
      <trkpt lat="44.90703" lon="6.83258">
        <ele>1655.05</ele>
        <time>2014-02-17T15:15:19Z</time>
      </trkpt>
      <trkpt lat="44.90706" lon="6.83255">
        <ele>1655.05</ele>
        <time>2014-02-17T15:15:20Z</time>
      </trkpt>
      <trkpt lat="44.9071" lon="6.83253">
        <ele>1655.05</ele>
        <time>2014-02-17T15:15:21Z</time>
      </trkpt>
      <trkpt lat="44.90713" lon="6.83251">
        <ele>1655.05</ele>
        <time>2014-02-17T15:15:22Z</time>
      </trkpt>
      <trkpt lat="44.90717" lon="6.83248">
        <ele>1655.05</ele>
        <time>2014-02-17T15:15:23Z</time>
      </trkpt>
      <trkpt lat="44.9072" lon="6.83247">
        <ele>1655.05</ele>
        <time>2014-02-17T15:15:24Z</time>
      </trkpt>
      <trkpt lat="44.90723" lon="6.83245">
        <ele>1654.09</ele>
        <time>2014-02-17T15:15:25Z</time>
      </trkpt>
      <trkpt lat="44.90726" lon="6.83245">
        <ele>1654.57</ele>
        <time>2014-02-17T15:15:26Z</time>
      </trkpt>
      <trkpt lat="44.90756" lon="6.83246">
        <ele>1654.09</ele>
        <time>2014-02-17T15:15:38Z</time>
      </trkpt>
      <trkpt lat="44.90766" lon="6.83241">
        <ele>1654.09</ele>
        <time>2014-02-17T15:15:44Z</time>
      </trkpt>
      <trkpt lat="44.90768" lon="6.83238">
        <ele>1654.09</ele>
        <time>2014-02-17T15:15:47Z</time>
      </trkpt>
      <trkpt lat="44.90787" lon="6.83227">
        <ele>1654.57</ele>
        <time>2014-02-17T15:16:00Z</time>
      </trkpt>
      <trkpt lat="44.90799" lon="6.83206">
        <ele>1655.53</ele>
        <time>2014-02-17T15:16:14Z</time>
      </trkpt>
      <trkpt lat="44.90807" lon="6.83184">
        <ele>1655.53</ele>
        <time>2014-02-17T15:16:26Z</time>
      </trkpt>
      <trkpt lat="44.90813" lon="6.83176">
        <ele>1656.01</ele>
        <time>2014-02-17T15:16:32Z</time>
      </trkpt>
      <trkpt lat="44.90821" lon="6.83167">
        <ele>1657.45</ele>
        <time>2014-02-17T15:16:43Z</time>
      </trkpt>
      <trkpt lat="44.90824" lon="6.83163">
        <ele>1657.93</ele>
        <time>2014-02-17T15:16:56Z</time>
      </trkpt>
      <trkpt lat="44.90837" lon="6.83153">
        <ele>1658.41</ele>
        <time>2014-02-17T15:17:10Z</time>
      </trkpt>
      <trkpt lat="44.90853" lon="6.83141">
        <ele>1658.89</ele>
        <time>2014-02-17T15:17:26Z</time>
      </trkpt>
      <trkpt lat="44.90854" lon="6.83139">
        <ele>1659.37</ele>
        <time>2014-02-17T15:17:27Z</time>
      </trkpt>
      <trkpt lat="44.90857" lon="6.83136">
        <ele>1658.89</ele>
        <time>2014-02-17T15:17:30Z</time>
      </trkpt>
      <trkpt lat="44.90858" lon="6.83134">
        <ele>1659.85</ele>
        <time>2014-02-17T15:17:31Z</time>
      </trkpt>
      <trkpt lat="44.90858" lon="6.83133">
        <ele>1659.85</ele>
        <time>2014-02-17T15:17:32Z</time>
      </trkpt>
      <trkpt lat="44.90866" lon="6.83121">
        <ele>1660.33</ele>
        <time>2014-02-17T15:17:45Z</time>
      </trkpt>
      <trkpt lat="44.90869" lon="6.83115">
        <ele>1659.85</ele>
        <time>2014-02-17T15:17:50Z</time>
      </trkpt>
      <trkpt lat="44.9087" lon="6.83114">
        <ele>1659.85</ele>
        <time>2014-02-17T15:17:51Z</time>
      </trkpt>
      <trkpt lat="44.90871" lon="6.83112">
        <ele>1659.37</ele>
        <time>2014-02-17T15:17:52Z</time>
      </trkpt>
      <trkpt lat="44.90872" lon="6.8311">
        <ele>1659.85</ele>
        <time>2014-02-17T15:17:53Z</time>
      </trkpt>
      <trkpt lat="44.90873" lon="6.83109">
        <ele>1659.85</ele>
        <time>2014-02-17T15:17:54Z</time>
      </trkpt>
      <trkpt lat="44.90874" lon="6.83107">
        <ele>1660.33</ele>
        <time>2014-02-17T15:17:55Z</time>
      </trkpt>
      <trkpt lat="44.90875" lon="6.83105">
        <ele>1659.85</ele>
        <time>2014-02-17T15:17:56Z</time>
      </trkpt>
      <trkpt lat="44.90876" lon="6.83103">
        <ele>1659.85</ele>
        <time>2014-02-17T15:17:57Z</time>
      </trkpt>
      <trkpt lat="44.90877" lon="6.83101">
        <ele>1659.85</ele>
        <time>2014-02-17T15:17:58Z</time>
      </trkpt>
      <trkpt lat="44.90878" lon="6.83099">
        <ele>1659.37</ele>
        <time>2014-02-17T15:17:59Z</time>
      </trkpt>
      <trkpt lat="44.90879" lon="6.83096">
        <ele>1659.85</ele>
        <time>2014-02-17T15:18:00Z</time>
      </trkpt>
      <trkpt lat="44.90892" lon="6.83077">
        <ele>1658.89</ele>
        <time>2014-02-17T15:18:10Z</time>
      </trkpt>
      <trkpt lat="44.90894" lon="6.83076">
        <ele>1658.41</ele>
        <time>2014-02-17T15:18:11Z</time>
      </trkpt>
      <trkpt lat="44.90896" lon="6.83075">
        <ele>1657.93</ele>
        <time>2014-02-17T15:18:12Z</time>
      </trkpt>
      <trkpt lat="44.90898" lon="6.83074">
        <ele>1657.93</ele>
        <time>2014-02-17T15:18:13Z</time>
      </trkpt>
      <trkpt lat="44.909" lon="6.83073">
        <ele>1657.45</ele>
        <time>2014-02-17T15:18:14Z</time>
      </trkpt>
      <trkpt lat="44.90901" lon="6.83073">
        <ele>1658.41</ele>
        <time>2014-02-17T15:18:15Z</time>
      </trkpt>
      <trkpt lat="44.90903" lon="6.83073">
        <ele>1657.45</ele>
        <time>2014-02-17T15:18:16Z</time>
      </trkpt>
      <trkpt lat="44.9093" lon="6.83067">
        <ele>1657.93</ele>
        <time>2014-02-17T15:18:29Z</time>
      </trkpt>
      <trkpt lat="44.90949" lon="6.83055">
        <ele>1657.45</ele>
        <time>2014-02-17T15:18:42Z</time>
      </trkpt>
      <trkpt lat="44.90961" lon="6.83058">
        <ele>1658.89</ele>
        <time>2014-02-17T15:18:55Z</time>
      </trkpt>
      <trkpt lat="44.90986" lon="6.83062">
        <ele>1658.41</ele>
        <time>2014-02-17T15:19:07Z</time>
      </trkpt>
      <trkpt lat="44.91014" lon="6.83066">
        <ele>1657.45</ele>
        <time>2014-02-17T15:19:18Z</time>
      </trkpt>
      <trkpt lat="44.91038" lon="6.83062">
        <ele>1660.33</ele>
        <time>2014-02-17T15:19:32Z</time>
      </trkpt>
      <trkpt lat="44.91062" lon="6.83047">
        <ele>1659.85</ele>
        <time>2014-02-17T15:19:43Z</time>
      </trkpt>
      <trkpt lat="44.91086" lon="6.83048">
        <ele>1659.37</ele>
        <time>2014-02-17T15:19:53Z</time>
      </trkpt>
      <trkpt lat="44.9111" lon="6.83057">
        <ele>1658.41</ele>
        <time>2014-02-17T15:20:03Z</time>
      </trkpt>
      <trkpt lat="44.91129" lon="6.8306">
        <ele>1656.97</ele>
        <time>2014-02-17T15:20:09Z</time>
      </trkpt>
      <trkpt lat="44.9113" lon="6.83057">
        <ele>1656.97</ele>
        <time>2014-02-17T15:20:10Z</time>
      </trkpt>
      <trkpt lat="44.91132" lon="6.83054">
        <ele>1656.01</ele>
        <time>2014-02-17T15:20:11Z</time>
      </trkpt>
      <trkpt lat="44.91135" lon="6.83049">
        <ele>1656.01</ele>
        <time>2014-02-17T15:20:12Z</time>
      </trkpt>
      <trkpt lat="44.91138" lon="6.83045">
        <ele>1655.53</ele>
        <time>2014-02-17T15:20:13Z</time>
      </trkpt>
      <trkpt lat="44.91146" lon="6.83036">
        <ele>1653.6</ele>
        <time>2014-02-17T15:20:15Z</time>
      </trkpt>
      <trkpt lat="44.9115" lon="6.83032">
        <ele>1653.6</ele>
        <time>2014-02-17T15:20:16Z</time>
      </trkpt>
      <trkpt lat="44.91154" lon="6.83029">
        <ele>1653.12</ele>
        <time>2014-02-17T15:20:17Z</time>
      </trkpt>
      <trkpt lat="44.91186" lon="6.83012">
        <ele>1651.68</ele>
        <time>2014-02-17T15:20:28Z</time>
      </trkpt>
      <trkpt lat="44.91209" lon="6.82999">
        <ele>1651.68</ele>
        <time>2014-02-17T15:20:39Z</time>
      </trkpt>
      <trkpt lat="44.91233" lon="6.8297">
        <ele>1652.64</ele>
        <time>2014-02-17T15:20:54Z</time>
      </trkpt>
      <trkpt lat="44.9126" lon="6.82945">
        <ele>1651.68</ele>
        <time>2014-02-17T15:21:07Z</time>
      </trkpt>
      <trkpt lat="44.91274" lon="6.82914">
        <ele>1652.16</ele>
        <time>2014-02-17T15:21:20Z</time>
      </trkpt>
      <trkpt lat="44.91279" lon="6.82901">
        <ele>1652.16</ele>
        <time>2014-02-17T15:21:26Z</time>
      </trkpt>
      <trkpt lat="44.9128" lon="6.82899">
        <ele>1652.16</ele>
        <time>2014-02-17T15:21:27Z</time>
      </trkpt>
      <trkpt lat="44.91281" lon="6.82897">
        <ele>1651.68</ele>
        <time>2014-02-17T15:21:28Z</time>
      </trkpt>
      <trkpt lat="44.913" lon="6.82878">
        <ele>1651.68</ele>
        <time>2014-02-17T15:21:42Z</time>
      </trkpt>
      <trkpt lat="44.91317" lon="6.82866">
        <ele>1653.6</ele>
        <time>2014-02-17T15:21:56Z</time>
      </trkpt>
      <trkpt lat="44.91331" lon="6.82851">
        <ele>1656.01</ele>
        <time>2014-02-17T15:22:12Z</time>
      </trkpt>
      <trkpt lat="44.91341" lon="6.82839">
        <ele>1656.97</ele>
        <time>2014-02-17T15:22:23Z</time>
      </trkpt>
      <trkpt lat="44.91342" lon="6.82838">
        <ele>1657.45</ele>
        <time>2014-02-17T15:22:24Z</time>
      </trkpt>
      <trkpt lat="44.91343" lon="6.82836">
        <ele>1657.45</ele>
        <time>2014-02-17T15:22:25Z</time>
      </trkpt>
      <trkpt lat="44.91344" lon="6.82835">
        <ele>1657.45</ele>
        <time>2014-02-17T15:22:26Z</time>
      </trkpt>
      <trkpt lat="44.91346" lon="6.82834">
        <ele>1657.93</ele>
        <time>2014-02-17T15:22:27Z</time>
      </trkpt>
      <trkpt lat="44.9136" lon="6.82803">
        <ele>1656.01</ele>
        <time>2014-02-17T15:22:38Z</time>
      </trkpt>
      <trkpt lat="44.91373" lon="6.8276">
        <ele>1653.6</ele>
        <time>2014-02-17T15:22:46Z</time>
      </trkpt>
      <trkpt lat="44.91377" lon="6.82756">
        <ele>1653.12</ele>
        <time>2014-02-17T15:22:47Z</time>
      </trkpt>
      <trkpt lat="44.9138" lon="6.82754">
        <ele>1653.12</ele>
        <time>2014-02-17T15:22:48Z</time>
      </trkpt>
      <trkpt lat="44.91383" lon="6.82751">
        <ele>1653.12</ele>
        <time>2014-02-17T15:22:49Z</time>
      </trkpt>
      <trkpt lat="44.91387" lon="6.82749">
        <ele>1652.16</ele>
        <time>2014-02-17T15:22:50Z</time>
      </trkpt>
      <trkpt lat="44.91414" lon="6.82733">
        <ele>1650.24</ele>
        <time>2014-02-17T15:23:03Z</time>
      </trkpt>
      <trkpt lat="44.91415" lon="6.82732">
        <ele>1650.24</ele>
        <time>2014-02-17T15:23:19Z</time>
      </trkpt>
      <trkpt lat="44.91417" lon="6.82728">
        <ele>1650.72</ele>
        <time>2014-02-17T15:23:37Z</time>
      </trkpt>
      <trkpt lat="44.91441" lon="6.82708">
        <ele>1650.24</ele>
        <time>2014-02-17T15:23:48Z</time>
      </trkpt>
      <trkpt lat="44.91464" lon="6.82688">
        <ele>1649.76</ele>
        <time>2014-02-17T15:24:00Z</time>
      </trkpt>
      <trkpt lat="44.91485" lon="6.82685">
        <ele>1649.76</ele>
        <time>2014-02-17T15:24:12Z</time>
      </trkpt>
      <trkpt lat="44.91502" lon="6.82687">
        <ele>1650.24</ele>
        <time>2014-02-17T15:24:26Z</time>
      </trkpt>
      <trkpt lat="44.91515" lon="6.82686">
        <ele>1651.2</ele>
        <time>2014-02-17T15:24:37Z</time>
      </trkpt>
      <trkpt lat="44.91527" lon="6.82679">
        <ele>1653.12</ele>
        <time>2014-02-17T15:24:49Z</time>
      </trkpt>
      <trkpt lat="44.91542" lon="6.82669">
        <ele>1654.57</ele>
        <time>2014-02-17T15:25:04Z</time>
      </trkpt>
      <trkpt lat="44.9156" lon="6.82661">
        <ele>1655.53</ele>
        <time>2014-02-17T15:25:20Z</time>
      </trkpt>
      <trkpt lat="44.91573" lon="6.8265">
        <ele>1657.45</ele>
        <time>2014-02-17T15:25:35Z</time>
      </trkpt>
      <trkpt lat="44.91585" lon="6.82636">
        <ele>1660.33</ele>
        <time>2014-02-17T15:25:50Z</time>
      </trkpt>
      <trkpt lat="44.916" lon="6.82624">
        <ele>1660.81</ele>
        <time>2014-02-17T15:26:06Z</time>
      </trkpt>
      <trkpt lat="44.91617" lon="6.8261">
        <ele>1661.3</ele>
        <time>2014-02-17T15:26:20Z</time>
      </trkpt>
      <trkpt lat="44.9164" lon="6.82593">
        <ele>1659.85</ele>
        <time>2014-02-17T15:26:28Z</time>
      </trkpt>
      <trkpt lat="44.91644" lon="6.82588">
        <ele>1658.89</ele>
        <time>2014-02-17T15:26:29Z</time>
      </trkpt>
      <trkpt lat="44.91665" lon="6.82565">
        <ele>1656.97</ele>
        <time>2014-02-17T15:26:39Z</time>
      </trkpt>
      <trkpt lat="44.91683" lon="6.82557">
        <ele>1657.45</ele>
        <time>2014-02-17T15:26:53Z</time>
      </trkpt>
      <trkpt lat="44.91694" lon="6.82552">
        <ele>1657.93</ele>
        <time>2014-02-17T15:27:07Z</time>
      </trkpt>
      <trkpt lat="44.917" lon="6.82548">
        <ele>1657.93</ele>
        <time>2014-02-17T15:27:13Z</time>
      </trkpt>
      <trkpt lat="44.91701" lon="6.82547">
        <ele>1659.37</ele>
        <time>2014-02-17T15:27:14Z</time>
      </trkpt>
      <trkpt lat="44.91702" lon="6.82546">
        <ele>1659.37</ele>
        <time>2014-02-17T15:27:15Z</time>
      </trkpt>
      <trkpt lat="44.91703" lon="6.82544">
        <ele>1658.89</ele>
        <time>2014-02-17T15:27:28Z</time>
      </trkpt>
      <trkpt lat="44.91703" lon="6.82544">
        <ele>1658.89</ele>
        <time>2014-02-17T15:27:48Z</time>
      </trkpt>
      <trkpt lat="44.91703" lon="6.82543">
        <ele>1658.89</ele>
        <time>2014-02-17T15:28:08Z</time>
      </trkpt>
      <trkpt lat="44.91704" lon="6.82544">
        <ele>1658.41</ele>
        <time>2014-02-17T15:28:29Z</time>
      </trkpt>
      <trkpt lat="44.9171" lon="6.8254">
        <ele>1659.85</ele>
        <time>2014-02-17T15:28:48Z</time>
      </trkpt>
      <trkpt lat="44.9172" lon="6.82537">
        <ele>1661.3</ele>
        <time>2014-02-17T15:29:00Z</time>
      </trkpt>
      <trkpt lat="44.91722" lon="6.82537">
        <ele>1659.85</ele>
        <time>2014-02-17T15:29:02Z</time>
      </trkpt>
      <trkpt lat="44.91734" lon="6.82533">
        <ele>1661.78</ele>
        <time>2014-02-17T15:29:16Z</time>
      </trkpt>
      <trkpt lat="44.91746" lon="6.82531">
        <ele>1663.22</ele>
        <time>2014-02-17T15:29:29Z</time>
      </trkpt>
      <trkpt lat="44.9176" lon="6.82531">
        <ele>1663.7</ele>
        <time>2014-02-17T15:29:45Z</time>
      </trkpt>
      <trkpt lat="44.91775" lon="6.82533">
        <ele>1662.74</ele>
        <time>2014-02-17T15:29:59Z</time>
      </trkpt>
      <trkpt lat="44.91791" lon="6.82534">
        <ele>1664.66</ele>
        <time>2014-02-17T15:30:14Z</time>
      </trkpt>
      <trkpt lat="44.91804" lon="6.82534">
        <ele>1664.66</ele>
        <time>2014-02-17T15:30:27Z</time>
      </trkpt>
      <trkpt lat="44.91808" lon="6.82534">
        <ele>1665.62</ele>
        <time>2014-02-17T15:30:33Z</time>
      </trkpt>
      <trkpt lat="44.9182" lon="6.8254">
        <ele>1666.58</ele>
        <time>2014-02-17T15:30:47Z</time>
      </trkpt>
      <trkpt lat="44.91832" lon="6.8255">
        <ele>1667.06</ele>
        <time>2014-02-17T15:31:01Z</time>
      </trkpt>
      <trkpt lat="44.91833" lon="6.8255">
        <ele>1667.06</ele>
        <time>2014-02-17T15:31:02Z</time>
      </trkpt>
      <trkpt lat="44.91851" lon="6.82552">
        <ele>1664.66</ele>
        <time>2014-02-17T15:31:16Z</time>
      </trkpt>
      <trkpt lat="44.9187" lon="6.8255">
        <ele>1664.66</ele>
        <time>2014-02-17T15:31:30Z</time>
      </trkpt>
      <trkpt lat="44.91877" lon="6.82547">
        <ele>1664.18</ele>
        <time>2014-02-17T15:31:37Z</time>
      </trkpt>
      <trkpt lat="44.91892" lon="6.82543">
        <ele>1664.66</ele>
        <time>2014-02-17T15:31:52Z</time>
      </trkpt>
      <trkpt lat="44.91898" lon="6.82542">
        <ele>1664.66</ele>
        <time>2014-02-17T15:31:57Z</time>
      </trkpt>
      <trkpt lat="44.91911" lon="6.8254">
        <ele>1666.1</ele>
        <time>2014-02-17T15:32:11Z</time>
      </trkpt>
      <trkpt lat="44.91924" lon="6.82542">
        <ele>1667.06</ele>
        <time>2014-02-17T15:32:25Z</time>
      </trkpt>
      <trkpt lat="44.91935" lon="6.82546">
        <ele>1666.58</ele>
        <time>2014-02-17T15:32:37Z</time>
      </trkpt>
      <trkpt lat="44.91942" lon="6.8255">
        <ele>1666.1</ele>
        <time>2014-02-17T15:32:49Z</time>
      </trkpt>
      <trkpt lat="44.91945" lon="6.82554">
        <ele>1665.14</ele>
        <time>2014-02-17T15:33:03Z</time>
      </trkpt>
      <trkpt lat="44.91948" lon="6.82557">
        <ele>1666.1</ele>
        <time>2014-02-17T15:33:18Z</time>
      </trkpt>
      <trkpt lat="44.9195" lon="6.82557">
        <ele>1666.1</ele>
        <time>2014-02-17T15:33:37Z</time>
      </trkpt>
      <trkpt lat="44.91959" lon="6.82558">
        <ele>1664.66</ele>
        <time>2014-02-17T15:33:47Z</time>
      </trkpt>
      <trkpt lat="44.9196" lon="6.82559">
        <ele>1664.66</ele>
        <time>2014-02-17T15:33:48Z</time>
      </trkpt>
      <trkpt lat="44.91962" lon="6.82559">
        <ele>1665.14</ele>
        <time>2014-02-17T15:34:02Z</time>
      </trkpt>
      <trkpt lat="44.91966" lon="6.82556">
        <ele>1664.18</ele>
        <time>2014-02-17T15:34:12Z</time>
      </trkpt>
      <trkpt lat="44.91966" lon="6.82555">
        <ele>1664.18</ele>
        <time>2014-02-17T15:34:13Z</time>
      </trkpt>
      <trkpt lat="44.91967" lon="6.82553">
        <ele>1663.7</ele>
        <time>2014-02-17T15:34:14Z</time>
      </trkpt>
      <trkpt lat="44.91968" lon="6.82552">
        <ele>1664.18</ele>
        <time>2014-02-17T15:34:15Z</time>
      </trkpt>
      <trkpt lat="44.91969" lon="6.82551">
        <ele>1663.22</ele>
        <time>2014-02-17T15:34:16Z</time>
      </trkpt>
      <trkpt lat="44.91982" lon="6.82542">
        <ele>1661.3</ele>
        <time>2014-02-17T15:34:27Z</time>
      </trkpt>
      <trkpt lat="44.91998" lon="6.82537">
        <ele>1659.85</ele>
        <time>2014-02-17T15:34:41Z</time>
      </trkpt>
      <trkpt lat="44.92" lon="6.82534">
        <ele>1657.45</ele>
        <time>2014-02-17T15:34:49Z</time>
      </trkpt>
      <trkpt lat="44.92006" lon="6.82525">
        <ele>1656.49</ele>
        <time>2014-02-17T15:34:55Z</time>
      </trkpt>
      <trkpt lat="44.92016" lon="6.82518">
        <ele>1655.53</ele>
        <time>2014-02-17T15:35:10Z</time>
      </trkpt>
      <trkpt lat="44.92017" lon="6.82517">
        <ele>1655.53</ele>
        <time>2014-02-17T15:35:28Z</time>
      </trkpt>
      <trkpt lat="44.92023" lon="6.82516">
        <ele>1656.01</ele>
        <time>2014-02-17T15:35:40Z</time>
      </trkpt>
      <trkpt lat="44.92024" lon="6.82516">
        <ele>1656.49</ele>
        <time>2014-02-17T15:35:59Z</time>
      </trkpt>
      <trkpt lat="44.92024" lon="6.82512">
        <ele>1656.49</ele>
        <time>2014-02-17T15:36:15Z</time>
      </trkpt>
      <trkpt lat="44.92026" lon="6.82514">
        <ele>1656.97</ele>
        <time>2014-02-17T15:36:35Z</time>
      </trkpt>
      <trkpt lat="44.92024" lon="6.82521">
        <ele>1657.45</ele>
        <time>2014-02-17T15:36:46Z</time>
      </trkpt>
      <trkpt lat="44.92022" lon="6.82524">
        <ele>1657.45</ele>
        <time>2014-02-17T15:37:07Z</time>
      </trkpt>
      <trkpt lat="44.9202" lon="6.82527">
        <ele>1657.45</ele>
        <time>2014-02-17T15:37:32Z</time>
      </trkpt>
      <trkpt lat="44.92017" lon="6.82529">
        <ele>1657.45</ele>
        <time>2014-02-17T15:37:59Z</time>
      </trkpt>
      <trkpt lat="44.92019" lon="6.82525">
        <ele>1656.97</ele>
        <time>2014-02-17T15:38:20Z</time>
      </trkpt>
      <trkpt lat="44.92021" lon="6.82522">
        <ele>1657.45</ele>
        <time>2014-02-17T15:38:32Z</time>
      </trkpt>
      <trkpt lat="44.92029" lon="6.82515">
        <ele>1656.97</ele>
        <time>2014-02-17T15:38:45Z</time>
      </trkpt>
      <trkpt lat="44.92035" lon="6.82512">
        <ele>1656.97</ele>
        <time>2014-02-17T15:38:55Z</time>
      </trkpt>
      <trkpt lat="44.92036" lon="6.82511">
        <ele>1656.97</ele>
        <time>2014-02-17T15:38:56Z</time>
      </trkpt>
      <trkpt lat="44.92032" lon="6.82499">
        <ele>1656.01</ele>
        <time>2014-02-17T15:39:08Z</time>
      </trkpt>
      <trkpt lat="44.92035" lon="6.82487">
        <ele>1656.49</ele>
        <time>2014-02-17T15:39:20Z</time>
      </trkpt>
      <trkpt lat="44.92042" lon="6.82489">
        <ele>1656.49</ele>
        <time>2014-02-17T15:39:31Z</time>
      </trkpt>
      <trkpt lat="44.92046" lon="6.82485">
        <ele>1656.49</ele>
        <time>2014-02-17T15:39:45Z</time>
      </trkpt>
      <trkpt lat="44.92048" lon="6.8249">
        <ele>1656.01</ele>
        <time>2014-02-17T15:40:00Z</time>
      </trkpt>
      <trkpt lat="44.92047" lon="6.82492">
        <ele>1656.49</ele>
        <time>2014-02-17T15:40:13Z</time>
      </trkpt>
      <trkpt lat="44.92047" lon="6.82492">
        <ele>1656.49</ele>
        <time>2014-02-17T15:40:20Z</time>
      </trkpt>
      <trkpt lat="44.92049" lon="6.8249">
        <ele>1656.49</ele>
        <time>2014-02-17T15:40:32Z</time>
      </trkpt>
      <trkpt lat="44.92048" lon="6.82491">
        <ele>1656.49</ele>
        <time>2014-02-17T15:40:52Z</time>
      </trkpt>
      <trkpt lat="44.92048" lon="6.82491">
        <ele>1656.49</ele>
        <time>2014-02-17T15:40:57Z</time>
      </trkpt>
      <trkpt lat="44.92048" lon="6.8249">
        <ele>1656.49</ele>
        <time>2014-02-17T15:41:09Z</time>
      </trkpt>
      <trkpt lat="44.92043" lon="6.82488">
        <ele>1656.49</ele>
        <time>2014-02-17T15:41:14Z</time>
      </trkpt>
      <trkpt lat="44.9204" lon="6.82489">
        <ele>1656.49</ele>
        <time>2014-02-17T15:41:16Z</time>
      </trkpt>
      <trkpt lat="44.92039" lon="6.8249">
        <ele>1656.49</ele>
        <time>2014-02-17T15:41:17Z</time>
      </trkpt>
      <trkpt lat="44.92032" lon="6.82496">
        <ele>1656.49</ele>
        <time>2014-02-17T15:41:28Z</time>
      </trkpt>
      <trkpt lat="44.92021" lon="6.82512">
        <ele>1656.01</ele>
        <time>2014-02-17T15:41:41Z</time>
      </trkpt>
      <trkpt lat="44.9202" lon="6.82515">
        <ele>1656.01</ele>
        <time>2014-02-17T15:42:00Z</time>
      </trkpt>
      <trkpt lat="44.92022" lon="6.82512">
        <ele>1656.49</ele>
        <time>2014-02-17T15:42:18Z</time>
      </trkpt>
      <trkpt lat="44.92024" lon="6.82513">
        <ele>1655.53</ele>
        <time>2014-02-17T15:42:34Z</time>
      </trkpt>
      <trkpt lat="44.92024" lon="6.82517">
        <ele>1656.01</ele>
        <time>2014-02-17T15:42:53Z</time>
      </trkpt>
      <trkpt lat="44.9203" lon="6.8252">
        <ele>1655.53</ele>
        <time>2014-02-17T15:43:05Z</time>
      </trkpt>
      <trkpt lat="44.92031" lon="6.82521">
        <ele>1655.53</ele>
        <time>2014-02-17T15:43:07Z</time>
      </trkpt>
      <trkpt lat="44.92033" lon="6.82528">
        <ele>1655.53</ele>
        <time>2014-02-17T15:43:26Z</time>
      </trkpt>
      <trkpt lat="44.9204" lon="6.82519">
        <ele>1655.05</ele>
        <time>2014-02-17T15:43:56Z</time>
      </trkpt>
      <trkpt lat="44.92039" lon="6.82518">
        <ele>1654.57</ele>
        <time>2014-02-17T15:44:26Z</time>
      </trkpt>
      <trkpt lat="44.92035" lon="6.82519">
        <ele>1654.57</ele>
        <time>2014-02-17T15:44:50Z</time>
      </trkpt>
      <trkpt lat="44.92027" lon="6.82521">
        <ele>1654.57</ele>
        <time>2014-02-17T15:45:11Z</time>
      </trkpt>
      <trkpt lat="44.92029" lon="6.82513">
        <ele>1655.05</ele>
        <time>2014-02-17T15:45:34Z</time>
      </trkpt>
      <trkpt lat="44.92035" lon="6.82513">
        <ele>1655.53</ele>
        <time>2014-02-17T15:46:02Z</time>
      </trkpt>
      <trkpt lat="44.92037" lon="6.82519">
        <ele>1654.09</ele>
        <time>2014-02-17T15:46:34Z</time>
      </trkpt>
      <trkpt lat="44.92036" lon="6.82517">
        <ele>1655.05</ele>
        <time>2014-02-17T15:46:38Z</time>
      </trkpt>
      <trkpt lat="44.92036" lon="6.82507">
        <ele>1654.57</ele>
        <time>2014-02-17T15:47:02Z</time>
      </trkpt>
    </trkseg>
  </trk>
</gpx>